[[{"header":{"parameterUnit":"m.s-1","parameterCategory":1,"la1":30.6,"la2":29.2853,"lo1":-89.7004,"lo2":-87.6739,"dy":0.0162,"dx":0.0183,"nx":112,"ny":82,"refTime":"2023-04-04T12:00:00:Z","depth":0,"parameterNumber":2,"parameterNumberName":"U-component_of_WINDS"},"data":[0.0,0.0,0.0,0.0,0.0,0.0,0.0,0.0,0.0,0.0,0.0,0.0,0.0,0.0,0.0,0.0,0.0,0.0,0.0,0.0,0.0,0.0,0.0,0.0,0.0,0.0,0.0,0.0,0.0,0.0,0.0,0.0,0.0,0.0,0.0,0.0,0.0,0.0,0.0,0.0,0.0,0.0,0.0,0.0,0.0,0.0,0.0,0.0,0.0,0.0,0.0,0.0,0.0,0.0,0.0,0.0,0.0,0.0,0.0,0.0,0.0,0.0,0.0,0.0,0.0,0.0,0.0,0.0,0.0,0.0,0.0,0.0,0.0,0.0,0.0,0.0,0.0,0.0,0.0,0.0,0.0,0.0,0.0,0.0,0.0,0.0,0.0,0.0,0.0,0.0,-4.3429,-4.5881,-4.8597,-4.9922,-4.916,-4.8199,-4.675,-4.4586,0.0,0.0,0.0,0.0,0.0,0.0,0.0,0.0,0.0,0.0,0.0,0.0,0.0,0.0,0.0,0.0,0.0,0.0,0.0,0.0,0.0,0.0,0.0,0.0,0.0,0.0,0.0,0.0,0.0,0.0,0.0,0.0,0.0,0.0,0.0,0.0,0.0,0.0,0.0,0.0,0.0,0.0,0.0,0.0,0.0,0.0,0.0,0.0,0.0,0.0,0.0,0.0,0.0,0.0,0.0,0.0,0.0,0.0,0.0,0.0,0.0,0.0,0.0,0.0,0.0,0.0,0.0,0.0,0.0,0.0,0.0,0.0,0.0,0.0,0.0,0.0,0.0,0.0,0.0,0.0,0.0,0.0,0.0,0.0,0.0,0.0,0.0,0.0,0.0,0.0,0.0,0.0,0.0,0.0,0.0,0.0,0.0,0.0,0.0,0.0,0.0,0.0,0.0,0.0,-4.386,-4.7305,-4.9193,-4.9922,-4.916,-4.8132,-4.6848,-4.5274,0.0,0.0,0.0,0.0,0.0,0.0,0.0,0.0,0.0,0.0,0.0,0.0,0.0,0.0,0.0,0.0,0.0,0.0,0.0,0.0,0.0,0.0,0.0,0.0,0.0,0.0,0.0,0.0,0.0,0.0,0.0,0.0,0.0,0.0,0.0,0.0,0.0,0.0,0.0,0.0,0.0,0.0,0.0,0.0,0.0,0.0,0.0,0.0,0.0,0.0,0.0,0.0,0.0,0.0,0.0,0.0,0.0,0.0,0.0,0.0,0.0,0.0,0.0,0.0,0.0,0.0,0.0,0.0,0.0,0.0,0.0,0.0,0.0,0.0,0.0,0.0,0.0,0.0,0.0,0.0,0.0,0.0,0.0,0.0,0.0,0.0,0.0,0.0,0.0,0.0,0.0,0.0,0.0,0.0,0.0,0.0,0.0,0.0,0.0,0.0,0.0,0.0,0.0,-4.5012,-4.7103,-4.9525,-5.075,-5.1082,-5.0353,-4.9284,-4.783,-4.5996,-4.4882,0.0,0.0,0.0,0.0,0.0,0.0,0.0,0.0,0.0,0.0,0.0,0.0,0.0,0.0,0.0,0.0,0.0,0.0,0.0,0.0,0.0,0.0,0.0,0.0,0.0,0.0,0.0,0.0,0.0,0.0,0.0,0.0,0.0,0.0,0.0,0.0,0.0,0.0,0.0,0.0,0.0,0.0,0.0,0.0,0.0,0.0,0.0,0.0,0.0,0.0,0.0,0.0,0.0,0.0,0.0,0.0,0.0,0.0,0.0,0.0,0.0,0.0,0.0,0.0,0.0,0.0,0.0,0.0,0.0,0.0,0.0,0.0,0.0,0.0,0.0,0.0,0.0,0.0,0.0,0.0,0.0,0.0,0.0,0.0,0.0,0.0,0.0,0.0,0.0,0.0,0.0,0.0,0.0,0.0,0.0,0.0,0.0,0.0,0.0,0.0,0.0,0.0,-4.7929,-4.9859,-5.1219,-5.1978,-5.2075,-5.1312,-5.0237,-4.8682,-4.6487,-4.5701,0.0,0.0,0.0,0.0,0.0,0.0,0.0,0.0,0.0,0.0,0.0,0.0,0.0,0.0,0.0,0.0,0.0,0.0,0.0,0.0,0.0,0.0,0.0,0.0,0.0,0.0,0.0,0.0,0.0,0.0,0.0,0.0,0.0,0.0,0.0,0.0,0.0,0.0,0.0,0.0,0.0,0.0,0.0,0.0,0.0,0.0,0.0,0.0,0.0,0.0,0.0,0.0,0.0,0.0,0.0,0.0,0.0,0.0,0.0,0.0,0.0,0.0,0.0,0.0,0.0,0.0,0.0,0.0,0.0,0.0,0.0,0.0,0.0,0.0,0.0,0.0,0.0,0.0,0.0,0.0,0.0,0.0,0.0,0.0,0.0,0.0,0.0,0.0,0.0,0.0,0.0,0.0,0.0,0.0,0.0,0.0,0.0,0.0,0.0,0.0,0.0,0.0,-4.8057,-4.9859,-5.1324,-5.2016,-5.2004,-5.11,-5.0131,-4.8613,-4.6255,-4.5604,0.0,0.0,0.0,0.0,0.0,0.0,0.0,0.0,0.0,0.0,0.0,0.0,0.0,0.0,0.0,0.0,0.0,0.0,0.0,0.0,0.0,0.0,0.0,0.0,0.0,0.0,0.0,0.0,0.0,0.0,0.0,0.0,0.0,0.0,0.0,0.0,0.0,0.0,0.0,0.0,0.0,0.0,0.0,0.0,0.0,0.0,0.0,0.0,0.0,0.0,0.0,0.0,0.0,0.0,0.0,0.0,0.0,0.0,0.0,0.0,0.0,0.0,0.0,0.0,0.0,0.0,0.0,0.0,0.0,0.0,0.0,0.0,0.0,0.0,0.0,0.0,0.0,0.0,0.0,0.0,0.0,0.0,0.0,0.0,0.0,0.0,0.0,0.0,0.0,0.0,0.0,0.0,0.0,0.0,0.0,0.0,0.0,0.0,0.0,0.0,0.0,0.0,-4.9423,-5.0693,-5.2058,-5.2314,-5.2203,-5.1723,-5.0394,-4.8973,-4.7559,0.0,0.0,0.0,0.0,0.0,0.0,0.0,0.0,0.0,0.0,0.0,0.0,0.0,0.0,0.0,0.0,0.0,0.0,0.0,0.0,0.0,0.0,0.0,0.0,0.0,0.0,0.0,0.0,0.0,0.0,0.0,0.0,0.0,0.0,0.0,0.0,0.0,0.0,0.0,0.0,0.0,0.0,0.0,0.0,0.0,0.0,0.0,0.0,0.0,0.0,0.0,0.0,0.0,0.0,0.0,0.0,0.0,0.0,0.0,0.0,0.0,0.0,0.0,0.0,0.0,0.0,0.0,0.0,0.0,0.0,0.0,0.0,0.0,0.0,0.0,0.0,0.0,0.0,0.0,0.0,0.0,0.0,0.0,0.0,0.0,0.0,0.0,0.0,0.0,0.0,0.0,0.0,0.0,0.0,0.0,0.0,0.0,0.0,0.0,0.0,0.0,0.0,-4.9382,-5.0291,-5.1195,-5.2457,-5.248,-5.2302,-5.2013,-5.0719,-4.9428,-4.8269,0.0,0.0,0.0,0.0,0.0,0.0,0.0,0.0,0.0,0.0,0.0,0.0,0.0,0.0,0.0,0.0,0.0,0.0,0.0,0.0,0.0,0.0,0.0,0.0,0.0,0.0,0.0,0.0,0.0,0.0,0.0,0.0,0.0,0.0,0.0,0.0,0.0,0.0,0.0,0.0,0.0,0.0,0.0,0.0,0.0,0.0,0.0,0.0,0.0,0.0,0.0,0.0,0.0,0.0,0.0,0.0,0.0,0.0,0.0,0.0,0.0,0.0,0.0,0.0,0.0,0.0,0.0,0.0,0.0,0.0,0.0,0.0,0.0,0.0,0.0,0.0,0.0,0.0,0.0,0.0,0.0,0.0,0.0,0.0,0.0,0.0,0.0,0.0,0.0,0.0,0.0,0.0,0.0,0.0,0.0,0.0,0.0,0.0,0.0,0.0,0.0,0.0,-4.9544,-5.0357,-5.1195,-5.2491,-5.248,-5.2263,-5.1831,-5.1139,-4.9948,0.0,0.0,0.0,0.0,0.0,0.0,0.0,0.0,0.0,0.0,0.0,0.0,0.0,0.0,0.0,0.0,0.0,0.0,0.0,0.0,0.0,0.0,0.0,0.0,0.0,0.0,0.0,0.0,0.0,0.0,0.0,0.0,0.0,0.0,0.0,0.0,0.0,0.0,0.0,0.0,0.0,0.0,0.0,0.0,0.0,0.0,0.0,0.0,0.0,0.0,0.0,0.0,0.0,0.0,0.0,0.0,0.0,0.0,0.0,0.0,0.0,0.0,0.0,0.0,0.0,0.0,0.0,0.0,0.0,0.0,0.0,0.0,0.0,0.0,0.0,0.0,0.0,0.0,0.0,0.0,0.0,0.0,0.0,0.0,0.0,0.0,0.0,0.0,0.0,0.0,0.0,0.0,0.0,0.0,0.0,0.0,0.0,0.0,0.0,0.0,0.0,0.0,0.0,-5.0384,-5.143,-5.2359,-5.329,-5.3675,-5.3552,-5.2618,-5.1929,-5.0627,-4.8691,0.0,0.0,0.0,0.0,0.0,0.0,0.0,0.0,0.0,0.0,0.0,0.0,0.0,0.0,0.0,0.0,0.0,0.0,0.0,0.0,0.0,0.0,0.0,0.0,0.0,0.0,0.0,0.0,0.0,0.0,0.0,0.0,0.0,0.0,0.0,0.0,0.0,0.0,0.0,0.0,0.0,0.0,0.0,0.0,0.0,0.0,0.0,0.0,0.0,0.0,0.0,0.0,0.0,0.0,0.0,0.0,0.0,0.0,0.0,0.0,0.0,0.0,0.0,0.0,0.0,0.0,0.0,0.0,0.0,0.0,0.0,0.0,0.0,0.0,0.0,0.0,0.0,0.0,0.0,0.0,0.0,0.0,0.0,0.0,0.0,0.0,0.0,0.0,0.0,0.0,0.0,0.0,0.0,0.0,0.0,0.0,0.0,0.0,0.0,0.0,0.0,0.0,-5.1026,-5.2064,-5.2952,-5.3914,-5.4336,-5.4142,-5.3372,-5.2683,-5.1508,-4.9742,0.0,0.0,0.0,0.0,0.0,0.0,0.0,0.0,0.0,0.0,0.0,0.0,0.0,0.0,0.0,0.0,0.0,0.0,0.0,0.0,0.0,0.0,0.0,0.0,0.0,0.0,0.0,0.0,0.0,0.0,0.0,0.0,0.0,0.0,0.0,0.0,0.0,0.0,0.0,0.0,0.0,0.0,0.0,0.0,0.0,0.0,0.0,0.0,0.0,0.0,0.0,0.0,0.0,0.0,0.0,0.0,0.0,0.0,0.0,0.0,0.0,0.0,0.0,0.0,0.0,0.0,0.0,0.0,0.0,0.0,0.0,0.0,0.0,0.0,0.0,0.0,0.0,0.0,0.0,0.0,0.0,0.0,0.0,0.0,0.0,0.0,0.0,0.0,0.0,0.0,0.0,0.0,0.0,0.0,0.0,0.0,0.0,0.0,0.0,0.0,0.0,0.0,-5.1463,-5.236,-5.3249,-5.446,-5.4655,-5.4543,-5.4066,-5.347,-5.2486,-5.0999,0.0,0.0,0.0,0.0,0.0,0.0,0.0,0.0,0.0,0.0,0.0,0.0,0.0,0.0,0.0,0.0,0.0,0.0,0.0,0.0,0.0,0.0,0.0,0.0,0.0,0.0,0.0,0.0,0.0,0.0,0.0,0.0,0.0,0.0,0.0,0.0,0.0,0.0,0.0,0.0,0.0,0.0,0.0,0.0,0.0,0.0,0.0,0.0,0.0,0.0,0.0,0.0,0.0,0.0,0.0,0.0,0.0,0.0,0.0,0.0,-5.0296,0.0,0.0,0.0,0.0,0.0,0.0,0.0,0.0,0.0,0.0,0.0,0.0,0.0,0.0,0.0,0.0,0.0,0.0,0.0,0.0,0.0,0.0,0.0,0.0,0.0,0.0,0.0,0.0,0.0,0.0,0.0,0.0,0.0,0.0,0.0,0.0,0.0,0.0,0.0,0.0,0.0,-5.1597,-5.3154,-5.4431,-5.5251,-5.5885,-5.5908,-5.5078,-5.4728,-5.353,-5.1069,-5.0294,0.0,0.0,0.0,0.0,0.0,0.0,0.0,0.0,0.0,0.0,0.0,0.0,0.0,0.0,0.0,0.0,0.0,0.0,0.0,0.0,0.0,0.0,0.0,0.0,0.0,0.0,0.0,0.0,0.0,0.0,0.0,0.0,0.0,0.0,0.0,0.0,0.0,0.0,0.0,0.0,0.0,0.0,0.0,0.0,0.0,0.0,0.0,0.0,0.0,0.0,0.0,0.0,0.0,0.0,0.0,0.0,0.0,0.0,0.0,0.0,-5.1593,0.0,0.0,0.0,0.0,0.0,0.0,0.0,0.0,0.0,0.0,0.0,0.0,0.0,0.0,0.0,0.0,0.0,0.0,0.0,0.0,0.0,0.0,0.0,0.0,0.0,0.0,0.0,0.0,0.0,0.0,0.0,0.0,0.0,0.0,0.0,0.0,0.0,0.0,0.0,0.0,-5.2099,-5.3618,-5.4924,-5.6017,-5.6481,-5.647,-5.588,-5.5318,-5.4117,-5.2036,-5.1096,0.0,0.0,0.0,0.0,0.0,0.0,0.0,0.0,0.0,0.0,0.0,0.0,0.0,0.0,0.0,0.0,0.0,0.0,0.0,0.0,0.0,0.0,0.0,0.0,0.0,0.0,0.0,0.0,0.0,0.0,0.0,0.0,0.0,0.0,0.0,0.0,0.0,0.0,0.0,0.0,0.0,0.0,0.0,0.0,0.0,0.0,0.0,0.0,0.0,0.0,0.0,0.0,0.0,-5.6174,-5.6405,-5.6288,-5.6267,-5.6267,-5.6214,-5.5107,-5.4167,-5.331,-5.24,0.0,0.0,0.0,0.0,0.0,0.0,0.0,0.0,0.0,0.0,0.0,0.0,0.0,0.0,0.0,0.0,0.0,0.0,0.0,0.0,0.0,0.0,0.0,0.0,-4.8695,-4.8633,-4.8577,0.0,0.0,0.0,0.0,0.0,0.0,0.0,0.0,0.0,0.0,0.0,-5.2765,-5.3881,-5.509,-5.6514,-5.668,-5.6641,-5.648,-5.5686,-5.4639,-5.3373,-5.1841,-5.0147,0.0,0.0,0.0,0.0,0.0,0.0,0.0,0.0,0.0,0.0,0.0,0.0,0.0,0.0,0.0,0.0,0.0,0.0,0.0,0.0,0.0,0.0,0.0,0.0,0.0,0.0,0.0,0.0,0.0,0.0,0.0,0.0,-5.0421,-5.0589,0.0,0.0,0.0,0.0,0.0,0.0,0.0,0.0,0.0,0.0,0.0,0.0,0.0,-5.5398,-5.635,-5.6199,-5.6412,-5.6994,-5.6808,-5.7051,-5.7574,-5.7457,-5.741,-5.7374,-5.7201,0.0,-5.5689,-5.4736,0.0,0.0,0.0,0.0,0.0,0.0,0.0,0.0,0.0,0.0,0.0,0.0,0.0,0.0,0.0,0.0,0.0,0.0,0.0,0.0,0.0,0.0,-5.0651,-5.0976,-5.1349,-5.1572,0.0,-4.9001,-4.7189,-4.7657,-4.7882,0.0,0.0,0.0,0.0,0.0,0.0,0.0,-5.339,-5.4107,-5.509,-5.6514,-5.668,-5.668,-5.6641,-5.6224,-5.5548,-5.4521,-5.3157,-5.1662,-5.0055,-4.8466,0.0,0.0,0.0,0.0,0.0,0.0,0.0,0.0,0.0,0.0,0.0,0.0,0.0,0.0,0.0,0.0,0.0,0.0,0.0,0.0,0.0,0.0,0.0,0.0,0.0,0.0,0.0,0.0,0.0,-4.9943,-5.1518,-5.1617,-5.2325,-5.2742,0.0,0.0,0.0,0.0,0.0,0.0,0.0,0.0,0.0,-5.6515,-5.6591,-5.704,-5.7956,-5.7722,-5.7682,-5.7817,-5.7596,-5.7528,-5.7559,-5.751,-5.7741,-5.8153,-5.8153,-5.8227,-5.8212,-5.644,-5.5287,-5.4485,0.0,0.0,0.0,0.0,-5.0431,-5.0312,-4.9934,-4.9698,-4.953,-4.9309,0.0,0.0,0.0,0.0,0.0,0.0,0.0,0.0,0.0,0.0,-5.2187,-5.2196,-5.2275,-5.2218,-5.1694,-5.0388,-4.9419,0.0,-4.9573,-4.9776,-5.0512,0.0,0.0,0.0,0.0,-5.2761,-5.412,-5.4767,-5.5521,-5.6581,-5.668,-5.668,-5.668,-5.6362,-5.5679,-5.477,-5.393,-5.2717,-5.0953,-4.9818,-4.8498,0.0,0.0,0.0,0.0,0.0,0.0,0.0,0.0,0.0,0.0,0.0,0.0,0.0,0.0,0.0,0.0,0.0,0.0,0.0,0.0,0.0,0.0,0.0,0.0,0.0,0.0,0.0,0.0,-5.0648,-5.2102,-5.2438,-5.3144,-5.3536,0.0,0.0,0.0,0.0,0.0,0.0,-5.6627,-5.6721,-5.7205,-5.8209,-5.8246,-5.8656,-5.9512,-5.9329,-5.9072,-5.8759,-5.8597,-5.83,-5.7956,-5.7956,-5.8282,-5.8863,-5.8863,-5.9241,-5.9754,-5.779,-5.6585,-5.5852,-5.4934,-5.4428,-5.4127,-5.3277,-5.2918,-5.2774,-5.2344,-5.2141,-5.2048,-5.1838,-5.1714,-5.1527,-5.0929,0.0,0.0,0.0,0.0,-5.161,-5.2172,-5.2881,-5.3357,-5.3067,-5.2999,-5.2835,-5.2306,-5.1953,-5.1626,0.0,-5.1061,-5.1095,-5.1531,0.0,0.0,0.0,-5.2964,-5.362,-5.4845,-5.5364,-5.5885,-5.6614,-5.668,-5.668,-5.668,-5.6362,-5.5817,-5.5103,-5.447,-5.3407,-5.1949,-5.1049,-4.9882,-4.8446,0.0,0.0,0.0,0.0,0.0,0.0,0.0,0.0,0.0,0.0,0.0,0.0,0.0,0.0,0.0,0.0,0.0,0.0,0.0,0.0,0.0,0.0,0.0,0.0,0.0,0.0,0.0,0.0,0.0,-5.315,-5.3941,0.0,0.0,0.0,0.0,-5.5249,-5.5902,-5.6664,-5.7484,-5.7637,-5.844,-5.9942,-5.9959,-6.0369,-6.1188,-6.0885,-6.0568,-6.0272,-6.0029,-5.9754,-5.947,-5.947,-5.9506,-5.9542,-5.9542,-5.9579,-5.9569,-5.8917,-5.8215,-5.7413,-5.6479,-5.5535,-5.4738,-5.4555,-5.4245,-5.3947,-5.3894,-5.3629,-5.3337,-5.3274,-5.3225,-5.3078,-5.3043,-5.3008,0.0,0.0,-5.3078,-5.3113,-5.3148,-5.3567,-5.4016,-5.3774,-5.4056,-5.4328,-5.4102,-5.3647,-5.2944,0.0,-5.1629,-5.2132,-5.3361,0.0,-5.4037,-5.4559,-5.4689,-5.4915,-5.5454,-5.5549,-5.5885,-5.6614,-5.668,-5.668,-5.668,-5.6362,-5.6086,-5.602,-5.4842,-5.3938,-5.3597,-5.2084,-5.0763,-4.9837,-4.911,0.0,0.0,0.0,0.0,0.0,0.0,0.0,0.0,0.0,0.0,0.0,0.0,0.0,0.0,0.0,0.0,0.0,0.0,0.0,0.0,0.0,0.0,0.0,0.0,0.0,0.0,0.0,0.0,-5.4054,-5.5296,0.0,-5.5915,-5.605,-5.6407,-5.6874,-5.7153,-5.7617,-5.8415,-5.8957,-5.9495,-5.9966,-6.0524,-6.0933,-6.123,-6.0929,-6.0725,-6.0501,-6.0164,-5.9914,-5.9709,-5.9667,-5.9905,-6.0375,-6.0375,-6.0665,-6.11,-6.0372,-5.96,-5.8776,-5.7876,-5.7268,-5.6902,-5.6155,-5.574,-5.5535,-5.5281,-5.5058,-5.4867,-5.4752,-5.4378,-5.3892,-5.3892,-5.3576,-5.3429,-5.4384,-5.4665,-5.4881,-5.5739,-5.6139,-5.6191,-5.5911,-5.5646,-5.5421,-5.5479,-5.4973,-5.4364,-5.3909,-5.3398,-5.3294,-5.4222,-5.4349,-5.4542,-5.5235,-5.5298,-5.5563,-5.6216,-5.6316,-5.6415,-5.6647,-5.668,-5.668,-5.668,-5.6362,-5.6086,-5.6086,-5.5345,-5.4542,-5.3725,-5.2756,-5.1726,-5.0627,-4.9371,-4.8128,0.0,0.0,0.0,0.0,0.0,0.0,0.0,0.0,0.0,0.0,0.0,0.0,0.0,0.0,0.0,0.0,0.0,0.0,0.0,0.0,0.0,0.0,0.0,0.0,0.0,-5.3483,-5.4759,-5.5308,-5.6329,-5.6938,-5.6814,-5.6967,-5.7267,-5.7771,-5.7992,-5.8435,-5.921,-5.9731,-6.0248,-6.0741,-6.1298,-6.1744,-6.2004,-6.1721,-6.156,-6.1382,-6.0993,-6.0715,-6.0586,-6.0465,-6.0701,-6.1181,-6.1181,-6.1534,-6.1942,-6.1399,-6.0856,-6.0223,-5.8743,-5.8159,-5.7944,-5.6913,-5.641,-5.6189,-5.5879,-5.5706,-5.5625,-5.5537,-5.5156,-5.47,-5.47,-5.4524,-5.4559,-5.5578,-5.6009,-5.637,-5.7262,-5.7412,-5.7254,-5.6965,-5.6487,-5.6117,-5.6166,-5.5758,-5.5382,-5.5636,-5.4879,-5.4325,-5.4981,-5.4966,-5.5118,-5.5885,-5.5984,-5.615,-5.6614,-5.668,-5.668,-5.6603,-5.6603,-5.6564,-5.6486,-5.6205,-5.6006,-5.6006,-5.5612,-5.5052,-5.42,-5.323,-5.2284,-5.1363,-4.9385,-4.7989,-4.7263,0.0,0.0,0.0,0.0,0.0,0.0,0.0,0.0,0.0,0.0,0.0,0.0,0.0,0.0,0.0,0.0,0.0,0.0,0.0,0.0,0.0,0.0,0.0,-5.4576,-5.4764,-5.5406,-5.6937,-5.7133,-5.7065,-5.7065,-5.7548,-5.7864,-5.7864,-5.8412,-5.9107,-5.9865,-5.994,-6.0741,-6.2339,-6.2413,-6.2762,-6.3579,-6.3289,-6.3123,-6.3002,-6.2578,-6.2354,-6.2185,-6.206,-6.1978,-6.1978,-6.1978,-6.1978,-6.1978,-6.1978,-6.1895,-6.1568,-5.9186,-5.8062,-5.771,-5.6759,-5.6189,-5.5879,-5.5596,-5.5507,-5.5507,-5.5543,-5.5543,-5.5543,-5.5578,-5.6069,-5.6631,-5.6666,-5.7105,-5.751,-5.7545,-5.7292,-5.7002,-5.6805,-5.664,-5.6472,-5.6269,-5.5994,-5.5952,-5.6662,-5.5902,-5.5235,-5.5596,-5.5653,-5.5885,-5.6581,-5.668,0.0,-5.668,-5.668,-5.6603,-5.6441,-5.6369,-5.6323,-5.6126,-5.5886,-5.5799,-5.5799,-5.5564,-5.5287,-5.5113,-5.3559,-5.2467,-5.2017,-4.9353,-4.7543,-4.6665,0.0,0.0,0.0,0.0,0.0,0.0,0.0,0.0,0.0,0.0,0.0,0.0,0.0,0.0,0.0,0.0,0.0,0.0,0.0,0.0,0.0,-5.317,-5.4487,-5.4745,-5.6381,-5.7721,-5.8072,-5.8576,-5.8867,-5.8796,-5.8728,-5.8648,-5.8648,-5.9231,-5.9664,-5.9865,-6.1076,-6.193,-6.2413,-6.2324,-6.265,-6.3428,-6.2509,-6.2316,-6.2855,-6.2449,-6.2248,-6.2185,-6.206,-6.1978,-6.1978,-6.1978,-6.1978,-6.1978,-6.1978,-6.184,-6.1436,-5.9526,-5.8669,-5.8231,-5.6624,-5.5936,-5.5735,-5.5566,-5.5507,-5.5613,-5.6139,-5.6315,-5.642,-5.6982,-5.7298,-5.7548,-5.7985,-5.8237,-5.8389,-5.8555,-5.8527,-5.8358,-5.805,-5.7535,-5.7123,-5.7386,-5.6938,-5.6588,-5.6891,-5.6671,-5.6567,-5.6805,-5.6687,-5.6678,-5.6877,-5.6796,0.0,-5.668,-5.6564,-5.6447,-5.6441,-5.6284,-5.6165,-5.6086,-5.5886,-5.5799,-5.5799,-5.5564,-5.5287,-5.5113,-5.4008,-5.2813,-5.1518,-5.0123,-4.8882,0.0,0.0,0.0,0.0,0.0,0.0,0.0,0.0,0.0,0.0,0.0,0.0,0.0,0.0,0.0,0.0,0.0,0.0,0.0,0.0,0.0,0.0,-5.4085,-5.5523,-5.6251,-5.7715,-5.8792,-5.9013,-5.9365,-5.9563,-5.942,-5.914,-5.9114,-5.9448,-5.9711,-6.02,-6.0927,-6.1893,-6.2539,-6.2829,-6.2382,-6.2475,-6.3218,-6.2095,-6.1923,-6.2705,-6.237,-6.2185,-6.2185,-6.206,-6.1978,-6.1978,-6.1978,-6.1978,-6.1978,-6.1923,-6.1784,0.0,0.0,0.0,0.0,0.0,-5.5735,-5.5625,-5.5537,-5.5718,-5.6034,-5.6455,-5.6842,-5.7193,-5.7649,-5.8035,-5.8355,-5.8622,-5.8875,-5.9062,-5.9011,-5.8944,-5.884,-5.8455,-5.7938,-5.7591,-5.7744,-5.7288,-5.6899,-5.6963,-5.6987,0.0,-5.7139,-5.7025,-5.6872,-5.6872,-5.6757,-5.668,-5.668,-5.6525,-5.6402,-5.6284,-5.6086,-5.5927,-5.5846,-5.5685,0.0,0.0,0.0,-5.5117,-5.4539,-5.3917,0.0,0.0,0.0,-4.9769,-4.9029,-4.8032,0.0,0.0,-4.4594,-4.4143,0.0,0.0,0.0,0.0,0.0,0.0,0.0,0.0,0.0,0.0,0.0,0.0,0.0,0.0,0.0,0.0,-5.4953,-5.663,-5.8261,-5.8684,-5.9025,-5.9698,-5.9633,-5.951,-5.9309,-5.9101,-5.9298,-6.0054,-6.0078,-6.0741,-6.2339,-6.2487,0.0,0.0,0.0,-6.2311,-6.2978,-6.1898,-6.1773,-6.2552,-6.2291,-6.2195,-6.2158,-6.206,-6.1978,-6.1978,-6.1978,-6.1978,-6.1978,-6.184,-6.1636,-6.1221,-5.9573,-5.8738,-5.8207,-5.6464,-5.5801,-5.5753,-5.5753,0.0,0.0,-5.6842,-5.7368,-5.7965,-5.8035,-5.8562,-5.9061,-5.8835,-5.9197,-5.9486,-5.9047,-5.8875,-5.8666,-5.8277,-5.7991,-5.7808,-5.7625,-5.7289,-5.6987,-5.6987,-5.6949,-5.6949,-5.6949,-5.6834,-5.6719,-5.6719,-5.6719,-5.668,-5.668,-5.6486,-5.6323,-5.6126,0.0,0.0,-5.5409,-5.5409,-5.5409,-5.5409,-5.5409,-5.4914,-5.3894,-5.3697,-5.2964,-5.1653,-5.0981,-5.0503,-5.0208,-4.9644,-4.9224,-4.8848,-4.6312,-4.5047,0.0,0.0,0.0,0.0,0.0,0.0,0.0,0.0,0.0,0.0,0.0,0.0,0.0,0.0,0.0,-5.4011,-5.5821,-5.7359,-5.8291,-5.9008,-5.9462,-5.9633,-5.9492,-5.9327,-5.929,-5.9061,-5.9255,-6.0034,-6.0657,-6.1373,-6.2339,-6.3044,-6.3385,-6.3382,-6.2395,-6.2168,-6.283,-6.1646,-6.1501,-6.2265,0.0,0.0,-6.2033,-6.2005,-6.1978,-6.1978,-6.1978,-6.1978,-6.1978,-6.184,-6.1114,-5.9941,-5.8863,-5.8243,-5.7806,-5.6796,-5.6837,-5.7368,-5.7368,-5.7438,-5.7684,-5.8316,-5.8632,-5.8878,-5.9475,-5.9756,0.0,-5.9509,-5.9482,-5.9454,-5.8771,-5.8596,-5.8455,-5.8027,-5.7808,-5.7588,-5.7402,-5.7176,-5.6949,-5.6796,-5.6757,-5.6757,-5.6757,-5.6872,-5.6949,-5.6949,-5.6796,-5.668,-5.668,-5.6402,-5.6126,-5.6086,-5.5726,-5.545,-5.5409,-5.5409,-5.5409,-5.5409,-5.5409,-5.5222,-5.4838,-5.4764,-5.4368,-5.3564,-5.3059,-5.233,-5.1379,-5.0487,-4.9793,-4.9209,-4.8447,-4.7985,0.0,0.0,0.0,0.0,0.0,0.0,0.0,0.0,0.0,0.0,0.0,-4.8496,-4.9812,0.0,-5.2831,-5.4899,-5.6328,-5.7628,-5.8823,-5.9299,-5.9528,-5.9474,-5.9345,-5.9234,-5.9119,-5.9353,-5.9827,-6.0603,-6.1357,-6.2153,-6.297,-6.3311,-6.3442,-6.3289,-6.2205,-6.1923,-6.2603,-6.1475,-6.1289,-6.2114,-6.2033,-6.1978,-6.1978,-6.1978,-6.1978,-6.1978,-6.1978,-6.1978,-6.1978,-6.1756,-6.1113,-6.0063,-5.9188,-5.8411,-5.7754,-5.7333,-5.7438,-5.779,-5.779,-5.807,-5.8492,-5.8878,-5.9264,-5.9615,-6.0001,-6.0107,-6.0043,-5.9783,-5.9652,-5.9453,-5.8909,-5.8631,-5.8419,-5.8099,-5.7735,-5.7439,-5.7327,-5.7063,-5.6834,-5.6719,-5.668,-5.668,-5.668,-5.6796,-5.6834,-5.6834,-5.6757,-5.668,-5.668,-5.6362,-5.6086,-5.6086,-5.5653,-5.5409,-5.5409,-5.5409,-5.5409,-5.5409,-5.5409,-5.5287,-5.5113,-5.5113,-5.4822,-5.4242,-5.377,-5.3221,-5.2572,-5.1727,-5.1046,-5.0608,-5.0349,-4.9654,0.0,0.0,0.0,0.0,0.0,0.0,0.0,-4.6547,-4.7258,-4.8181,-4.8362,-4.8933,-5.0695,-5.1607,-5.3025,-5.5724,-5.6689,-5.7674,-5.9354,-5.9545,-5.9456,-5.9309,-5.9253,-5.9177,-5.896,-5.9475,-6.0194,-6.1113,-6.1819,-6.2599,-6.3565,-6.3488,-6.3336,-6.3194,-6.223,-6.1919,-6.2397,-6.1514,-6.138,-6.1978,-6.1978,-6.1978,-6.1978,-6.1978,-6.1978,-6.1978,-6.1978,-6.195,-6.1932,-6.1708,-6.1182,-6.0538,-5.9901,-5.9051,-5.8246,-5.8105,-5.8141,-5.8246,-5.8246,-5.8667,-5.9229,-5.9229,-5.9615,-6.0107,-6.0107,-6.0107,-6.0075,-5.9879,-5.9716,-5.952,-5.9115,-5.8771,-5.849,-5.8241,-5.7698,-5.7289,-5.7252,-5.6949,-5.668,-5.668,-5.668,-5.668,-5.668,-5.668,-5.668,-5.668,-5.668,-5.668,-5.668,-5.6362,-5.6086,-5.6086,-5.5653,-5.5409,-5.5409,-5.5409,-5.5409,-5.5409,-5.5409,-5.5328,-5.5155,-5.5155,-5.4957,-5.4539,-5.4114,-5.377,-5.3509,-5.2802,-5.2306,-5.2033,-5.1757,-5.0677,-3.8793,-3.9884,-4.1662,-4.3565,-4.4729,-4.5806,0.0,-4.7973,-4.8273,-4.9174,-4.9386,-4.992,-5.1496,-5.1999,-5.3214,-5.6281,-5.6949,-5.7657,-5.9266,-5.9545,-5.9528,-5.9309,-5.914,-5.9004,-5.8984,-5.8896,-5.9515,-6.1076,-6.1298,-6.2004,-6.3527,-6.3488,-6.3336,-6.3194,-6.2855,-6.2581,-6.2397,-6.2166,-6.2005,-6.1978,-6.1978,-6.1978,-6.1978,-6.1978,-6.1978,-6.1978,-6.1978,-6.184,-6.1651,-6.1623,-6.1182,-6.0578,-6.0503,-6.0215,-5.9756,-5.9124,-5.9299,-5.9826,-5.9826,-5.9896,-5.9966,-5.9966,-6.0036,-6.0107,-6.0107,-6.0107,-6.0075,-5.9879,-5.9814,-5.9683,-5.9149,-5.884,-5.8527,-5.8063,-5.7625,-5.7252,-5.7063,-5.6872,-5.668,-5.668,-5.668,-5.668,-5.668,-5.668,-5.668,-5.668,-5.668,-5.668,-5.668,-5.6362,-5.6086,-5.6086,-5.5653,-5.5409,-5.5409,-5.5409,-5.5409,-5.5409,-5.5409,-5.5369,-5.5369,-5.5369,-5.5278,-5.5031,-5.479,-5.4486,-5.4017,-5.329,-5.2802,-5.2563,-5.1926,-5.1373,-3.9832,-4.1014,-4.2653,-4.5072,-4.6382,-4.7387,-4.8649,-4.8964,-4.9039,-4.9415,-4.9521,-5.0009,-5.1565,-5.1947,-5.3102,-5.6379,-5.7007,-5.7674,-5.9337,-5.9581,-5.9545,-5.9309,-5.912,-5.8965,-5.8942,-5.9673,-6.0444,-6.115,-6.2079,-6.2851,-6.3451,-6.3373,-6.3218,-6.3075,-6.2755,-6.25,-6.2407,-6.2195,-6.206,-6.1978,-6.1978,-6.1978,-6.1978,-6.1978,-6.1978,-6.1978,-6.1978,-6.184,-6.1595,-6.1473,-6.1093,-6.0578,-6.0485,-6.0329,-6.0072,-5.9756,-5.9826,-6.0107,-6.0107,-6.0107,-6.0107,-6.0107,-6.0107,-6.0107,-6.0107,-6.0107,-6.0107,-5.9975,-5.9814,-5.9652,-5.9419,-5.8978,-5.8491,-5.8135,-5.7662,-5.7252,-5.7025,-5.6834,-5.668,-5.668,-5.668,-5.668,-5.668,-5.668,-5.668,-5.668,-5.668,-5.668,-5.668,-5.6362,-5.6006,-5.5693,-5.5491,-5.5409,-5.5409,-5.5409,-5.5409,-5.5409,-5.5409,-5.5409,-5.5409,-5.5409,-5.5369,-5.5278,-5.5072,-5.4822,-5.4518,-5.3899,-5.3377,-5.2846,-5.2261,-5.1803,-4.0703,-4.2052,-4.3605,-4.6072,-4.7439,-4.8423,-4.9302,-4.949,-4.949,-4.949,-4.949,-4.9909,-5.1237,-5.1715,-5.289,-5.5988,-5.6839,-5.7674,-5.9354,-5.9616,-5.9563,-5.9309,-5.914,-5.9022,-5.8899,-5.9876,-6.0704,-6.1187,-6.2301,-6.3051,-6.3382,-6.3265,-6.3123,-6.3002,-6.2654,-6.2423,-6.2407,-6.2168,-6.2033,-6.1978,-6.1978,-6.1978,-6.1978,-6.1978,-6.1978,-6.1978,-6.1978,-6.184,-6.1559,-6.1386,-6.1034,-6.0578,-6.0458,-6.0266,-6.0107,-6.0107,-6.0107,-6.0107,-6.0107,-6.0107,-6.0107,-6.0107,-6.0107,-6.0107,-6.0107,-6.0107,-6.0107,-6.0107,-5.9881,-5.9619,-5.952,-5.9047,-5.849,-5.8099,-5.7662,-5.7214,-5.6987,-5.6796,-5.668,-5.668,-5.668,-5.668,-5.668,-5.668,-5.668,-5.668,-5.668,-5.668,-5.668,-5.6362,-5.5927,-5.545,-5.5409,-5.5409,-5.5409,-5.5409,-5.5409,-5.5409,-5.5409,-5.5409,-5.5409,-5.5409,-5.5409,-5.5409,-5.5278,-5.5072,-5.4813,-5.4316,-5.377,-5.3113,-5.2577,-5.2079,-4.0723,-4.2366,-4.4214,-4.6126,-4.7361,-4.8347,-4.9287,-4.949,-4.949,-4.949,-4.949,-4.9721,-5.0504,-5.134,-5.2686,-5.5168,-5.6428,-5.7657,-5.9266,-5.9671,-5.9688,-5.9327,-5.9253,-5.9137,-5.892,-5.8834,-5.9441,-6.1076,-6.1261,-6.1901,-6.3308,-6.3265,-6.3123,-6.3002,-6.273,-6.2526,-6.2407,-6.2238,-6.2141,-6.1978,-6.1978,-6.1978,-6.1978,-6.1978,-6.1978,-6.1978,-6.1978,-6.184,-6.1559,-6.1386,-6.1034,-6.0578,-6.0458,-6.0266,-6.0107,-6.0107,-6.0107,-6.0107,-6.0107,-6.0107,-6.0107,-6.0107,-6.0107,-6.0107,-6.0107,-6.0107,-6.0107,-6.0107,-5.9943,-5.9716,-5.9419,-5.9012,-5.8492,-5.7808,-5.7476,-5.7176,-5.6796,-5.668,-5.668,-5.668,-5.668,-5.668,-5.668,-5.668,-5.668,-5.668,-5.668,-5.668,-5.668,-5.6362,-5.5927,-5.545,-5.5409,-5.5409,-5.5409,-5.5409,-5.5409,-5.5409,-5.5409,-5.5409,-5.5409,-5.5409,-5.5409,-5.5409,-5.5369,-5.5196,-5.4813,-5.4316,-5.3856,-5.3377,-5.2667,-5.217,-4.0914,-4.2961,-4.5133,-4.647,-4.7903,-4.9121,-4.9452,-4.949,-4.949,-4.949,-4.9443,-4.9605,-5.0347,-5.1133,-5.2347,-5.4275,-5.5913,-5.7369,-5.8495,-5.9135,-5.942,-5.9253,-5.9118,-5.894,-5.8797,-5.9722,-6.0593,-6.115,-6.2124,-6.2826,-6.3265,-6.3051,-6.288,-6.2755,-6.2475,-6.2318,-6.2265,-6.2141,-6.2033,-6.1978,-6.1978,-6.1978,-6.1978,-6.1978,-6.1978,-6.1978,-6.1978,-6.184,-6.1595,-6.127,-6.0944,-6.0578,-6.0297,-6.0171,-6.0107,-6.0107,-6.0107,-6.0107,-6.0107,-6.0107,-6.0107,-6.0107,-6.0107,-6.0107,-6.0107,-6.0107,-6.0075,-5.9943,-5.9781,-5.9586,-5.9183,-5.884,-5.8385,-5.7772,-5.7439,-5.7176,-5.6796,-5.668,-5.668,-5.668,-5.668,-5.668,-5.668,-5.668,-5.668,-5.668,-5.668,-5.6603,-5.6362,-5.6205,-5.5927,-5.545,-5.5409,-5.5409,-5.5409,-5.5409,-5.5409,-5.5409,-5.5409,-5.5409,-5.5409,-5.5409,-5.5409,-5.5409,-5.5409,-5.5196,-5.4813,-5.4486,-5.3985,-5.3377,-5.2833,-5.2427,-4.1696,-4.3794,-4.5998,-4.6742,-4.8243,-4.949,-4.949,-4.9474,-4.9443,-4.9443,-4.9311,-4.9309,-4.9786,-5.081,-5.2021,-5.3329,-5.5396,-5.7114,-5.7938,-5.8746,-5.9234,-5.9118,-5.898,-5.895,-5.9107,-6.037,-6.1165,-6.1122,-6.2279,-6.2993,-6.3051,-6.288,-6.2705,-6.2526,-6.2318,-6.2185,-6.2185,-6.206,-6.1978,-6.1978,-6.1978,-6.1978,-6.1978,-6.1978,-6.1978,-6.1978,-6.1923,-6.1784,-6.1595,-6.1182,-6.0854,-6.0547,-6.0234,-6.0107,-6.0107,-6.0107,-6.0107,-6.0107,-6.0107,-6.0107,-6.0107,-6.0107,-6.0107,-6.0107,-6.0107,-6.0107,-6.0075,-5.9879,-5.965,-5.9386,-5.9012,-5.8632,-5.8277,-5.7735,-5.7514,-5.7327,-5.6987,-5.6872,-5.6796,-5.6796,-5.6757,-5.668,-5.668,-5.668,-5.668,-5.668,-5.668,-5.6525,-5.6165,-5.6086,-5.5927,-5.545,-5.5409,-5.5409,-5.5409,-5.5409,-5.5409,-5.5409,-5.5409,-5.5409,-5.5409,-5.5409,-5.5409,-5.5409,-5.5328,-5.5072,-5.4655,-5.4327,-5.3856,-5.3277,-5.2877,-5.2563,-4.2865,-4.4737,-4.6697,-4.6907,-4.8213,-4.9452,-4.9452,-4.9337,-4.9273,-4.9273,-4.9127,-4.8976,-4.889,-5.0298,-5.1711,-5.2419,-5.4876,-5.6912,-5.7621,-5.8558,-5.91,-5.892,-5.8879,-5.9173,-5.9812,-6.0682,-6.1159,-6.1048,-6.1766,-6.2382,-6.2768,-6.278,-6.2654,-6.2407,-6.2238,-6.2185,-6.2185,-6.206,-6.1978,-6.1978,-6.1978,-6.1978,-6.1978,-6.1978,-6.1978,-6.1978,-6.184,-6.17,-6.1566,-6.1028,-6.0727,-6.0547,-6.0234,-6.0107,-6.0107,-6.0107,-6.0107,-6.0107,-6.0107,-6.0107,-6.0107,-6.0107,-6.0107,-6.0107,-6.0107,-6.0107,-6.0075,-5.9846,-5.9551,-5.9217,-5.8806,-5.8456,-5.8099,-5.7698,-5.7588,-5.7551,-5.7327,-5.7139,-5.6987,-5.6987,-5.6834,-5.668,-5.668,-5.668,-5.668,-5.668,-5.668,-5.6525,-5.6165,-5.6086,-5.5927,-5.545,-5.5409,-5.5409,-5.5409,-5.5409,-5.5409,-5.5409,-5.5409,-5.5409,-5.5409,-5.5409,-5.5409,-5.5409,-5.5196,-5.4864,-5.4412,-5.3942,-5.3496,-5.3086,-5.2788,-5.2563,-4.3175,-4.4594,-4.6041,-4.6069,-4.7362,-4.8574,-4.8474,-4.8846,-4.916,-4.9027,-4.8855,-4.8714,-4.8696,-4.9972,-5.1193,-5.1639,-5.4335,-5.6497,-5.6836,-5.8124,-5.896,-5.8899,-5.8818,-5.9053,-5.985,-6.058,-6.1233,-6.1726,-6.2409,-6.2781,-6.2805,-6.25,-6.2318,-6.2238,-6.2114,-6.206,-6.206,-6.2005,-6.1978,-6.1978,-6.1978,-6.1978,-6.1978,-6.1978,-6.1978,-6.1978,-6.184,-6.17,-6.1566,-6.1028,-6.0727,-6.0547,-6.0234,-6.0107,-6.0107,-6.0107,-6.0107,-6.0107,-6.0107,-6.0107,-6.0107,-6.0107,-6.0107,-6.0107,-6.0107,-6.0107,-6.0043,-5.9751,-5.9486,-5.9183,-5.8667,-5.8384,-5.8099,-5.7698,-5.7588,-5.7551,-5.7327,-5.7139,-5.6987,-5.6987,-5.6834,-5.668,-5.668,-5.668,-5.668,-5.668,-5.668,-5.6525,-5.6165,-5.6086,-5.5927,-5.545,-5.5409,-5.5409,-5.5409,-5.5409,-5.5409,-5.5409,-5.5409,-5.5409,-5.5409,-5.5409,-5.5409,-5.5409,-5.5196,-5.4864,-5.4412,-5.3942,-5.3496,-5.3086,-5.2788,-5.2653,-4.3917,-4.4858,-4.5824,-4.5851,-4.6826,-4.7717,-4.7582,-4.7794,-4.8042,-4.8209,-4.796,-4.7865,-4.8271,-4.9551,-5.0712,-5.1119,-5.3955,-5.6206,-5.6441,-5.7816,-5.8818,-5.8818,-5.8756,-5.916,-6.0246,-6.0759,-6.1402,-6.229,-6.2744,-6.288,-6.2629,-6.2397,-6.2212,-6.2114,-6.2033,-6.1978,-6.1978,-6.1978,-6.1978,-6.1978,-6.1978,-6.1978,-6.1978,-6.1978,-6.1978,-6.1978,-6.182,-6.168,-6.153,-6.0938,-6.0671,-6.0547,-6.0234,-6.0107,-6.0107,-6.0107,-6.0107,-6.0107,-6.0107,-6.0107,-6.0107,-6.0107,-6.0107,-6.0107,-6.0107,-6.004,-5.9911,-5.9652,-5.9319,-5.8944,-5.8596,-5.8312,-5.7991,-5.7772,-5.7735,-5.7698,-5.7588,-5.7327,-5.7063,-5.6911,-5.6757,-5.668,-5.668,-5.668,-5.668,-5.668,-5.668,-5.6525,-5.6165,-5.6086,-5.5927,-5.545,-5.5409,-5.5409,-5.5409,-5.5409,-5.5409,-5.5409,-5.5409,-5.5409,-5.5409,-5.5409,-5.5369,-5.5278,-5.5072,-5.4697,-5.4114,-5.3726,-5.3365,-5.2953,-5.2743,-5.2698,-4.4776,-4.5215,-4.5701,-4.5779,-4.6337,-4.6809,-4.6742,-4.6579,-4.6648,-4.7184,-4.6907,-4.6848,-4.7745,-4.9122,-5.032,-5.0789,-5.3564,-5.5833,-5.6223,-5.7563,-5.8566,-5.8698,-5.8677,-5.9229,-6.07,-6.0804,-6.1311,-6.2573,-6.2757,-6.267,-6.237,-6.2381,-6.2248,-6.2005,-6.1978,-6.1978,-6.1978,-6.1978,-6.1978,-6.1978,-6.1978,-6.1978,-6.1978,-6.1978,-6.1978,-6.1978,-6.1736,-6.1623,-6.1566,-6.0884,-6.0578,-6.0547,-6.0234,-6.0107,-6.0107,-6.0107,-6.0107,-6.0107,-6.0107,-6.0107,-6.0107,-6.0107,-6.0107,-6.0107,-6.0107,-5.9943,-5.9781,-5.9586,-5.9115,-5.8632,-5.8525,-5.8171,-5.7881,-5.7881,-5.7881,-5.7881,-5.7845,-5.7551,-5.7139,-5.6757,-5.668,-5.668,-5.668,-5.668,-5.668,-5.668,-5.668,-5.6564,-5.6205,-5.6126,-5.5927,-5.545,-5.5409,-5.5409,-5.5409,-5.5409,-5.5409,-5.5409,-5.5409,-5.5409,-5.5409,-5.5409,-5.5319,-5.5113,-5.4896,-5.4444,-5.3683,-5.3509,-5.3157,-5.2698,-5.2698,-5.2698,-4.4815,-4.4865,-4.4939,-4.4872,-4.5434,-4.5966,-4.5799,-4.6036,-4.6424,-4.6762,-4.6573,-4.6597,-4.7306,-4.8814,-5.0119,-5.0586,-5.2915,-5.4996,-5.601,-5.6941,-5.7835,-5.8603,-5.8614,-5.8921,-5.99,-5.9797,-6.0277,-6.1692,-6.174,-6.1832,-6.2202,-6.2141,-6.2033,-6.1978,-6.1978,-6.1978,-6.1978,-6.1978,-6.1978,-6.1978,-6.1978,-6.1978,-6.1978,-6.1978,-6.1978,-6.1978,-6.1736,0.0,-6.1566,-6.0884,-6.0578,-6.0547,-6.0234,-6.0107,-6.0107,-6.0107,-6.0107,-6.0107,-6.0107,-6.0107,-6.0107,-6.0107,-6.0107,-6.0107,-6.0107,-5.9943,-5.9748,-5.9453,-5.9047,-5.8632,-5.8314,-5.8063,-5.7881,-5.7881,-5.7881,-5.7845,-5.7698,-5.7327,-5.6987,-5.6757,-5.668,-5.668,-5.668,-5.668,-5.668,-5.668,-5.668,-5.6603,-5.6402,-5.6205,-5.5927,-5.545,-5.5409,-5.5409,-5.5409,-5.5409,-5.5409,-5.5409,-5.5409,-5.5409,-5.5409,-5.5409,-5.5319,-5.5113,-5.4896,-5.4444,-5.3683,-5.3509,-5.3157,-5.2698,-5.2698,-5.2698,-4.4751,-4.4725,-4.4685,-4.4619,-4.4866,-4.5045,-4.4827,-4.5127,-4.5531,-4.5872,-4.5915,-4.6167,-4.691,-4.8064,-4.9189,-5.009,-5.2105,-5.4099,-5.5628,-5.6668,-5.7624,-5.8455,-5.8529,-5.8782,-5.9501,-5.9462,-5.9963,-6.1311,-6.132,-6.1558,-6.2149,-6.2087,-6.1978,-6.1978,-6.1978,-6.1978,-6.1978,-6.1978,-6.1978,-6.1978,-6.1978,-6.1978,-6.1978,-6.1978,-6.1978,-6.1978,-6.1736,-6.1623,-6.1566,-6.0884,-6.0578,-6.0547,-6.0234,-6.0107,-6.0107,-6.0107,-6.0107,-6.0107,-6.0107,-6.0107,-6.0107,-6.0107,-6.0107,-6.0107,-5.9975,-5.9814,-5.9619,-5.925,-5.8875,-5.8526,-5.8243,-5.8027,-5.7881,-5.7881,-5.7808,-5.7698,-5.7476,-5.7214,-5.6949,-5.6719,-5.668,-5.668,-5.668,-5.668,-5.668,-5.668,-5.668,-5.6603,-5.6441,-5.6323,-5.6086,-5.5645,-5.5604,-5.5564,-5.5409,-5.5409,-5.5409,-5.5409,-5.5409,-5.5409,-5.5409,-5.5287,-5.5155,-5.498,-5.4697,-5.4242,-5.3552,-5.3465,-5.3157,-5.2698,-5.2698,-5.2698,-4.4646,-4.4646,-4.4619,-4.4619,-4.4565,-4.4491,-4.4408,-4.4547,-4.482,-4.5312,-4.5495,-4.5831,-4.6566,-4.7394,-4.8354,-4.9424,-5.1238,-5.3171,-5.5075,-5.6298,-5.7334,-5.8304,-5.8422,-5.86,-5.9085,-5.9113,-5.9635,-6.0905,-6.1266,-6.1636,-6.2132,-6.206,-6.1978,-6.1978,-6.1978,-6.1978,-6.1978,-6.1978,-6.1978,-6.1978,-6.1978,-6.1978,-6.1978,-6.1978,-6.1978,-6.1978,-6.1736,-6.1623,-6.1566,-6.0884,-6.0578,-6.0547,-6.0234,-6.0107,-6.0107,-6.0107,-6.0107,-6.0107,-6.0107,-6.0107,-6.0107,-6.0107,-6.0075,-6.0008,-5.9846,-5.965,-5.9386,-5.9047,-5.8702,-5.8384,-5.8205,-5.8027,-5.7881,-5.7845,-5.7698,-5.7476,-5.7289,-5.7063,-5.6872,-5.6719,-5.668,-5.668,-5.668,-5.668,-5.668,-5.668,-5.668,-5.6603,-5.6441,-5.6441,-5.6284,-5.5879,-5.5799,-5.5685,-5.5409,-5.5409,-5.5409,-5.5409,-5.5409,-5.5369,-5.5328,-5.5196,-5.4989,-5.4729,-5.4497,-5.4071,-5.3377,-5.3377,-5.3157,-5.2698,-5.2698,-5.2698,-4.4472,-4.4619,-4.4699,-4.4699,-4.4646,-4.4711,-4.5268,-4.5041,-4.4985,-4.5915,-4.5845,-4.5785,-4.6353,-4.7275,-4.8152,-4.8556,-5.0307,-5.2295,-5.4231,-5.5322,-5.6571,-5.8208,-5.8305,-5.8238,-5.8289,-5.8198,-5.8721,-6.0188,-6.1433,-6.2059,-6.2005,-6.2005,-6.1978,-6.1978,-6.1978,-6.1978,-6.1978,-6.1978,-6.1978,-6.1978,-6.1978,-6.1978,-6.1978,-6.1978,-6.1978,-6.1978,-6.1736,-6.1623,0.0,-6.0884,-6.0578,-6.0547,-6.0234,-6.0107,-6.0107,-6.0107,-6.0107,-6.0107,-6.0107,-6.0107,-6.0107,-6.0107,-5.9975,-5.9811,-5.9814,-5.9451,-5.9012,-5.8771,-5.8491,-5.8171,-5.7954,-5.7918,-5.7845,-5.7662,-5.7476,-5.7289,-5.7063,-5.6872,-5.6719,-5.668,-5.668,-5.668,-5.668,-5.668,-5.668,-5.668,-5.668,-5.6603,-5.6441,-5.6564,-5.648,-5.5846,-5.5799,-5.5685,-5.5409,-5.5409,-5.5409,-5.5409,-5.5409,-5.5287,-5.5155,-5.5113,-5.4906,-5.4454,-5.4412,-5.4071,-5.3377,-5.3377,-5.3157,-5.2698,-5.2698,-5.2698,-4.4214,-4.4374,-4.4537,-4.4565,-4.4899,-4.5221,-4.5239,-4.5601,-4.593,-4.5996,-4.6051,-4.6106,-4.6266,-4.6849,-4.7654,-4.8816,-4.9978,-5.1756,-5.4473,-5.5434,-5.6374,-5.7972,-5.8156,-5.8156,-5.8088,-5.802,-5.8611,-6.0079,-6.1511,-6.2275,-6.2141,-6.2033,-6.1978,-6.1978,-6.1978,-6.1978,-6.1978,-6.1978,-6.1978,-6.1978,-6.1978,-6.1978,-6.1978,-6.1978,-6.195,-6.184,-6.1708,-6.1501,0.0,-6.0823,-6.0578,-6.0547,-6.0234,-6.0107,-6.0107,-6.0107,-6.0107,-6.0107,-6.0107,-6.0107,-6.0107,-5.9943,-5.9814,-5.9652,-5.9518,-5.925,-5.8909,-5.8526,-5.8314,-5.8135,-5.7954,-5.7881,-5.7845,-5.7662,-5.7439,-5.7252,-5.7025,-5.6834,-5.668,-5.668,-5.668,-5.668,-5.668,-5.668,-5.668,-5.668,-5.6603,-5.6486,-5.6408,-5.633,-5.6205,-5.5839,-5.5886,-5.5806,-5.5409,-5.5409,-5.5409,-5.5409,-5.5319,-5.5196,-5.5113,-5.4832,-5.4581,-5.4412,-5.4285,-5.406,-5.3627,-5.3496,-5.3233,-5.2953,-5.2774,-5.2698,-4.3886,-4.4124,-4.431,-4.4397,-4.4938,-4.546,-4.5345,-4.5993,-4.6545,-4.6269,-4.6317,-4.6374,-4.6277,-4.6542,-4.7274,0.0,-4.9775,-5.137,-5.4478,-5.5405,-5.6309,-5.7836,-5.8065,-5.8088,-5.7997,-5.8437,-5.9124,-6.0188,-6.1613,-6.2397,-6.2265,-6.2141,-6.2033,-6.1978,-6.1978,-6.1978,-6.1978,-6.1978,-6.1978,-6.1978,-6.1978,-6.1978,-6.1978,-6.195,-6.1868,-6.1784,-6.1335,-6.1229,0.0,-6.0544,-6.0397,-6.0547,-6.0234,-6.0107,-6.0107,-6.0107,-6.0107,-6.0107,-6.0107,-6.0107,-6.0075,-5.9879,-5.965,-5.9453,-5.9183,-5.8978,-5.8771,-5.8314,-5.8135,-5.8063,-5.7918,-5.7881,-5.7845,-5.7588,-5.7402,-5.7214,-5.6987,-5.6796,-5.668,-5.668,-5.668,-5.668,-5.668,-5.668,-5.668,-5.668,-5.6525,-5.6402,-5.6323,-5.6205,-5.6006,-5.5806,-5.5966,-5.5927,-5.545,-5.545,-5.5483,-5.5287,-5.5196,-5.5031,-5.4906,-5.4581,-5.437,-5.4327,-5.4157,-5.3974,-5.3789,-5.354,-5.3321,-5.3086,-5.2788,-5.2698,-4.3631,-4.3844,-4.4033,-4.4162,-4.469,-4.5338,-4.5787,-4.6188,-4.6519,-4.691,-4.6684,-4.6423,-4.6423,-4.6613,-4.7166,-4.834,0.0,-5.1231,-5.3859,-5.4994,-5.622,-5.7813,-5.7997,-5.7997,-5.7997,-5.9428,-6.0382,-6.0419,-6.1764,-6.2526,-6.2433,-6.2265,-6.2141,-6.1978,-6.1978,-6.1978,-6.1978,-6.1978,-6.1978,-6.1978,-6.1978,-6.1978,-6.1978,-6.184,-6.1784,-6.172,-6.0611,-6.0576,0.0,-5.9935,-5.9901,-6.0547,-6.0234,-6.0107,-6.0107,-6.0107,-6.0107,-6.0107,-6.0107,-6.0107,-6.0075,-5.9879,-5.9584,-5.9251,-5.884,-5.8597,-5.8455,-5.8277,-5.8063,-5.7881,-5.7881,-5.7881,-5.7808,-5.7402,-5.7289,-5.7176,-5.6796,-5.668,-5.668,-5.668,-5.668,-5.668,-5.668,-5.668,-5.668,-5.668,-5.6525,-5.6323,-5.6126,-5.6086,-5.6006,-5.5806,-5.5966,-5.5927,-5.545,-5.5645,-5.5604,-5.5113,-5.5113,-5.4906,-5.4454,-5.4412,-5.4327,-5.4103,-5.4103,-5.3974,-5.3789,-5.354,-5.3321,-5.3086,-5.2788,-5.2698,-4.316,-4.3372,-4.3526,-4.3607,-4.4608,-4.5535,-4.5437,-4.6246,-4.6996,-4.6994,-4.6836,-4.6684,-4.6778,-4.6985,-4.7662,-4.9194,-4.993,-5.1384,-5.4456,-5.5226,-5.6049,-5.7661,-5.795,-5.8217,-5.8767,-5.9795,-6.0639,-6.119,-6.2168,-6.2629,-6.2397,-6.2344,-6.2248,-6.2005,-6.1978,-6.1978,-6.1978,-6.1978,-6.1978,-6.1978,-6.1978,-6.1978,-6.1978,-6.1298,-6.0935,-6.0788,-5.9645,-5.9231,-5.94,-5.9299,-5.943,-5.9682,-5.9991,-6.0107,-6.0107,-6.0107,-6.0107,-6.0107,-5.9943,-5.9911,-5.9846,-5.9551,-5.9284,-5.9012,-5.8667,-5.8455,-5.8243,-5.8027,-5.7954,-5.7881,-5.7881,-5.7881,-5.7808,-5.7402,-5.7289,-5.7176,-5.6796,-5.668,-5.668,-5.668,-5.668,-5.668,-5.668,-5.668,-5.668,-5.668,-5.6525,-5.6402,-5.6323,-5.6205,-5.6086,-5.6006,-5.6046,-5.5966,-5.5685,-5.5726,-5.5604,-5.5113,-5.4948,-5.4739,-5.438,-5.4285,-5.4189,-5.4103,-5.4103,-5.406,-5.3974,-5.3627,-5.3233,-5.2788,-5.2743,-5.2698,-4.2713,-4.2865,-4.2977,-4.3069,-4.4233,-4.5276,-4.5014,-4.6083,-4.7075,-4.6939,-4.6847,-4.6883,-4.7043,-4.7416,-4.8183,-4.9658,-5.0299,-5.1556,-5.4236,-5.4971,-5.5866,-5.752,-5.781,-5.8187,-5.8968,-5.9798,-6.0567,-6.1372,-6.2215,-6.2552,-6.2354,-6.2318,-6.2222,-6.2005,-6.1978,-6.1978,-6.1978,-6.1978,-6.1978,-6.1978,-6.1978,-6.195,-6.1895,-6.0927,-6.0428,-6.0216,-5.8795,-5.8303,0.0,-5.8678,-5.8915,-5.9267,-5.9854,-6.0107,-6.0107,-6.0008,-5.9975,-5.9943,-5.9781,-5.9683,-5.9551,-5.9284,-5.8944,-5.8632,-5.835,-5.8205,-5.8063,-5.7918,-5.7881,-5.7881,-5.7808,-5.7772,-5.7698,-5.7289,-5.7176,-5.7101,-5.6757,-5.668,-5.668,-5.668,-5.668,-5.668,-5.668,-5.668,-5.668,-5.668,-5.6525,-5.6402,-5.6402,-5.6244,-5.6126,-5.6205,-5.6165,-5.6006,-5.5806,-5.5685,-5.5442,-5.4989,-5.4781,-5.4528,-5.4285,-5.4189,-5.4103,-5.4103,-5.4103,-5.4103,-5.4103,-5.364,-5.3157,-5.2698,-5.2698,-5.2698,0.0,-4.2338,-4.2414,-4.2566,-4.3709,-4.4729,-4.4656,-4.5779,0.0,-4.6778,-4.6801,-4.6893,-4.7156,-4.781,-4.8667,-4.9708,-5.0561,-5.1667,-5.3362,-5.4435,-5.5667,-5.7304,-5.7546,-5.7923,-5.8798,-5.9527,-6.0354,-6.1204,-6.1969,-6.2318,-6.2185,-6.2185,-6.2141,-6.1978,-6.195,-6.1978,-6.1978,-6.1978,-6.1978,-6.1978,-6.1978,-6.1895,-6.1756,-6.0752,-6.018,0.0,-5.8046,-5.7654,-5.833,-5.8048,-5.8351,-5.9091,-5.9678,-5.9931,-5.9899,-5.9774,-5.9709,-5.9711,-5.9619,-5.9419,-5.9251,-5.9012,-5.8597,-5.8135,-5.7954,-5.7881,-5.7881,-5.7881,-5.7881,-5.7845,-5.7662,-5.7588,-5.7476,-5.7101,-5.6987,-5.6949,-5.6719,-5.668,-5.668,-5.668,-5.668,-5.668,-5.668,-5.668,-5.668,-5.668,-5.6525,-5.6408,-5.6408,-5.6284,-5.6205,-5.6402,-5.6244,-5.6006,-5.5733,-5.5531,-5.5237,-5.4813,-5.4539,-5.4327,-5.4103,-5.4103,-5.4103,-5.4103,-5.4103,-5.4103,-5.406,-5.3596,-5.3157,-5.2698,-5.2698,-5.2698,-4.1744,0.0,-4.2257,-4.2846,-4.3713,-4.4556,0.0,-4.5987,-4.6778,-4.6778,-4.7007,-4.7209,-4.7254,-4.7989,-4.8884,-4.9631,-5.0422,-5.1502,-5.3135,-5.4663,-5.5824,-5.6467,-5.7073,-5.8019,-5.9412,-5.9739,-6.0456,-6.1875,-6.2129,-6.2212,-6.2185,-6.2078,-6.2005,-6.184,-6.1764,-6.1784,-6.1978,-6.1978,-6.1923,-6.184,-6.184,-6.1792,-6.1579,-6.0037,-5.9307,-5.9143,-5.7262,-5.6553,-5.6738,-5.7052,-5.7258,-5.7474,-5.8008,-5.8199,-5.8202,-5.8602,-5.8746,-5.8751,-5.9077,-5.9115,-5.8978,-5.8526,-5.8278,-5.8135,-5.7954,-5.7881,-5.7881,-5.7881,-5.7772,-5.7662,-5.7625,-5.7476,-5.7327,-5.7063,-5.6987,-5.6949,-5.6719,-5.668,-5.668,-5.668,-5.668,-5.668,-5.668,-5.668,-5.668,-5.668,-5.6641,-5.6603,-5.6603,-5.6564,-5.6525,-5.6408,-5.6244,-5.5927,-5.5491,-5.5409,-5.5122,-5.4539,-5.4454,-5.4327,-5.4103,-5.4103,-5.4103,-5.4103,-5.4103,-5.3931,-5.3552,-5.3465,-5.3157,-5.2698,-5.2698,-5.2698,-4.1626,-4.1974,-4.2472,-4.2962,-4.3915,-4.4869,-4.5293,-4.6105,-4.6801,-4.6906,-4.7111,-4.7361,-4.7765,-4.8542,-4.931,-5.0031,-5.0773,-5.1741,-5.3035,-5.4306,-5.5296,-5.5858,-5.6642,-5.7763,-5.9355,-5.9536,-6.0187,-6.1778,-6.1923,-6.1923,-6.1923,-6.1868,-6.1784,-6.17,-6.1651,-6.168,-6.1848,-6.1848,-6.1756,-6.1736,-6.1736,-6.1615,-6.1408,-6.0095,-5.9473,-5.9316,-5.7875,-5.7263,-5.7299,-5.7759,-5.7686,-5.7349,-5.7911,-5.7824,-5.7485,-5.7677,-5.7751,-5.7858,-5.8321,-5.8634,-5.8667,-5.8207,-5.8063,-5.8027,-5.7918,-5.7881,-5.7881,-5.7772,-5.7698,-5.7551,-5.7364,-5.7252,-5.7101,-5.6911,-5.6872,-5.6872,-5.6834,-5.6757,-5.6719,-5.6834,-5.6757,-5.668,-5.668,-5.668,-5.668,-5.668,-5.668,-5.668,-5.668,-5.668,-5.6603,-5.6408,-5.6244,-5.5886,-5.5319,-5.5196,-5.4948,-5.4454,-5.4327,-5.42,-5.4103,-5.4103,-5.4103,-5.4103,-5.4103,-5.3931,-5.3584,-5.3465,-5.3233,-5.2877,-5.2774,-5.2698,-4.1626,-4.2271,-4.3019,-4.3132,-4.4271,-4.5411,-4.5611,-4.6282,-4.6824,-4.6952,-4.7196,-4.7595,-4.8331,-4.9123,-4.9913,-5.0569,-5.1222,-5.1958,-5.287,-5.3719,-5.4558,-5.544,-5.6257,-5.7397,-5.9014,-5.9158,-5.9841,-6.1422,-6.1422,-6.1379,-6.1443,-6.1271,-6.1171,-6.1171,-6.1314,-6.1322,-6.1322,-6.1523,-6.1559,-6.153,-6.153,-6.1444,-6.1234,-6.044,-5.9996,-5.9851,-5.8915,0.0,-5.8537,-5.8779,-5.8391,-5.771,-5.7989,-5.7657,-5.6909,-5.6822,-5.6792,-5.6865,-5.7565,-5.8015,-5.8213,-5.7993,-5.7881,-5.7881,-5.7881,-5.7881,-5.7808,-5.7625,-5.7551,-5.7476,-5.7101,-5.6987,-5.6911,-5.6757,-5.6757,-5.6796,-5.6987,-5.6872,-5.6796,-5.6949,-5.6834,-5.668,-5.668,-5.668,-5.668,-5.668,-5.668,-5.668,-5.668,-5.668,-5.6603,-5.6402,-5.6205,-5.5806,-5.5113,-5.4896,-5.4655,-5.437,-5.42,-5.4103,-5.4103,-5.4103,-5.4103,-5.4103,-5.4103,-5.3974,-5.3789,-5.354,-5.3321,-5.3086,-5.2788,-5.2698,-4.1626,-4.2725,-4.393,-4.393,-4.4728,-4.5646,-4.6271,-4.6637,-4.6801,-4.6836,-4.752,-4.8158,-4.8233,-4.9472,-5.0533,-5.0544,-5.1073,-5.1789,-5.2431,-5.3318,-5.4234,-5.5151,-5.6045,-5.7272,-5.8884,-5.9028,-5.9673,-6.125,-6.0712,-6.0403,-6.0588,-5.9829,-5.9414,-5.9414,-5.9881,-6.0152,-6.0152,-6.1121,-6.1501,-6.1357,-6.1357,-6.127,-6.1087,-6.0302,-5.9916,-5.988,0.0,-5.8681,-5.8581,-5.7758,-5.727,-5.6951,-5.5938,-5.5382,-5.5227,-5.566,-5.5803,-5.5945,-5.7021,-5.7361,-5.7355,-5.7751,-5.7881,-5.7881,-5.7881,-5.7772,-5.7588,-5.7402,-5.7364,-5.7289,-5.7063,-5.6872,-5.6796,-5.6911,-5.6949,-5.7025,-5.7214,-5.7101,-5.6949,-5.6987,-5.6834,-5.668,-5.668,-5.668,-5.668,-5.668,-5.668,-5.668,-5.668,-5.668,-5.6564,-5.6205,-5.6126,-5.5766,-5.4938,-5.4813,-5.4603,-5.4189,-5.4146,-5.4103,-5.4103,-5.4103,-5.4103,-5.4103,-5.4103,-5.3974,-5.3789,-5.354,-5.3321,-5.3086,-5.2788,-5.2698,-4.1626,-4.2863,-4.4221,-4.4221,-4.5197,-4.6282,-4.6707,-4.6847,-4.6929,-4.6929,-4.7627,-4.8352,-4.8734,-4.9793,-5.0805,-5.15,-5.1835,-5.2236,-5.2962,-5.3796,-5.4516,-5.5035,-5.5864,-5.6874,-5.8136,-5.8609,-5.9145,-5.9824,-5.9931,-5.9846,-5.9509,-5.9059,-5.8852,-5.8852,-5.9124,-5.9458,-5.9916,-6.0418,-6.084,-6.1182,-6.1182,-6.1152,-6.1093,-6.0736,-6.0558,-6.0522,0.0,-5.9929,-5.9769,-5.8662,-5.7862,-5.7162,-5.5962,-5.5126,-5.4658,-5.4905,-5.5223,-5.5541,-5.5961,-5.6542,-5.7116,-5.7277,-5.7577,-5.7881,-5.7881,-5.7772,-5.7551,-5.7364,-5.7214,-5.7101,-5.6872,-5.6834,-5.6872,-5.6987,-5.7363,-5.7778,-5.7892,-5.774,-5.7586,-5.7586,-5.71,-5.668,-5.668,-5.668,-5.668,-5.668,-5.668,-5.668,-5.668,-5.668,-5.669,-5.6617,-5.6643,-5.6279,-5.5441,-5.5357,-5.4985,-5.4177,-5.4103,-5.4103,-5.4103,-5.4103,-5.4103,-5.4103,-5.4103,-5.406,-5.3931,-5.3552,-5.3334,-5.3277,-5.2877,-5.2698,-4.1872,-4.3027,-4.4301,-4.4478,-4.5691,-4.686,-4.6975,-4.6975,-4.701,-4.7201,-4.7866,-4.8627,-4.9363,-5.0289,-5.1307,-5.2351,-5.2573,-5.2916,-5.3667,-5.433,-5.4846,-5.5135,-5.5786,-5.6537,-5.7433,-5.8067,-5.8495,-5.8674,-5.9131,-5.9095,-5.8488,-5.8246,-5.8139,-5.8139,-5.8317,-5.8738,-5.938,-5.9737,-6.0308,-6.1093,-6.1093,-6.1093,-6.1093,-6.1093,-6.1093,-6.1093,-6.1093,-6.0897,-6.0468,-5.9385,-5.8303,-5.7192,-5.6081,-5.517,-5.4494,-5.4494,-5.4746,-5.5134,-5.5107,-5.586,-5.6844,-5.6836,-5.7306,-5.7881,-5.7881,-5.7735,-5.7514,-5.7327,-5.7139,-5.6911,-5.6796,-5.6872,-5.7025,-5.7139,-5.7821,-5.8471,-5.8471,-5.8318,-5.8125,-5.8086,-5.7332,-5.668,-5.668,-5.668,-5.668,-5.6641,-5.668,-5.668,-5.6641,-5.668,-5.6723,-5.6847,-5.6963,-5.6685,-5.5805,-5.5549,-5.5027,-5.4177,-5.4103,-5.4103,-5.4103,-5.4103,-5.4103,-5.4103,-5.4103,-5.4103,-5.4103,-5.364,-5.3377,-5.3377,-5.2922,-5.279,-4.254,-4.3381,-4.4271,-4.5047,-4.6011,-4.686,-4.6975,-4.6893,-4.705,-4.7773,-4.8519,-4.9241,-4.9908,-5.1263,-5.2263,-5.2235,-5.2878,-5.3535,-5.4161,-5.4486,-5.4853,-5.5594,-5.5993,-5.6481,-5.7256,-5.7512,-5.7953,-5.8638,-5.8131,-5.7739,-5.7695,-5.6954,-5.6561,-5.6561,-5.7275,-5.7731,-5.7739,-5.9202,-6.0308,-6.1093,-6.1093,-6.1093,-6.1093,-6.1093,-6.1093,-6.1093,-6.1093,-6.0612,-5.9686,-5.8537,-5.7429,-5.6357,-5.5317,-5.4721,-5.4494,-5.4494,-5.4402,-5.4346,-5.4902,-5.5519,-5.6164,-5.6667,-5.7306,-5.7881,-5.7881,-5.7625,-5.7327,-5.7289,-5.7025,-5.6757,-5.6949,-5.6987,-5.7101,-5.7476,-5.8122,-5.8661,-5.8661,-5.8509,-5.8318,-5.8125,-5.7332,-5.668,-5.668,-5.668,-5.6641,-5.648,-5.6564,-5.6641,-5.648,-5.6564,-5.6558,-5.6191,-5.6572,-5.6469,-5.558,-5.4718,-5.4209,-5.4103,-5.4103,-5.4103,-5.4103,-5.4103,-5.4103,-5.4103,-5.4103,-5.4103,-5.4103,-5.364,-5.3377,-5.3377,-5.2922,-5.3037,-4.2917,-4.4031,-4.5149,-4.5375,-4.6059,-4.6684,-4.6731,-4.7098,-4.7512,-4.7831,-4.8859,-4.9933,-5.0696,-5.1644,-5.2411,-5.2886,-5.3507,-5.4196,-5.4946,-5.5109,-5.5273,-5.5642,-5.5793,-5.6106,-5.656,-5.7107,-5.7369,-5.7311,-5.7453,-5.7382,-5.6882,-5.6561,-5.6383,-5.6383,-5.6704,-5.7096,-5.7624,-5.8167,-5.9095,-6.038,-6.0843,-6.1093,-6.1093,-6.1093,-6.1093,-6.1093,-6.0968,-6.0331,-5.931,-5.8229,-5.7118,-5.5977,-5.4994,-5.4592,-5.4494,-5.4494,-5.4303,-5.4112,-5.4355,-5.5043,-5.5854,-5.6055,-5.6934,-5.7881,-5.7881,-5.7625,-5.7289,-5.7289,-5.7025,-5.6757,-5.6949,-5.7101,-5.7352,-5.8085,-5.8867,-5.9501,-5.9823,-5.936,-5.8825,-5.8628,-5.7586,-5.668,-5.668,-5.6603,-5.6486,-5.6408,-5.6362,-5.6323,-5.6244,-5.6284,-5.6369,-5.6515,-5.6316,-5.6007,-5.5536,-5.4643,-5.4103,-5.4103,-5.4103,-5.4103,-5.4103,-5.4103,-5.4103,-5.4103,-5.4103,-5.4103,-5.4103,-5.3801,-5.3759,-5.4001,-5.3675,-5.3851,-4.3404,-4.4533,-4.5678,-4.5799,-4.6389,-4.6931,-4.6931,-4.7356,-4.7862,-4.8357,-4.9462,-5.0602,-5.1379,-5.2075,-5.2768,-5.3542,-5.4231,-5.4875,-5.5437,-5.5507,-5.5537,-5.5654,-5.5677,-5.5793,-5.6028,-5.6603,-5.6787,-5.6372,-5.689,-5.6954,-5.6418,-5.6383,-5.6383,-5.6383,-5.6383,-5.6668,-5.7204,-5.7453,-5.8131,-5.9202,-6.0237,-6.0843,-6.1093,-6.1093,-6.1064,-6.1004,-6.0878,-6.0002,-5.8712,-5.7907,-5.676,-5.5378,-5.4733,-5.4494,-5.4494,-5.4431,-5.4239,-5.398,-5.3915,-5.4669,-5.5681,-5.5681,-5.6697,-5.7881,-5.7881,-5.7625,-5.7289,-5.7289,-5.7025,-5.6757,-5.6949,-5.7101,-5.7453,-5.8379,-5.9156,-5.9851,-6.0357,-5.9798,-5.9139,-5.894,-5.7707,-5.668,-5.668,-5.6723,-5.6731,-5.6619,-5.669,-5.6734,-5.6693,-5.6734,-5.6776,-5.6936,-5.6188,-5.5623,-5.5407,-5.46,-5.4103,-5.4103,-5.4103,-5.4103,-5.4103,-5.4103,-5.4103,-5.4103,-5.4103,-5.4198,-5.4419,-5.4234,-5.4316,-5.475,-5.451,-5.4622,-4.4112,-4.489,-4.5669,-4.6413,-4.7095,-4.7597,-4.7632,-4.7632,-4.8055,-4.9607,-5.0453,-5.1119,-5.1864,-5.2664,-5.3436,-5.4173,-5.4981,-5.5507,-5.5507,-5.5507,-5.5507,-5.5507,-5.5625,-5.5706,-5.5706,-5.6028,-5.6197,-5.6197,-5.6336,-5.6418,-5.6383,-5.6383,-5.6383,-5.6383,-5.6383,-5.6383,-5.6383,-5.7168,-5.7588,-5.7624,-5.9166,-6.0308,-6.1093,-6.1093,-6.1004,-6.0782,-6.0782,-5.9623,-5.7785,-5.7635,-5.6353,-5.4494,-5.4494,-5.4494,-5.4463,-5.4271,-5.411,-5.398,-5.3783,-5.4568,-5.5681,-5.5681,-5.6697,-5.7881,-5.7881,-5.7625,-5.7289,-5.7289,-5.7025,-5.6757,-5.6949,-5.6987,-5.7263,-5.8189,-5.8997,-5.9655,-6.0191,-5.9751,-5.9139,-5.894,-5.7707,-5.668,-5.6713,-5.7153,-5.7409,-5.7175,-5.7716,-5.8124,-5.7925,-5.8083,-5.7925,-5.7291,-5.6167,-5.5363,-5.5146,-5.4514,-5.4103,-5.4103,-5.4103,-5.4103,-5.4103,-5.4103,-5.4103,-5.4103,-5.4103,-5.4451,-5.5102,-5.4926,-5.505,-5.5499,-5.5224,-5.5333,-4.4462,-4.5494,-4.6717,-4.731,-4.7592,-4.7978,-4.887,-4.909,-4.9372,-5.0391,-5.076,-5.1119,-5.1864,-5.2664,-5.3436,-5.4173,-5.4981,-5.5507,-5.5507,-5.5507,-5.5507,-5.5507,-5.5537,-5.5836,-5.6482,-5.6721,-5.6865,-5.6986,-5.7155,-5.6989,-5.6418,-5.6383,-5.6383,-5.6383,-5.6383,-5.6383,-5.6383,-5.6633,-5.7025,-5.7596,-5.7911,-5.8837,-6.0272,-6.0689,-6.0878,-6.0752,-5.9915,-5.8796,-5.753,-5.6046,-5.5067,-5.4494,-5.4494,-5.4494,-5.4463,-5.4271,-5.411,-5.398,-5.3783,-5.4568,-5.5681,-5.5681,-5.6697,-5.7881,-5.7881,-5.7735,-5.7476,-5.7327,-5.7101,-5.6872,-5.6796,-5.6796,-5.7205,-5.8819,-5.9248,-5.9631,-6.0817,-5.9964,-5.898,-5.8899,-5.7707,-5.6846,-5.7376,-5.7324,-5.7379,-5.779,-5.7836,-5.7706,-5.7452,-5.7452,-5.7291,-5.6774,-5.5994,-5.5363,-5.5146,-5.4913,-5.483,-5.483,-5.5304,-5.5114,-5.4134,-5.4577,-5.483,-5.483,-5.5304,-5.5683,-5.5873,-5.5828,-5.5938,-5.6216,-5.6124,-5.6326,-4.4585,-4.574,-4.7013,-4.7311,-4.7793,-4.8494,-4.9873,-5.0198,-5.0311,-5.0803,-5.0873,-5.1224,-5.2277,-5.2874,-5.357,-5.4595,-5.5191,-5.5507,-5.5507,-5.5507,-5.5507,-5.5507,-5.5507,-5.5853,-5.671,-5.6705,-5.6779,-5.7185,-5.7163,-5.6882,-5.6418,-5.6383,-5.6383,-5.6383,-5.6383,-5.6383,-5.6383,-5.6383,-5.6605,-5.7049,-5.7214,-5.7797,-5.8763,-5.9769,-6.0028,-5.9522,-5.8289,-5.7447,-5.6795,-5.517,-5.4494,-5.4494,-5.4494,-5.4494,-5.4463,-5.4207,-5.4078,-5.4016,-5.4024,-5.477,-5.5749,-5.6055,-5.6934,-5.7881,-5.7881,-5.7772,-5.7551,-5.7364,-5.7176,-5.6949,-5.6757,-5.668,-5.7122,-5.8852,-5.9179,-5.9498,-6.0961,-6.024,-5.933,-5.933,-5.8369,-5.7707,-5.8051,-5.8067,-5.8109,-5.8451,-5.8398,-5.8249,-5.8075,-5.79,-5.7552,-5.7032,-5.6486,-5.6005,-5.5588,-5.5557,-5.5557,-5.5557,-5.5936,-5.5809,-5.4956,-5.5335,-5.5557,-5.5557,-5.5967,-5.6315,-5.6599,-5.6599,-5.6766,-5.7043,-5.7043,-5.7121,-4.4585,-4.5672,-4.6813,-4.6932,-4.7922,-4.9248,-5.0584,-5.0873,-5.0873,-5.0873,-5.0873,-5.1329,-5.2832,-5.312,-5.3682,-5.5127,-5.5443,-5.5478,-5.5478,-5.5478,-5.5507,-5.5507,-5.5507,-5.5788,-5.6526,-5.6229,-5.6297,-5.7034,-5.6715,-5.6454,-5.6383,-5.6383,-5.6383,-5.6383,-5.6383,-5.6383,-5.6383,-5.6383,-5.63,-5.6169,-5.6816,-5.6963,-5.6805,-5.8471,-5.8663,-5.7553,-5.6422,-5.5854,-5.5718,-5.4868,-5.4494,-5.4494,-5.4494,-5.4494,-5.4463,-5.411,-5.398,-5.405,-5.4466,-5.5074,-5.5817,-5.6562,-5.7306,-5.7881,-5.7881,-5.7772,-5.7551,-5.7364,-5.7176,-5.6949,-5.6757,-5.668,-5.7044,-5.8535,-5.8899,-5.9297,-6.0788,-6.0523,-5.9993,-5.9993,-5.9396,-5.8852,-5.8716,-5.9037,-5.9245,-5.9088,-5.9208,-5.9286,-5.9286,-5.8882,-5.8355,-5.7706,-5.7399,-5.6947,-5.6315,-5.6283,-5.6283,-5.6283,-5.6347,-5.6378,-5.6378,-5.6315,-5.6283,-5.6283,-5.6347,-5.6694,-5.7326,-5.7326,-5.7505,-5.7871,-5.7871,-5.7778,-4.4503,-4.5559,-4.6897,-4.8014,-4.9379,-5.0505,-5.083,-5.0873,-5.0873,-5.0873,-5.0873,-5.1154,-5.2102,-5.2656,-5.3299,-5.4215,-5.4909,-5.5259,-5.5259,-5.5383,-5.5507,-5.5507,-5.5507,-5.5788,-5.6526,-5.6634,-5.6811,-5.7069,-5.71,-5.6914,-5.6418,-5.6383,-5.6383,-5.6383,-5.6383,-5.6383,-5.6383,-5.6308,-5.6134,-5.5964,-5.5912,-5.5718,-5.5488,-5.7298,-5.7456,-5.629,-5.6021,-5.5479,-5.4767,-5.4563,-5.4494,-5.4494,-5.4494,-5.4494,-5.4463,-5.411,-5.398,-5.405,-5.4466,-5.5074,-5.5817,-5.6562,-5.7306,-5.7881,-5.7881,-5.7772,-5.7551,-5.7364,-5.7176,-5.6949,-5.6757,-5.668,-5.7044,-5.8535,-5.8899,-5.9297,-6.0788,-6.0523,-5.9993,-5.9993,-5.9396,-5.8984,-5.9342,-5.9365,-5.9366,-5.9523,-5.9411,-5.9241,-5.9062,-5.8792,-5.8455,-5.8191,-5.7593,-5.7168,-5.701,-5.701,-5.701,-5.701,-5.7516,-5.7878,-5.7878,-5.7295,-5.701,-5.701,-5.7548,-5.7941,-5.8053,-5.8053,-5.8024,-5.7871,-5.7871,-5.7871,-4.4498,-4.5421,-4.6824,-4.8262,-4.9486,-5.0443,-5.0803,-5.0873,-5.0873,-5.0873,-5.0873,-5.1119,-5.1864,-5.2208,-5.2752,-5.3906,-5.4371,-5.472,-5.5129,-5.5259,-5.5383,-5.5478,-5.5507,-5.5788,-5.6526,-5.6429,-5.6511,-5.6952,-5.6865,-5.6616,-5.6308,-5.6391,-5.6383,-5.6383,-5.6383,-5.6355,-5.6308,-5.6134,-5.5936,-5.5706,-5.5383,-5.5022,-5.4652,-5.5636,-5.5983,-5.5726,-5.5285,-5.4874,-5.4494,-5.4494,-5.4494,-5.4494,-5.4494,-5.4431,-5.4335,-5.4078,-5.4153,-5.4429,-5.4974,-5.5615,-5.6359,-5.7103,-5.7577,-5.7881,-5.7881,-5.7772,-5.7551,-5.7364,-5.7176,-5.6949,-5.6757,-5.668,-5.7044,-5.8535,-5.8899,-5.9297,-6.0788,-6.0821,-6.0523,-6.0523,-6.0225,-5.9936,-5.9966,-5.9693,-5.948,-5.952,-5.9286,-5.9062,-5.8837,-5.861,-5.8413,-5.8321,-5.7958,-5.7737,-5.7737,-5.7737,-5.7737,-5.7737,-5.8053,-5.8321,-5.8321,-5.7927,-5.7737,-5.7737,-5.8085,-5.8321,-5.8321,-5.8321,-5.8228,-5.8089,-5.8089,-5.8089,-4.461,-4.5564,-4.7054,-4.823,-4.9223,-5.0092,-5.0733,-5.0873,-5.0873,-5.0873,-5.0873,-5.1084,-5.1716,-5.1815,-5.2228,-5.3428,-5.3654,-5.3938,-5.465,-5.4815,-5.4874,-5.5092,-5.5227,-5.5543,-5.6139,-5.5871,-5.5959,-5.6623,-5.6354,-5.6205,-5.6375,-5.6514,-5.6668,-5.6775,-5.6641,-5.6486,-5.6347,-5.5978,-5.5648,-5.5359,-5.51,-5.4799,-5.4485,-5.4453,-5.4789,-5.5324,-5.4512,-5.4303,-5.4494,-5.4494,-5.4494,-5.4494,-5.4494,-5.4367,-5.4207,-5.4045,-5.436,-5.4873,-5.5481,-5.619,-5.6934,-5.7645,-5.7881,-5.7881,-5.7881,-5.7735,-5.7514,-5.7364,-5.7139,-5.6911,-5.6719,-5.668,-5.7044,-5.8535,-5.8899,-5.9297,-6.0788,-6.1119,-6.1086,-6.0953,-6.0837,-6.0637,-6.0256,-5.9881,-5.9584,-5.9331,-5.9107,-5.8837,-5.8655,-5.8427,-5.8321,-5.8321,-5.8321,-5.8321,-5.8321,-5.8321,-5.8321,-5.8321,-5.8321,-5.8321,-5.8321,-5.8321,-5.8321,-5.8321,-5.8321,-5.8321,-5.8321,-5.8321,-5.8321,-5.8321,-5.8321,-5.8274,-4.5094,-4.6678,-4.8275,-4.8521,-4.9679,-5.0768,-5.0873,-5.0873,-5.0873,-5.0873,-5.0873,-5.0908,-5.1013,-5.1437,-5.1822,-5.1853,-5.2416,-5.2903,-5.3008,-5.3154,-5.3299,-5.3471,-5.4068,-5.4524,-5.4595,-5.5156,-5.5631,-5.5818,-5.5886,-5.6305,-5.7121,-5.7334,-5.7739,-5.8353,-5.7598,-5.7128,-5.6956,-5.5877,-5.5139,-5.4803,-5.4825,-5.5144,-5.5758,-5.5586,-5.5077,-5.4377,-5.4242,-5.4303,-5.4494,-5.4494,-5.4494,-5.4494,-5.4494,-5.4367,-5.4207,-5.4045,-5.436,-5.4873,-5.5481,-5.619,-5.6934,-5.7645,-5.7881,-5.7881,-5.7881,-5.7625,-5.7327,-5.7327,-5.7025,-5.6719,-5.6719,-5.668,-5.7044,-5.8535,-5.8899,-5.9297,-6.0788,-6.1119,-6.092,-6.0258,-5.9837,-5.946,-5.9249,-5.9263,-5.9331,-5.9331,-5.8927,-5.8655,-5.861,-5.8427,-5.8321,-5.8321,-5.8321,-5.8321,-5.8321,-5.8321,-5.8321,-5.8321,-5.8321,-5.8321,-5.8321,-5.8321,-5.8321,-5.8321,-5.8321,-5.8321,-5.8321,-5.8321,-5.8321,-5.8321,-5.8321,-5.8182,-4.5516,-4.6675,-4.7761,-4.7718,-4.8872,-5.0025,-5.0099,-5.0449,-5.0757,-5.0873,-5.0873,-5.0873,-5.0873,-5.1045,-5.1256,-5.1625,-5.1853,-5.2207,-5.2741,-5.2869,-5.2984,-5.319,-5.3471,-5.3682,-5.3682,-5.4384,-5.4869,-5.4928,-5.5883,-5.6657,-5.7156,-5.779,-5.8296,-5.8674,-5.821,-5.7646,-5.6988,-5.6514,-5.6024,-5.5411,-5.5451,-5.5586,-5.5821,-5.5751,-5.528,-5.4562,-5.4661,-5.4552,-5.4335,-5.4431,-5.4494,-5.4494,-5.4494,-5.4335,-5.4112,-5.4492,-5.4907,-5.5415,-5.6055,-5.6799,-5.7476,-5.778,-5.7881,-5.7881,-5.7881,-5.7625,-5.7289,-5.7289,-5.7025,-5.668,-5.668,-5.7011,-5.7574,-5.8634,-5.9231,-5.9827,-6.0887,-6.1119,-6.0846,-5.9994,-5.921,-5.868,-5.8765,-5.8744,-5.8791,-5.8908,-5.8746,-5.8564,-5.8427,-5.8367,-5.8321,-5.8321,-5.8321,-5.8321,-5.8321,-5.8321,-5.8321,-5.8321,-5.8321,-5.8321,-5.8321,-5.8321,-5.8321,-5.8321,-5.8321,-5.8321,-5.8321,-5.8321,-5.8321,-5.8321,-5.8321,-5.8182,-4.5761,-4.6446,-4.7142,-4.7039,-4.7996,-4.9067,-4.9377,-4.992,-5.043,-5.0749,-5.0846,-5.0873,-5.0873,-5.0792,-5.0885,-5.1424,-5.1381,-5.1527,-5.2199,-5.2333,-5.2389,-5.2593,-5.2769,-5.2874,-5.2874,-5.3576,-5.4103,-5.4279,-5.5607,-5.667,-5.7352,-5.813,-5.8772,-5.9222,-5.8869,-5.8213,-5.7289,-5.7013,-5.6674,-5.6197,-5.6197,-5.6229,-5.6258,-5.6258,-5.5922,-5.5315,-5.5315,-5.5107,-5.4789,-5.4746,-5.4741,-5.477,-5.4563,-5.4409,-5.4356,-5.4903,-5.5485,-5.6089,-5.663,-5.7273,-5.7881,-5.7881,-5.7881,-5.7881,-5.7881,-5.7625,-5.7289,-5.7289,-5.7025,-5.668,-5.668,-5.7243,-5.7972,-5.8734,-5.9463,-6.0191,-6.0953,-6.0821,-6.0308,-5.9531,-5.8733,-5.8213,-5.8227,-5.8344,-5.853,-5.856,-5.8564,-5.8473,-5.8321,-5.8321,-5.8321,-5.8321,-5.8321,-5.8321,-5.8321,-5.8321,-5.8321,-5.8321,-5.8321,-5.8321,-5.8321,-5.8321,-5.8321,-5.8321,-5.8321,-5.8321,-5.8321,-5.8228,-5.8228,-5.8228,-5.8136,-5.7965,-4.5658,-4.6291,-4.7013,-4.7013,-4.7578,-4.8344,-4.9137,-4.942,-4.9773,-5.0472,-5.0792,-5.0873,-5.0873,-5.0873,-5.0819,-5.0682,-5.0655,-5.0655,-5.069,-5.0724,-5.078,-5.1013,-5.1645,-5.2039,-5.2039,-5.2769,-5.3541,-5.4244,-5.467,-5.5894,-5.8125,-5.853,-5.9293,-6.067,-5.9729,-5.8905,-5.8328,-5.6815,-5.63,-5.6731,-5.6731,-5.7103,-5.778,-5.778,-5.7374,-5.6699,-5.6163,-5.6133,-5.6333,-5.5647,-5.5436,-5.5495,-5.477,-5.4718,-5.504,-5.5074,-5.5825,-5.6765,-5.6799,-5.7273,-5.7881,-5.7881,-5.7881,-5.7881,-5.7881,-5.7625,-5.7289,-5.7289,-5.7025,-5.668,-5.668,-5.7243,-5.7972,-5.8734,-5.9463,-6.0191,-6.0953,-5.9993,-5.8878,-5.847,-5.8281,-5.7999,-5.7356,-5.8221,-5.8895,-5.8655,-5.8427,-5.8321,-5.8321,-5.8321,-5.8321,-5.8321,-5.8321,-5.8321,-5.8321,-5.8321,-5.8321,-5.8321,-5.8321,-5.8321,-5.8321,-5.8321,-5.8321,-5.8321,-5.8321,-5.8321,-5.8321,-5.8011,-5.7918,-5.7918,-5.7684,-5.7401,-4.5502,-4.5788,-4.6074,-4.5882,-4.6382,-4.7064,-4.7484,-4.8452,-4.9381,-4.9788,-5.0441,-5.0873,-5.0873,-5.0873,-5.0873,-5.0819,-5.0819,-5.0819,-5.0819,-5.0819,-5.0819,-5.0873,-5.1119,-5.1294,-5.1294,-5.1878,-5.2649,-5.3541,-5.4553,-5.6036,-5.8196,-5.8763,-5.9542,-6.0666,-5.9949,-5.9232,-5.8462,-5.7328,-5.6977,-5.7509,-5.7509,-5.7645,-5.7881,-5.7881,-5.7746,-5.7476,-5.7311,-5.681,-5.6167,-5.5996,-5.5926,-5.5959,-5.5685,-5.5654,-5.5724,-5.6235,-5.6571,-5.6867,-5.734,-5.7679,-5.7881,-5.7881,-5.7881,-5.7881,-5.7881,-5.7625,-5.7289,-5.7289,-5.7025,-5.668,-5.668,-5.7574,-5.88,-6.0026,-6.0523,-6.0788,-6.1053,-6.0324,-5.9473,-5.9019,-5.8543,-5.8055,-5.7687,-5.8025,-5.8326,-5.8409,-5.8367,-5.8321,-5.8321,-5.8321,-5.8321,-5.8321,-5.8321,-5.8321,-5.8321,-5.8321,-5.8321,-5.8321,-5.8321,-5.8321,-5.8321,-5.8136,-5.8136,-5.8321,-5.8136,-5.8136,-5.8321,-5.8011,-5.7871,-5.7871,-5.7637,-5.7353,-4.5423,-4.5476,-4.5476,-4.5257,-4.5581,-4.6055,-4.6411,-4.7437,-4.8466,-4.9253,-4.994,-5.0503,-5.0838,-5.0873,-5.0873,-5.0873,-5.0873,-5.0873,-5.0873,-5.0873,-5.0873,-5.0873,-5.0873,-5.0873,-5.0819,-5.1164,-5.1836,-5.2943,-5.3993,-5.5613,-5.8018,-5.8618,-5.9298,-6.0195,-5.9714,-5.908,-5.8419,-5.7695,-5.7552,-5.7881,-5.7881,-5.7881,-5.7881,-5.7881,-5.7881,-5.7881,-5.7881,-5.7448,-5.6709,-5.6576,-5.6542,-5.6543,-5.6269,-5.6269,-5.6437,-5.6913,-5.7147,-5.7239,-5.7712,-5.7881,-5.7881,-5.7881,-5.7881,-5.7881,-5.7881,-5.7625,-5.7289,-5.7289,-5.7025,-5.668,-5.668,-5.7773,-5.9264,-6.0755,-6.1002,-6.0961,-6.0961,-6.0399,-5.9754,-5.938,-5.8778,-5.8235,-5.7941,-5.802,-5.8159,-5.8303,-5.8321,-5.8321,-5.8321,-5.8321,-5.8321,-5.8321,-5.8321,-5.8321,-5.8321,-5.8321,-5.8321,-5.8321,-5.8321,-5.8274,-5.8182,-5.7965,-5.7918,-5.8011,-5.7918,-5.7965,-5.8182,-5.7871,-5.7778,-5.7778,-5.7401,-5.7163,0.0,0.0,0.0,-4.523,-4.5203,-4.5409,-4.6096,-4.6446,-4.7084,-4.8846,-4.935,-4.9757,-5.0635,-5.0838,-5.0838,-5.0838,-5.0873,-5.0873,-5.0873,-5.0873,-5.0873,-5.0873,-5.0873,-5.0819,-5.0612,-5.062,-5.12,-5.259,-5.3026,-5.4559,-5.7645,-5.8099,-5.8682,-5.9447,-5.8978,-5.8526,-5.8171,-5.7991,-5.7881,-5.7881,-5.7881,-5.7881,-5.7881,-5.7881,-5.7881,-5.7881,-5.7881,-5.7991,-5.8137,-5.7423,-5.7222,-5.726,-5.6543,-5.661,-5.7117,-5.7117,-5.7452,-5.7881,-5.7881,-5.7881,-5.7881,-5.7881,-5.7881,-5.7881,-5.7881,-5.7625,-5.7327,-5.7289,-5.7025,-5.6719,-5.6746,-5.7806,-5.9264,-6.0755,-6.0919,-6.0717,-6.0717,-6.0116,-5.958,-5.9371,-5.8948,-5.8475,-5.7993,-5.83,-5.8518,-5.8321,-5.8321,-5.8321,-5.8321,-5.8321,-5.8321,-5.8321,-5.8321,-5.8321,-5.8321,-5.8321,-5.8321,-5.8321,-5.8321,-5.8182,-5.7918,-5.7871,-5.7778,-5.7543,-5.7731,-5.7871,-5.7871,-5.7637,-5.7495,-5.7495,-5.705,-5.681,-4.5402,0.0,0.0,0.0,0.0,0.0,-4.5478,-4.6067,-4.6807,-4.749,-4.8163,-4.875,-4.9162,-4.9188,-4.9363,-4.9925,-5.0522,-5.0873,-5.0873,-5.0873,-5.0873,-5.0873,-5.0873,-5.0819,-5.0612,-5.0913,-5.1506,0.0,-5.3493,-5.5108,-5.7308,-5.8462,-5.8967,-5.8909,-5.8562,-5.8207,-5.7991,-5.7918,-5.7881,-5.7881,-5.7881,-5.7881,-5.7881,-5.7881,-5.7881,-5.7881,-5.7881,-5.7918,-5.7991,-5.7751,-5.7686,-5.7688,-5.7484,-5.7552,-5.7649,-5.7649,-5.7785,-5.7881,-5.7881,-5.7881,-5.7881,-5.7881,-5.7881,-5.7881,-5.7881,-5.7735,-5.7476,-5.7327,-5.7101,-5.7138,-5.8045,-5.8601,-5.9223,-6.0514,-6.076,-6.0675,-6.0506,-6.0204,-5.9945,-5.9902,-5.9643,-5.925,-5.8806,-5.8664,-5.8518,-5.8321,-5.8321,-5.8321,-5.8321,-5.8321,-5.8321,-5.8321,-5.8321,-5.8321,-5.8321,-5.8321,-5.8321,-5.8321,-5.8321,-5.8274,-5.8182,-5.7825,-5.7684,-5.7778,-5.7495,-5.7448,-5.7637,-5.7543,-5.7495,-5.7495,-5.705,-5.681,-4.5686,-4.5451,-4.5291,-4.515,0.0,0.0,-4.5203,-4.5601,-4.6209,-4.6786,-4.7335,-4.7797,-4.8277,-4.8339,-4.8505,-4.9039,-4.953,-5.0082,-5.0803,-5.0873,-5.0873,-5.0873,-5.0873,-5.0792,-5.0564,-5.0979,-5.1538,-5.2209,-5.3632,-5.5415,-5.754,-5.8592,-5.8978,-5.8632,-5.835,-5.8099,-5.7881,-5.7577,-5.7442,-5.7442,-5.7442,-5.7442,-5.7442,-5.7746,-5.7881,-5.7881,-5.7881,-5.7881,-5.7881,-5.7881,-5.7881,-5.7881,-5.7881,-5.7881,-5.7881,-5.7881,-5.7881,-5.7881,-5.7881,-5.7881,-5.7881,-5.7881,-5.7881,-5.7881,-5.7881,-5.7772,-5.7551,-5.7364,-5.7101,-5.71,-5.8177,-5.8587,-5.9036,-6.0034,-6.036,-6.042,-6.0325,-6.0109,-5.9979,-6.0066,-5.9716,-5.9318,-5.9049,-5.8701,-5.8427,-5.8321,-5.8321,-5.8321,-5.8321,-5.8321,-5.8321,-5.8321,-5.8321,-5.8321,-5.8321,-5.8321,-5.8321,-5.8321,-5.8321,-5.8274,-5.8136,-5.7731,-5.7543,-5.759,-5.7227,-5.718,-5.7322,-5.7322,-5.7306,-5.7211,-5.6954,-5.681,-4.6073,-4.5624,-4.515,-4.5042,-4.5096,0.0,-4.5203,-4.5203,-4.549,-4.6472,-4.6664,-4.6864,-4.7587,-4.7717,-4.7805,-4.8007,-4.8068,-4.8645,-5.0417,-5.0724,-5.0795,-5.0768,-5.0865,-5.0792,-5.0453,-5.0922,-5.1514,-5.2001,-5.3711,-5.5699,-5.7903,-5.8633,-5.8806,-5.849,-5.8277,-5.8063,-5.7881,-5.7171,-5.6799,-5.6799,-5.6731,-5.6731,-5.6833,-5.7476,-5.7814,-5.7881,-5.7881,-5.7881,-5.7881,-5.7881,-5.7881,-5.7881,-5.7881,-5.7881,-5.7881,-5.7881,-5.7881,-5.7881,-5.7881,-5.7881,-5.7881,-5.7881,-5.7881,-5.7881,-5.7881,-5.7772,-5.7588,-5.7364,-5.7025,-5.6846,-5.7608,-5.8177,-5.8774,-5.9424,-5.9853,-6.0109,-6.0066,-5.9892,-5.976,-6.0022,-5.9496,-5.9049,-5.9004,-5.8642,-5.8321,-5.8321,-5.8384,-5.8401,-5.8401,-5.8401,-5.8401,-5.8401,-5.8306,-5.8321,-5.8321,-5.8321,-5.8321,-5.8321,-5.8321,-5.8182,-5.7965,-5.7684,-5.7448,-5.7132,-5.7084,-5.7067,-5.7067,-5.7084,-5.7019,-5.681,-5.681,-5.681,-4.6096,-4.5603,-4.5177,-4.515,-4.5264,0.0,-4.5371,-4.5371,-4.5458,-4.5754,-4.5814,-4.5728,-4.542,-4.5376,-4.5635,-4.639,-4.652,-4.7095,-4.8741,-4.9644,-5.0057,-4.9952,-5.0594,-5.0927,-5.0585,-5.1008,-5.1543,-5.2119,-5.4611,-5.6572,-5.7637,-5.8255,-5.849,-5.8277,-5.8063,-5.7918,-5.7881,-5.7171,-5.6799,-5.6799,-5.6224,-5.6258,-5.6799,-5.6934,-5.734,-5.7881,-5.7881,-5.7881,-5.7881,-5.7881,-5.7881,-5.7881,-5.7881,-5.7881,-5.7881,-5.7881,-5.7881,-5.7881,-5.7881,-5.7881,-5.7881,-5.7881,-5.7881,-5.7881,-5.7881,-5.7881,-5.7772,-5.7402,-5.7025,-5.6846,-5.7608,-5.8177,-5.8733,-5.9258,-5.9726,-6.0022,-5.9848,-5.976,-5.9716,-5.976,-5.9464,-5.9197,-5.9049,-5.8746,-5.8473,-5.8321,-5.8748,-5.9096,-5.9096,-5.9096,-5.9096,-5.9096,-5.859,-5.8321,-5.8321,-5.8321,-5.8321,-5.8321,-5.8321,-5.8274,-5.8228,-5.7965,-5.7684,-5.7448,-5.7019,-5.6858,-5.6858,-5.7019,-5.7019,-5.681,-5.681,-5.681,-4.6462,-4.5954,-4.5501,-4.5172,-4.5486,0.0,0.0,-4.5397,-4.5423,-4.5476,-4.5502,-4.5286,-4.4628,-4.4565,-4.464,-4.4788,-4.5211,-4.581,-4.667,-4.8221,-4.9196,-4.9118,-4.9521,-4.9855,-5.0052,-5.0537,-5.1557,-5.3307,-5.5083,-5.6503,-5.7535,-5.8185,-5.8384,-5.8063,-5.7954,-5.7881,-5.7881,-5.6799,-5.6258,-5.6258,-5.5513,-5.5547,-5.6258,-5.663,-5.7205,-5.7881,-5.7881,-5.7881,-5.7881,-5.7881,-5.7881,-5.7881,-5.7881,-5.7881,-5.7881,-5.7881,-5.7881,-5.7881,-5.7881,-5.7881,-5.7881,-5.7881,-5.7881,-5.7881,-5.7881,-5.7808,-5.7698,-5.7402,-5.7101,-5.6934,-5.7183,-5.7912,-5.8634,-5.8748,-5.9455,-6.0022,-5.976,-5.9716,-5.9716,-5.9716,-5.9584,-5.9375,-5.9094,-5.8792,-5.8518,-5.8321,-5.8875,-5.9317,-5.9317,-5.9602,-5.9665,-5.9349,-5.9001,-5.8654,-5.8352,-5.8321,-5.8321,-5.8321,-5.8321,-5.8321,-5.8321,-5.8011,-5.7731,-5.7306,-5.6971,-5.681,-5.681,-5.6875,-5.6906,-5.681,-5.681,-5.681,-4.7314,-4.6787,-4.6079,-4.5548,-4.5918,-4.6227,0.0,0.0,0.0,-4.5397,-4.5397,-4.5156,-4.4449,-4.4284,-4.4098,-4.3562,-4.4021,-4.455,0.0,-4.6484,0.0,-4.824,-4.8451,-4.8741,-4.9275,-5.0021,-5.1454,-5.3875,-5.4931,-5.5912,-5.7123,-5.7877,-5.8142,-5.7918,-5.7881,-5.7881,-5.7881,-5.6596,-5.5817,-5.5681,-5.5108,-5.5108,-5.575,-5.6461,-5.7205,-5.7881,-5.7881,-5.7881,-5.7881,-5.7881,-5.7881,-5.7881,-5.7881,-5.7881,-5.7881,-5.7881,-5.7881,-5.7881,-5.7881,-5.7881,-5.7881,-5.7881,-5.7881,-5.7881,-5.7881,-5.7772,-5.7551,-5.7364,-5.7176,-5.6982,-5.6923,-5.7747,-5.8568,-5.8453,-5.9291,-6.0022,-5.976,-5.9716,-5.9716,-5.9716,-5.9716,-5.954,-5.9094,-5.8837,-5.861,-5.8367,-5.897,-5.9507,-5.9507,-6.0076,-6.0234,-5.957,-5.938,-5.9033,-5.8384,-5.8321,-5.8321,-5.8321,-5.8321,-5.8321,-5.8321,-5.8011,-5.7684,-5.718,-5.6971,-5.6858,-5.681,-5.681,-5.681,-5.681,-5.681,-5.681,-4.9142,-4.8265,-4.7255,-4.7005,-4.6762,-4.648,-4.6268,0.0,-4.5397,-4.5397,0.0,-4.5156,-4.4449,0.0,0.0,-4.3492,-4.3138,-4.3115,-4.3933,-4.4273,-4.5185,-4.7292,-4.8262,-4.8745,-4.8731,-4.9843,-5.0928,-5.1796,-5.3667,-5.5041,-5.5545,-5.6748,-5.7597,-5.7918,-5.7881,-5.7881,-5.7881,-5.7103,-5.6359,-5.5681,-5.5649,-5.5649,-5.575,-5.6461,-5.7205,-5.7881,-5.7881,-5.7881,-5.7881,-5.7881,-5.7881,-5.7881,-5.7881,-5.7881,-5.7881,-5.7881,-5.7881,-5.7881,-5.7881,-5.7881,-5.7881,-5.7881,-5.7881,-5.7881,-5.7881,-5.7772,-5.7551,-5.7364,-5.7176,-5.7082,-5.7586,-5.8144,-5.87,-5.9076,-5.9651,-6.0022,-5.976,-5.9716,-5.9716,-5.9716,-5.9716,-5.954,-5.9094,-5.8972,-5.8824,-5.8367,-5.9349,-6.017,-6.017,-6.0803,-6.0992,-6.0265,-5.9665,-5.9033,-5.8384,-5.8321,-5.8321,-5.8321,-5.8321,-5.8321,-5.8321,-5.8011,-5.7778,-5.7448,-5.7211,-5.6971,-5.681,-5.681,-5.681,-5.681,-5.681,-5.681,-5.012,-4.9736,-4.9081,-4.8133,-4.8088,-4.79,-4.6514,-4.6076,-4.5807,-4.536,0.0,0.0,0.0,0.0,0.0,0.0,-4.315,-4.3349,0.0,0.0,-4.4273,-4.5256,0.0,0.0,-4.7151,-4.8513,-4.9686,-5.0402,-5.1958,-5.3255,-5.4187,-5.5788,-5.6883,-5.7418,-5.7751,-5.7881,-5.7881,-5.7171,-5.6664,-5.6325,-5.5919,-5.5919,-5.6359,-5.6664,-5.7205,-5.7881,-5.7881,-5.7881,-5.7881,-5.7881,-5.7881,-5.7881,-5.7881,-5.7881,-5.7881,-5.7881,-5.7881,-5.7881,-5.7881,-5.7881,-5.7881,-5.7881,-5.7881,-5.7881,-5.7881,-5.7845,-5.7698,-5.7402,-5.7252,-5.7268,-5.7686,-5.8177,-5.8733,-5.9175,-5.9683,-6.0022,-5.976,-5.9716,-5.9716,-5.9716,-5.9716,-5.9584,-5.9241,-5.9062,-5.8869,-5.8367,-5.9412,-6.0297,-6.0297,-6.1277,-6.1719,-6.0992,-6.0297,-5.9602,-5.8938,-5.8496,-5.8321,-5.8321,-5.8321,-5.8321,-5.8321,-5.8011,-5.7778,-5.7495,-5.7227,-5.7019,-5.681,-5.681,-5.681,-5.681,-5.681,-5.7025,-5.1984,-5.1813,-5.1367,-5.0005,-4.98,-4.9389,-4.7512,-4.6844,-4.6481,-4.5986,-4.5792,0.0,0.0,0.0,-4.4292,-4.3228,0.0,-4.3349,-4.2845,-4.3079,-4.343,-4.3851,-4.3886,0.0,0.0,-4.7197,-4.831,-4.9293,-5.0557,-5.1732,-5.2814,-5.4682,-5.603,-5.6743,-5.7348,-5.7751,-5.7881,-5.7374,-5.7002,-5.6799,-5.6461,-5.6494,-5.6799,-5.7002,-5.7374,-5.7881,-5.7881,-5.7881,-5.7881,-5.7881,-5.7881,-5.7881,-5.7881,-5.7881,-5.7881,-5.7881,-5.7881,-5.7881,-5.7881,-5.7881,-5.7881,-5.7881,-5.7881,-5.7881,-5.7881,-5.7881,-5.7808,-5.7402,-5.7423,-5.7682,-5.8024,-5.8474,-5.8996,-5.947,-5.9847,-6.0022,-5.976,-5.9716,-5.9716,-5.9716,-5.9716,-5.9628,-5.9375,-5.9107,-5.8869,-5.8459,-5.9459,-6.0297,-6.0297,-6.1561,-6.2161,-6.1466,-6.0739,-6.0012,-5.938,-5.8685,-5.8415,-5.8527,-5.8559,-5.8654,-5.8812,-5.8671,-5.8389,-5.8057,-5.7865,-5.7625,-5.7364,-5.7364,-5.7272,-5.7087,-5.6902,-5.7087,-5.5396,-5.4911,-5.4155,-5.3172,-5.1871,-5.0635,-4.9777,-4.8506,-4.747,-4.761,-4.7052,-4.6562,-4.6527,-4.5425,-4.4514,-4.463,-4.3498,0.0,0.0,-4.2166,-4.2236,-4.3711,-4.3886,-4.4518,0.0,-4.6249,-4.6916,-4.8425,-4.9835,-5.0837,-5.1251,-5.3287,-5.4895,-5.5927,-5.6709,-5.735,-5.7881,-5.7881,-5.7509,-5.6799,-5.7476,-5.7476,-5.6833,-5.7543,-5.7881,-5.7881,-5.7881,-5.7881,-5.7881,-5.7881,-5.7881,-5.7881,-5.7881,-5.7881,-5.7881,-5.7881,-5.7881,-5.7881,-5.7881,-5.7881,-5.7881,-5.7881,-5.7881,-5.7881,-5.7881,-5.7881,-5.7808,-5.7402,-5.7792,-5.8413,-5.8787,-5.9201,-5.9679,-6.0224,-6.0206,-6.0022,-5.976,-5.9716,-5.9716,-5.9716,-5.9716,-5.9628,-5.9375,-5.9107,-5.8914,-5.8655,-5.9553,-6.0297,-6.0297,-6.1561,-6.2161,-6.1466,-6.0739,-6.0012,-5.938,-5.8685,-5.8559,-5.9222,-5.9286,-5.957,-6.0202,-6.0234,-6.0026,-5.9523,-5.9523,-5.9278,-5.8731,-5.8731,-5.8362,-5.7765,-5.7118,-5.681,-5.6359,-5.6219,-5.5807,-5.4853,-5.3894,-5.2798,-5.1371,-5.0403,-4.9664,-4.9292,-4.8715,-4.8273,-4.8382,-4.7151,-4.5996,0.0,0.0,0.0,0.0,-4.2063,-4.178,-4.2306,-4.2868,-4.357,-4.4589,-4.5185,-4.5863,-4.6881,-4.784,-4.8827,-5.0035,-5.1919,-5.3754,-5.5449,-5.6541,-5.7386,-5.7881,-5.7881,-5.7746,-5.7509,-5.778,-5.7746,-5.7543,-5.778,-5.7881,-5.7881,-5.7881,-5.7881,-5.7881,-5.7881,-5.7881,-5.7881,-5.7881,-5.7881,-5.7881,-5.7881,-5.7881,-5.7881,-5.7881,-5.7881,-5.7881,-5.7881,-5.7881,-5.7881,-5.7881,-5.7881,-5.791,-5.8006,-5.8227,-5.858,-5.9418,-5.963,-5.9712,-6.0256,-6.0239,-6.0022,-5.976,-5.9716,-5.9716,-5.9716,-5.9716,-5.9673,-5.9584,-5.9274,-5.8882,-5.8655,-5.9173,-5.9791,-6.0234,-6.115,-6.1845,-6.2067,-6.1435,-6.0929,-6.0708,-6.0012,-5.9696,-5.9949,-5.9949,-6.0044,-6.0297,-6.0297,-6.0089,-5.9586,-5.9586,-5.934,-5.8793,-5.8793,-5.867,-5.8423,-5.8258,-5.7919,-5.8081,-5.8012,-5.7703,-5.657,-5.5678,-5.4752,-5.3452,-5.2626,-5.2031,-5.176,-5.0945,-5.0332,-5.0467,-4.9005,0.0,0.0,0.0,0.0,0.0,-4.2309,-4.192,-4.1639,-4.2061,-4.2786,-4.3886,-4.4401,-4.5139,-4.6182,-4.6866,-4.7805,-4.9012,-5.0973,-5.2831,-5.4512,-5.5858,-5.6951,-5.7691,-5.7654,-5.7753,-5.7991,-5.7918,-5.7881,-5.7881,-5.7881,-5.7881,-5.7881,-5.7881,-5.7881,-5.7881,-5.7881,-5.7881,-5.7881,-5.7881,-5.7881,-5.7881,-5.7881,-5.7881,-5.7881,-5.7881,-5.7881,-5.7881,-5.7881,-5.7881,-5.7949,-5.822,-5.8287,-5.8383,-5.8753,-5.9074,-5.9321,-5.993,-5.9994,-5.9957,-6.0322,-6.0195,-5.9935,-5.976,-5.9716,-5.9716,-5.9716,-5.9716,-5.9716,-5.9716,-5.9318,-5.8927,-5.8746,-5.9029,-5.9538,-6.0202,-6.0929,-6.1656,-6.2302,-6.1814,-6.1277,-6.1024,-6.0581,-6.0392,-6.0676,-6.0676,-6.0803,-6.1055,-6.1055,-6.0861,-6.0451,-6.0353,-6.0104,-5.9653,-5.9552,-5.9378,-5.9131,-5.9131,-5.8793]},{"header":{"parameterUnit":"m.s-1","parameterCategory":1,"la1":30.6,"la2":29.2853,"lo1":-89.7004,"lo2":-87.6739,"dy":0.0162,"dx":0.0183,"nx":112,"ny":82,"refTime":"2023-04-04T12:00:00:Z","depth":0,"parameterNumber":3,"parameterNumberName":"V-component_of_WINDS"},"data":[0.0,0.0,0.0,0.0,0.0,0.0,0.0,0.0,0.0,0.0,0.0,0.0,0.0,0.0,0.0,0.0,0.0,0.0,0.0,0.0,0.0,0.0,0.0,0.0,0.0,0.0,0.0,0.0,0.0,0.0,0.0,0.0,0.0,0.0,0.0,0.0,0.0,0.0,0.0,0.0,0.0,0.0,0.0,0.0,0.0,0.0,0.0,0.0,0.0,0.0,0.0,0.0,0.0,0.0,0.0,0.0,0.0,0.0,0.0,0.0,0.0,0.0,0.0,0.0,0.0,0.0,0.0,0.0,0.0,0.0,0.0,0.0,0.0,0.0,0.0,0.0,0.0,0.0,0.0,0.0,0.0,0.0,0.0,0.0,0.0,0.0,0.0,0.0,0.0,0.0,2.7138,2.8669,3.0367,3.1195,3.0719,3.0559,2.9998,2.8885,0.0,0.0,0.0,0.0,0.0,0.0,0.0,0.0,0.0,0.0,0.0,0.0,0.0,0.0,0.0,0.0,0.0,0.0,0.0,0.0,0.0,0.0,0.0,0.0,0.0,0.0,0.0,0.0,0.0,0.0,0.0,0.0,0.0,0.0,0.0,0.0,0.0,0.0,0.0,0.0,0.0,0.0,0.0,0.0,0.0,0.0,0.0,0.0,0.0,0.0,0.0,0.0,0.0,0.0,0.0,0.0,0.0,0.0,0.0,0.0,0.0,0.0,0.0,0.0,0.0,0.0,0.0,0.0,0.0,0.0,0.0,0.0,0.0,0.0,0.0,0.0,0.0,0.0,0.0,0.0,0.0,0.0,0.0,0.0,0.0,0.0,0.0,0.0,0.0,0.0,0.0,0.0,0.0,0.0,0.0,0.0,0.0,0.0,0.0,0.0,0.0,0.0,0.0,0.0,2.7407,2.9559,3.0739,3.1195,3.0719,3.0737,3.0351,2.9331,0.0,0.0,0.0,0.0,0.0,0.0,0.0,0.0,0.0,0.0,0.0,0.0,0.0,0.0,0.0,0.0,0.0,0.0,0.0,0.0,0.0,0.0,0.0,0.0,0.0,0.0,0.0,0.0,0.0,0.0,0.0,0.0,0.0,0.0,0.0,0.0,0.0,0.0,0.0,0.0,0.0,0.0,0.0,0.0,0.0,0.0,0.0,0.0,0.0,0.0,0.0,0.0,0.0,0.0,0.0,0.0,0.0,0.0,0.0,0.0,0.0,0.0,0.0,0.0,0.0,0.0,0.0,0.0,0.0,0.0,0.0,0.0,0.0,0.0,0.0,0.0,0.0,0.0,0.0,0.0,0.0,0.0,0.0,0.0,0.0,0.0,0.0,0.0,0.0,0.0,0.0,0.0,0.0,0.0,0.0,0.0,0.0,0.0,0.0,0.0,0.0,0.0,0.0,2.7922,2.9219,3.0872,3.1712,3.1919,3.1464,3.1473,3.1061,2.987,2.9147,0.0,0.0,0.0,0.0,0.0,0.0,0.0,0.0,0.0,0.0,0.0,0.0,0.0,0.0,0.0,0.0,0.0,0.0,0.0,0.0,0.0,0.0,0.0,0.0,0.0,0.0,0.0,0.0,0.0,0.0,0.0,0.0,0.0,0.0,0.0,0.0,0.0,0.0,0.0,0.0,0.0,0.0,0.0,0.0,0.0,0.0,0.0,0.0,0.0,0.0,0.0,0.0,0.0,0.0,0.0,0.0,0.0,0.0,0.0,0.0,0.0,0.0,0.0,0.0,0.0,0.0,0.0,0.0,0.0,0.0,0.0,0.0,0.0,0.0,0.0,0.0,0.0,0.0,0.0,0.0,0.0,0.0,0.0,0.0,0.0,0.0,0.0,0.0,0.0,0.0,0.0,0.0,0.0,0.0,0.0,0.0,0.0,0.0,0.0,0.0,0.0,0.0,2.9443,3.0629,3.1773,3.2401,3.254,3.2141,3.2159,3.1615,3.0261,2.975,0.0,0.0,0.0,0.0,0.0,0.0,0.0,0.0,0.0,0.0,0.0,0.0,0.0,0.0,0.0,0.0,0.0,0.0,0.0,0.0,0.0,0.0,0.0,0.0,0.0,0.0,0.0,0.0,0.0,0.0,0.0,0.0,0.0,0.0,0.0,0.0,0.0,0.0,0.0,0.0,0.0,0.0,0.0,0.0,0.0,0.0,0.0,0.0,0.0,0.0,0.0,0.0,0.0,0.0,0.0,0.0,0.0,0.0,0.0,0.0,0.0,0.0,0.0,0.0,0.0,0.0,0.0,0.0,0.0,0.0,0.0,0.0,0.0,0.0,0.0,0.0,0.0,0.0,0.0,0.0,0.0,0.0,0.0,0.0,0.0,0.0,0.0,0.0,0.0,0.0,0.0,0.0,0.0,0.0,0.0,0.0,0.0,0.0,0.0,0.0,0.0,0.0,2.9233,3.0554,3.1528,3.2267,3.2654,3.2476,3.2323,3.1721,3.0543,2.9828,0.0,0.0,0.0,0.0,0.0,0.0,0.0,0.0,0.0,0.0,0.0,0.0,0.0,0.0,0.0,0.0,0.0,0.0,0.0,0.0,0.0,0.0,0.0,0.0,0.0,0.0,0.0,0.0,0.0,0.0,0.0,0.0,0.0,0.0,0.0,0.0,0.0,0.0,0.0,0.0,0.0,0.0,0.0,0.0,0.0,0.0,0.0,0.0,0.0,0.0,0.0,0.0,0.0,0.0,0.0,0.0,0.0,0.0,0.0,0.0,0.0,0.0,0.0,0.0,0.0,0.0,0.0,0.0,0.0,0.0,0.0,0.0,0.0,0.0,0.0,0.0,0.0,0.0,0.0,0.0,0.0,0.0,0.0,0.0,0.0,0.0,0.0,0.0,0.0,0.0,0.0,0.0,0.0,0.0,0.0,0.0,0.0,0.0,0.0,0.0,0.0,0.0,2.9843,3.0837,3.1901,3.2452,3.2778,3.2952,3.2492,3.1955,3.1404,0.0,0.0,0.0,0.0,0.0,0.0,0.0,0.0,0.0,0.0,0.0,0.0,0.0,0.0,0.0,0.0,0.0,0.0,0.0,0.0,0.0,0.0,0.0,0.0,0.0,0.0,0.0,0.0,0.0,0.0,0.0,0.0,0.0,0.0,0.0,0.0,0.0,0.0,0.0,0.0,0.0,0.0,0.0,0.0,0.0,0.0,0.0,0.0,0.0,0.0,0.0,0.0,0.0,0.0,0.0,0.0,0.0,0.0,0.0,0.0,0.0,0.0,0.0,0.0,0.0,0.0,0.0,0.0,0.0,0.0,0.0,0.0,0.0,0.0,0.0,0.0,0.0,0.0,0.0,0.0,0.0,0.0,0.0,0.0,0.0,0.0,0.0,0.0,0.0,0.0,0.0,0.0,0.0,0.0,0.0,0.0,0.0,0.0,0.0,0.0,0.0,0.0,2.9379,3.0143,3.0989,3.2146,3.2555,3.2841,3.3296,3.278,3.233,3.21,0.0,0.0,0.0,0.0,0.0,0.0,0.0,0.0,0.0,0.0,0.0,0.0,0.0,0.0,0.0,0.0,0.0,0.0,0.0,0.0,0.0,0.0,0.0,0.0,0.0,0.0,0.0,0.0,0.0,0.0,0.0,0.0,0.0,0.0,0.0,0.0,0.0,0.0,0.0,0.0,0.0,0.0,0.0,0.0,0.0,0.0,0.0,0.0,0.0,0.0,0.0,0.0,0.0,0.0,0.0,0.0,0.0,0.0,0.0,0.0,0.0,0.0,0.0,0.0,0.0,0.0,0.0,0.0,0.0,0.0,0.0,0.0,0.0,0.0,0.0,0.0,0.0,0.0,0.0,0.0,0.0,0.0,0.0,0.0,0.0,0.0,0.0,0.0,0.0,0.0,0.0,0.0,0.0,0.0,0.0,0.0,0.0,0.0,0.0,0.0,0.0,0.0,2.9183,3.0033,3.0989,3.2166,3.2555,3.2976,3.3579,3.321,3.2748,0.0,0.0,0.0,0.0,0.0,0.0,0.0,0.0,0.0,0.0,0.0,0.0,0.0,0.0,0.0,0.0,0.0,0.0,0.0,0.0,0.0,0.0,0.0,0.0,0.0,0.0,0.0,0.0,0.0,0.0,0.0,0.0,0.0,0.0,0.0,0.0,0.0,0.0,0.0,0.0,0.0,0.0,0.0,0.0,0.0,0.0,0.0,0.0,0.0,0.0,0.0,0.0,0.0,0.0,0.0,0.0,0.0,0.0,0.0,0.0,0.0,0.0,0.0,0.0,0.0,0.0,0.0,0.0,0.0,0.0,0.0,0.0,0.0,0.0,0.0,0.0,0.0,0.0,0.0,0.0,0.0,0.0,0.0,0.0,0.0,0.0,0.0,0.0,0.0,0.0,0.0,0.0,0.0,0.0,0.0,0.0,0.0,0.0,0.0,0.0,0.0,0.0,0.0,2.9604,3.0978,3.2007,3.2656,3.3296,3.3789,3.4089,3.3643,3.3351,3.3153,0.0,0.0,0.0,0.0,0.0,0.0,0.0,0.0,0.0,0.0,0.0,0.0,0.0,0.0,0.0,0.0,0.0,0.0,0.0,0.0,0.0,0.0,0.0,0.0,0.0,0.0,0.0,0.0,0.0,0.0,0.0,0.0,0.0,0.0,0.0,0.0,0.0,0.0,0.0,0.0,0.0,0.0,0.0,0.0,0.0,0.0,0.0,0.0,0.0,0.0,0.0,0.0,0.0,0.0,0.0,0.0,0.0,0.0,0.0,0.0,0.0,0.0,0.0,0.0,0.0,0.0,0.0,0.0,0.0,0.0,0.0,0.0,0.0,0.0,0.0,0.0,0.0,0.0,0.0,0.0,0.0,0.0,0.0,0.0,0.0,0.0,0.0,0.0,0.0,0.0,0.0,0.0,0.0,0.0,0.0,0.0,0.0,0.0,0.0,0.0,0.0,0.0,3.0207,3.1515,3.2608,3.3282,3.3788,3.4244,3.4577,3.4131,3.3931,3.4107,0.0,0.0,0.0,0.0,0.0,0.0,0.0,0.0,0.0,0.0,0.0,0.0,0.0,0.0,0.0,0.0,0.0,0.0,0.0,0.0,0.0,0.0,0.0,0.0,0.0,0.0,0.0,0.0,0.0,0.0,0.0,0.0,0.0,0.0,0.0,0.0,0.0,0.0,0.0,0.0,0.0,0.0,0.0,0.0,0.0,0.0,0.0,0.0,0.0,0.0,0.0,0.0,0.0,0.0,0.0,0.0,0.0,0.0,0.0,0.0,0.0,0.0,0.0,0.0,0.0,0.0,0.0,0.0,0.0,0.0,0.0,0.0,0.0,0.0,0.0,0.0,0.0,0.0,0.0,0.0,0.0,0.0,0.0,0.0,0.0,0.0,0.0,0.0,0.0,0.0,0.0,0.0,0.0,0.0,0.0,0.0,0.0,0.0,0.0,0.0,0.0,0.0,3.0922,3.193,3.2871,3.4031,3.4235,3.4414,3.4943,3.4641,3.4576,3.4969,0.0,0.0,0.0,0.0,0.0,0.0,0.0,0.0,0.0,0.0,0.0,0.0,0.0,0.0,0.0,0.0,0.0,0.0,0.0,0.0,0.0,0.0,0.0,0.0,0.0,0.0,0.0,0.0,0.0,0.0,0.0,0.0,0.0,0.0,0.0,0.0,0.0,0.0,0.0,0.0,0.0,0.0,0.0,0.0,0.0,0.0,0.0,0.0,0.0,0.0,0.0,0.0,0.0,0.0,0.0,0.0,0.0,0.0,0.0,0.0,1.3477,0.0,0.0,0.0,0.0,0.0,0.0,0.0,0.0,0.0,0.0,0.0,0.0,0.0,0.0,0.0,0.0,0.0,0.0,0.0,0.0,0.0,0.0,0.0,0.0,0.0,0.0,0.0,0.0,0.0,0.0,0.0,0.0,0.0,0.0,0.0,0.0,0.0,0.0,0.0,0.0,0.0,3.1003,3.2653,3.393,3.4608,3.4921,3.5105,3.5173,3.5286,3.5263,3.4935,3.489,0.0,0.0,0.0,0.0,0.0,0.0,0.0,0.0,0.0,0.0,0.0,0.0,0.0,0.0,0.0,0.0,0.0,0.0,0.0,0.0,0.0,0.0,0.0,0.0,0.0,0.0,0.0,0.0,0.0,0.0,0.0,0.0,0.0,0.0,0.0,0.0,0.0,0.0,0.0,0.0,0.0,0.0,0.0,0.0,0.0,0.0,0.0,0.0,0.0,0.0,0.0,0.0,0.0,0.0,0.0,0.0,0.0,0.0,0.0,0.0,1.4794,0.0,0.0,0.0,0.0,0.0,0.0,0.0,0.0,0.0,0.0,0.0,0.0,0.0,0.0,0.0,0.0,0.0,0.0,0.0,0.0,0.0,0.0,0.0,0.0,0.0,0.0,0.0,0.0,0.0,0.0,0.0,0.0,0.0,0.0,0.0,0.0,0.0,0.0,0.0,0.0,3.1382,3.3018,3.432,3.5004,3.5293,3.5458,3.5514,3.5667,3.565,3.5597,3.5447,0.0,0.0,0.0,0.0,0.0,0.0,0.0,0.0,0.0,0.0,0.0,0.0,0.0,0.0,0.0,0.0,0.0,0.0,0.0,0.0,0.0,0.0,0.0,0.0,0.0,0.0,0.0,0.0,0.0,0.0,0.0,0.0,0.0,0.0,0.0,0.0,0.0,0.0,0.0,0.0,0.0,0.0,0.0,0.0,0.0,0.0,0.0,0.0,0.0,0.0,0.0,0.0,0.0,1.8117,1.8668,1.9381,1.9443,1.9443,1.9356,1.8238,1.7339,1.6681,1.671,0.0,0.0,0.0,0.0,0.0,0.0,0.0,0.0,0.0,0.0,0.0,0.0,0.0,0.0,0.0,0.0,0.0,0.0,0.0,0.0,0.0,0.0,0.0,0.0,2.5147,2.5519,2.5625,0.0,0.0,0.0,0.0,0.0,0.0,0.0,0.0,0.0,0.0,0.0,3.194,3.3261,3.4424,3.5314,3.5418,3.5479,3.5809,3.5818,3.5994,3.634,3.588,3.544,0.0,0.0,0.0,0.0,0.0,0.0,0.0,0.0,0.0,0.0,0.0,0.0,0.0,0.0,0.0,0.0,0.0,0.0,0.0,0.0,0.0,0.0,0.0,0.0,0.0,0.0,0.0,0.0,0.0,0.0,0.0,0.0,1.3157,1.3437,0.0,0.0,0.0,0.0,0.0,0.0,0.0,0.0,0.0,0.0,0.0,0.0,0.0,1.6805,1.6758,1.7652,1.8397,1.9001,1.9908,2.0624,2.124,2.1554,2.1679,2.1665,2.1458,0.0,1.8094,1.8116,0.0,0.0,0.0,0.0,0.0,0.0,0.0,0.0,0.0,0.0,0.0,0.0,0.0,0.0,0.0,0.0,0.0,0.0,0.0,0.0,0.0,0.0,2.491,2.5834,2.6731,2.7566,0.0,2.7302,2.6699,2.7376,2.7298,0.0,0.0,0.0,0.0,0.0,0.0,0.0,3.2717,3.3564,3.4424,3.5314,3.5418,3.5418,3.5479,3.5992,3.6246,3.6172,3.6449,3.6342,3.5704,3.4971,0.0,0.0,0.0,0.0,0.0,0.0,0.0,0.0,0.0,0.0,0.0,0.0,0.0,0.0,0.0,0.0,0.0,0.0,0.0,0.0,0.0,0.0,0.0,0.0,0.0,0.0,0.0,0.0,0.0,1.3733,1.4045,1.3831,1.4204,1.4751,0.0,0.0,0.0,0.0,0.0,0.0,0.0,0.0,0.0,1.7819,1.7707,1.7711,1.7788,1.8407,1.916,1.9979,2.0608,2.1366,2.2167,2.2292,2.2454,2.2687,2.2687,2.206,2.0972,2.0473,1.9986,1.9562,0.0,0.0,0.0,0.0,2.012,2.0519,2.1324,2.1868,2.2247,2.2732,0.0,0.0,0.0,0.0,0.0,0.0,0.0,0.0,0.0,0.0,2.5594,2.6452,2.7068,2.7765,2.8728,2.8581,2.8388,0.0,2.9055,2.9174,2.9384,0.0,0.0,0.0,0.0,3.2174,3.3246,3.4056,3.4693,3.5355,3.5418,3.5418,3.5418,3.5993,3.6331,3.608,3.6633,3.6742,3.6261,3.5699,3.4994,0.0,0.0,0.0,0.0,0.0,0.0,0.0,0.0,0.0,0.0,0.0,0.0,0.0,0.0,0.0,0.0,0.0,0.0,0.0,0.0,0.0,0.0,0.0,0.0,0.0,0.0,0.0,0.0,1.4404,1.4572,1.4235,1.4613,1.5099,0.0,0.0,0.0,0.0,0.0,0.0,1.7854,1.7816,1.7968,1.8423,1.8435,1.8564,1.8836,1.9277,2.0052,2.0952,2.14,2.2088,2.2976,2.2976,2.3105,2.3335,2.3335,2.3336,2.3312,2.2328,2.165,2.1161,2.1156,2.1166,2.1185,2.1525,2.1784,2.213,2.3032,2.3488,2.3788,2.4241,2.4597,2.4715,2.4428,0.0,0.0,0.0,0.0,2.5172,2.5446,2.5863,2.6313,2.6893,2.7369,2.8019,2.8994,2.9543,2.9956,0.0,3.0529,3.0701,3.081,0.0,0.0,0.0,3.214,3.2939,3.3856,3.4427,3.4921,3.5376,3.5418,3.5418,3.5418,3.5993,3.6335,3.6213,3.6741,3.705,3.6884,3.6329,3.5745,3.5198,0.0,0.0,0.0,0.0,0.0,0.0,0.0,0.0,0.0,0.0,0.0,0.0,0.0,0.0,0.0,0.0,0.0,0.0,0.0,0.0,0.0,0.0,0.0,0.0,0.0,0.0,0.0,0.0,0.0,1.474,1.4959,0.0,0.0,0.0,0.0,1.6891,1.7425,1.7866,1.8125,1.7897,1.8076,1.89,1.8977,1.9107,1.9366,2.0298,2.1225,2.1937,2.2593,2.3312,2.4027,2.4027,2.4042,2.4057,2.4057,2.4071,2.3992,2.2986,2.2419,2.2111,2.2034,2.2086,2.2185,2.2528,2.3165,2.3948,2.4066,2.4652,2.5369,2.541,2.5601,2.5816,2.5799,2.5782,0.0,0.0,2.5816,2.5833,2.585,2.6416,2.7005,2.7399,2.8215,2.9039,2.9375,3.0198,3.0953,0.0,3.1252,3.1402,3.254,0.0,3.263,3.3352,3.3513,3.3817,3.4652,3.4795,3.4921,3.5376,3.5418,3.5418,3.5418,3.5993,3.6423,3.638,3.6818,3.7244,3.7529,3.6895,3.646,3.6208,3.568,0.0,0.0,0.0,0.0,0.0,0.0,0.0,0.0,0.0,0.0,0.0,0.0,0.0,0.0,0.0,0.0,0.0,0.0,0.0,0.0,0.0,0.0,0.0,0.0,0.0,0.0,0.0,0.0,1.499,1.5335,0.0,1.6298,1.6669,1.6977,1.732,1.761,1.796,1.8418,1.8518,1.8759,1.934,1.952,1.9651,1.9747,2.0535,2.1132,2.1648,2.2569,2.3224,2.3746,2.3956,2.4203,2.4393,2.4393,2.451,2.4686,2.4086,2.3703,2.3449,2.3384,2.3429,2.3497,2.3764,2.4236,2.4798,2.5266,2.5747,2.6244,2.6483,2.6448,2.6285,2.6285,2.6131,2.5987,2.6525,2.6662,2.6842,2.7487,2.7913,2.8246,2.8796,2.8967,2.9313,3.0358,3.0629,3.1072,3.2312,3.2403,3.2499,3.3228,3.3469,3.3752,3.4264,3.4386,3.4551,3.5128,3.519,3.5252,3.5397,3.5418,3.5418,3.5418,3.5993,3.6423,3.6423,3.698,3.7398,3.7618,3.7026,3.6725,3.6782,3.6118,3.5369,0.0,0.0,0.0,0.0,0.0,0.0,0.0,0.0,0.0,0.0,0.0,0.0,0.0,0.0,0.0,0.0,0.0,0.0,0.0,0.0,0.0,0.0,0.0,0.0,0.0,1.4707,1.4929,1.5144,1.5555,1.5991,1.6425,1.6874,1.7235,1.7593,1.7938,1.8354,1.8882,1.9048,1.9358,1.9736,1.9917,2.0062,2.0146,2.0876,2.1347,2.1737,2.2804,2.3535,2.3865,2.4276,2.4525,2.4797,2.4797,2.4862,2.5105,2.4885,2.4665,2.4561,2.4257,2.4239,2.4447,2.4673,2.5042,2.5533,2.6205,2.6571,2.683,2.7012,2.6902,2.6679,2.6679,2.6593,2.661,2.7107,2.7469,2.7798,2.855,2.886,2.9172,2.9733,2.9719,2.9917,3.0973,3.1146,3.1494,3.2772,3.2974,3.3209,3.3858,3.418,3.4526,3.4921,3.4983,3.5086,3.5376,3.5418,3.5418,3.5541,3.5541,3.5603,3.5726,3.6239,3.6545,3.6545,3.7071,3.7484,3.7688,3.7099,3.6951,3.7232,3.6626,3.608,3.5615,0.0,0.0,0.0,0.0,0.0,0.0,0.0,0.0,0.0,0.0,0.0,0.0,0.0,0.0,0.0,0.0,0.0,0.0,0.0,0.0,0.0,0.0,0.0,1.456,1.461,1.4781,1.5256,1.5576,1.5825,1.5825,1.6978,1.7691,1.7691,1.8557,1.9205,1.9524,1.9548,1.9736,2.0255,2.0279,2.0468,2.0735,2.1484,2.1966,2.231,2.3475,2.417,2.4495,2.4916,2.5119,2.5119,2.5119,2.5119,2.5119,2.5119,2.5322,2.5502,2.4516,2.4571,2.5093,2.5122,2.5533,2.6205,2.6891,2.7073,2.7073,2.709,2.709,2.709,2.7107,2.7347,2.7621,2.7638,2.8161,2.8752,2.8769,2.927,2.9831,3.0204,3.0513,3.0822,3.1191,3.1761,3.2385,3.2796,3.3011,3.3518,3.4572,3.4776,3.4921,3.5355,3.5418,0.0,3.5418,3.5418,3.5541,3.587,3.5911,3.6055,3.6361,3.6728,3.6932,3.6932,3.7214,3.7555,3.7878,3.7242,3.7166,3.7793,3.719,3.6729,3.6459,0.0,0.0,0.0,0.0,0.0,0.0,0.0,0.0,0.0,0.0,0.0,0.0,0.0,0.0,0.0,0.0,0.0,0.0,0.0,0.0,0.0,1.4371,1.4282,1.4222,1.445,1.4726,1.5086,1.5627,1.6049,1.6306,1.7257,1.7931,1.7931,1.8818,1.9386,1.9524,1.9845,2.0122,2.0279,2.0551,2.081,2.1069,2.1829,2.2374,2.2722,2.3816,2.4442,2.4495,2.4916,2.5119,2.5119,2.5119,2.5119,2.5119,2.5119,2.5457,2.592,2.5421,2.5434,2.585,2.5805,2.6083,2.651,2.6952,2.7073,2.7124,2.7381,2.7467,2.7518,2.7792,2.7946,2.8146,2.8674,2.8957,2.9351,3.0401,3.0792,3.1111,3.1682,3.1646,3.1745,3.2633,3.2708,3.3001,3.4099,3.4389,3.441,3.447,3.4738,3.4902,3.5025,3.5232,0.0,3.5418,3.5603,3.5788,3.587,3.6116,3.63,3.6423,3.6728,3.6932,3.6932,3.7214,3.7555,3.7878,3.7554,3.7758,3.847,3.8115,3.7934,0.0,0.0,0.0,0.0,0.0,0.0,0.0,0.0,0.0,0.0,0.0,0.0,0.0,0.0,0.0,0.0,0.0,0.0,0.0,0.0,0.0,0.0,1.4429,1.4489,1.4482,1.4591,1.4795,1.5193,1.5699,1.6169,1.6688,1.7518,1.8144,1.8388,1.9114,1.9633,1.9796,2.011,2.0396,2.0642,2.0873,2.1207,2.1691,2.2295,2.2768,2.3133,2.402,2.4495,2.4495,2.4916,2.5119,2.5119,2.5119,2.5119,2.5119,2.5255,2.5592,0.0,0.0,0.0,0.0,0.0,2.651,2.683,2.7012,2.7176,2.733,2.7535,2.7723,2.7895,2.8117,2.8306,2.8541,2.9148,2.9515,3.0012,3.113,3.1506,3.1782,3.2485,3.253,3.2667,3.3422,3.3661,3.3935,3.4736,3.4922,0.0,3.4673,3.4859,3.5108,3.5108,3.5294,3.5418,3.5418,3.5665,3.5932,3.6116,3.6423,3.6667,3.6789,3.7032,0.0,0.0,0.0,3.7528,3.7747,3.7753,0.0,0.0,0.0,3.9147,3.9262,3.9683,0.0,0.0,3.7585,3.7453,0.0,0.0,0.0,0.0,0.0,0.0,0.0,0.0,0.0,0.0,0.0,0.0,0.0,0.0,0.0,0.0,1.466,1.5042,1.5135,1.4904,1.499,1.5508,1.5909,1.6364,1.6936,1.7647,1.8342,1.8935,1.9376,1.9736,2.0255,2.0303,0.0,0.0,0.0,2.1684,2.2379,2.2836,2.3173,2.3543,2.4224,2.4578,2.4563,2.4916,2.5119,2.5119,2.5119,2.5119,2.5119,2.5457,2.5846,2.6224,2.5903,2.6152,2.6757,2.6705,2.6915,2.7193,2.7193,0.0,0.0,2.7723,2.798,2.8271,2.8306,2.8563,2.8965,2.9334,2.9919,3.0555,3.1313,3.1717,3.2102,3.2804,3.3228,3.3544,3.3859,3.4423,3.4922,3.4922,3.4984,3.4984,3.4984,3.517,3.5356,3.5356,3.5356,3.5418,3.5418,3.5726,3.6055,3.6361,0.0,0.0,3.7374,3.7374,3.7374,3.7374,3.7374,3.7478,3.7649,3.7862,3.8217,3.8747,3.9563,4.0172,4.0477,4.1106,4.1487,4.1628,3.9905,3.9158,0.0,0.0,0.0,0.0,0.0,0.0,0.0,0.0,0.0,0.0,0.0,0.0,0.0,0.0,0.0,1.4852,1.4892,1.5035,1.5483,1.5673,1.5794,1.5909,1.6429,1.6872,1.7001,1.7916,1.8612,1.9001,1.9489,1.9941,2.0255,2.0484,2.0825,2.1207,2.1561,2.2091,2.2791,2.3509,2.3994,2.4292,0.0,0.0,2.4984,2.5052,2.5119,2.5119,2.5119,2.5119,2.5119,2.5457,2.6178,2.7001,2.6825,2.7237,2.7882,2.7548,2.7644,2.798,2.798,2.8015,2.8134,2.8443,2.8597,2.8717,2.9008,2.9145,0.0,2.9995,3.0307,3.0703,3.191,3.223,3.2485,3.3165,3.3544,3.3922,3.4235,3.461,3.4984,3.5232,3.5294,3.5294,3.5294,3.5108,3.4984,3.4984,3.5232,3.5418,3.5418,3.5932,3.6361,3.6423,3.6972,3.7314,3.7374,3.7374,3.7374,3.7374,3.7374,3.7511,3.7865,3.7903,3.8334,3.9185,3.9802,4.0245,4.0322,4.1434,4.1781,4.1383,4.1195,4.1255,0.0,0.0,0.0,0.0,0.0,0.0,0.0,0.0,0.0,0.0,0.0,1.425,1.4342,0.0,1.428,1.471,1.4961,1.5239,1.5762,1.6097,1.6299,1.6494,1.6807,1.7195,1.7723,1.843,1.9007,1.9399,1.9862,2.0195,2.046,2.08,2.1151,2.1484,2.2104,2.2768,2.3406,2.4061,2.4529,2.4781,2.4984,2.5119,2.5119,2.5119,2.5119,2.5119,2.5119,2.5119,2.5119,2.5659,2.6573,2.7769,2.7521,2.7704,2.8169,2.7963,2.8015,2.8186,2.8186,2.8323,2.8528,2.8717,2.8905,2.9076,2.9265,2.9316,2.9447,2.997,3.023,3.062,3.1653,3.2166,3.2549,3.3038,3.367,3.4173,3.436,3.4797,3.517,3.5356,3.5418,3.5418,3.5418,3.5232,3.517,3.517,3.5294,3.5418,3.5418,3.5993,3.6423,3.6423,3.7011,3.7374,3.7374,3.7374,3.7374,3.7374,3.7374,3.7555,3.7878,3.7878,3.8298,3.9049,3.9697,4.0105,4.0249,4.133,4.1799,4.1718,4.1968,4.2128,0.0,0.0,0.0,0.0,0.0,0.0,0.0,1.3954,1.4167,1.4215,1.4153,1.4147,1.4238,1.4312,1.4456,1.4801,1.5124,1.5521,1.6043,1.6234,1.6558,1.6936,1.713,1.7529,1.8378,1.8824,1.9268,1.9857,2.0086,2.034,2.0653,2.1012,2.1346,2.176,2.2496,2.3228,2.3952,2.4386,2.4721,2.5119,2.5119,2.5119,2.5119,2.5119,2.5119,2.5119,2.5119,2.5187,2.5337,2.5876,2.7,2.823,2.7932,2.8087,2.8408,2.834,2.8357,2.8408,2.8408,2.8614,2.8888,2.8888,2.9076,2.9316,2.9316,2.9316,2.9382,2.9691,3.0018,3.049,3.1184,3.1827,3.2422,3.2867,3.3733,3.4423,3.4485,3.4984,3.5418,3.5418,3.5418,3.5418,3.5418,3.5418,3.5418,3.5418,3.5418,3.5418,3.5418,3.5993,3.6423,3.6423,3.7011,3.7374,3.7374,3.7374,3.7374,3.7374,3.7374,3.7495,3.7818,3.7818,3.8036,3.8633,3.9226,3.9697,4.0048,4.0976,4.1606,4.1948,4.2287,4.2429,1.4698,1.4566,1.4345,1.3945,1.3889,1.3841,0.0,1.3813,1.3899,1.4158,1.3986,1.3961,1.4705,1.436,1.4508,1.5873,1.566,1.5584,1.6366,1.6234,1.6299,1.6936,1.7518,1.7969,1.8033,1.8711,1.9338,1.9845,1.9917,2.0146,2.0641,2.1012,2.1346,2.176,2.249,2.3243,2.3952,2.4331,2.4738,2.5119,2.5119,2.5119,2.5119,2.5119,2.5119,2.5119,2.5119,2.5457,2.6011,2.6078,2.7,2.8329,2.8213,2.8641,2.9145,2.8837,2.8922,2.9179,2.9179,2.9213,2.9248,2.9248,2.9282,2.9316,2.9316,2.9316,2.9382,2.9691,2.9822,3.0083,3.112,3.1699,3.2192,3.3102,3.3859,3.4485,3.4797,3.5108,3.5418,3.5418,3.5418,3.5418,3.5418,3.5418,3.5418,3.5418,3.5418,3.5418,3.5418,3.5993,3.6423,3.6423,3.7011,3.7374,3.7374,3.7374,3.7374,3.7374,3.7374,3.7435,3.7435,3.7435,3.7637,3.7998,3.8276,3.8775,3.9426,4.0339,4.0976,4.1344,4.2142,4.2631,1.4596,1.4423,1.422,1.4103,1.3959,1.3868,1.4007,1.404,1.4062,1.4169,1.4083,1.4222,1.503,1.4834,1.4914,1.61,1.5742,1.5521,1.6108,1.6104,1.6234,1.6936,1.7582,1.8098,1.8302,1.9102,1.9639,1.9869,2.0171,2.0573,2.1,2.1358,2.1691,2.2104,2.2996,2.3679,2.4034,2.4578,2.4916,2.5119,2.5119,2.5119,2.5119,2.5119,2.5119,2.5119,2.5119,2.5457,2.6145,2.6331,2.72,2.8329,2.8527,2.8856,2.9299,2.9145,2.9179,2.9316,2.9316,2.9316,2.9316,2.9316,2.9316,2.9316,2.9316,2.9316,2.9316,2.9495,2.9822,3.023,3.0685,3.1525,3.2339,3.2975,3.3796,3.4485,3.4859,3.517,3.5418,3.5418,3.5418,3.5418,3.5418,3.5418,3.5418,3.5418,3.5418,3.5418,3.5418,3.5993,3.6545,3.695,3.7253,3.7374,3.7374,3.7374,3.7374,3.7374,3.7374,3.7374,3.7374,3.7374,3.7435,3.7637,3.7938,3.8298,3.8798,3.9521,4.0223,4.0918,4.1663,4.2231,1.4714,1.4531,1.4326,1.4306,1.4108,1.3942,1.4137,1.4191,1.4191,1.4191,1.4191,1.4429,1.5177,1.5074,1.5228,1.6187,1.5763,1.5521,1.6043,1.5974,1.6169,1.6936,1.7518,1.8045,1.8571,1.9238,1.9724,1.9881,2.0243,2.0715,2.1207,2.1553,2.1966,2.231,2.327,2.3884,2.4034,2.4645,2.4984,2.5119,2.5119,2.5119,2.5119,2.5119,2.5119,2.5119,2.5119,2.5457,2.613,2.6532,2.7334,2.8329,2.8675,2.8988,2.9316,2.9316,2.9316,2.9316,2.9316,2.9316,2.9316,2.9316,2.9316,2.9316,2.9316,2.9316,2.9316,2.9316,2.9774,3.0296,3.049,3.1396,3.2422,3.3038,3.3796,3.4548,3.4922,3.5232,3.5418,3.5418,3.5418,3.5418,3.5418,3.5418,3.5418,3.5418,3.5418,3.5418,3.5418,3.5993,3.6667,3.7314,3.7374,3.7374,3.7374,3.7374,3.7374,3.7374,3.7374,3.7374,3.7374,3.7374,3.7374,3.7374,3.7637,3.7938,3.838,3.9012,3.9697,4.0571,4.1263,4.1891,1.5226,1.5054,1.4847,1.4654,1.4367,1.4206,1.4191,1.4191,1.4191,1.4191,1.4191,1.4375,1.49,1.4964,1.5232,1.6211,1.5782,1.5584,1.6366,1.5919,1.5854,1.6872,1.7271,1.7798,1.8507,1.8904,1.9314,1.9845,1.9905,2.0337,2.1183,2.1553,2.1966,2.231,2.3065,2.3611,2.4034,2.436,2.4713,2.5119,2.5119,2.5119,2.5119,2.5119,2.5119,2.5119,2.5119,2.5457,2.613,2.6532,2.7334,2.8329,2.8675,2.8988,2.9316,2.9316,2.9316,2.9316,2.9316,2.9316,2.9316,2.9316,2.9316,2.9316,2.9316,2.9316,2.9316,2.9316,2.9561,3.0018,3.0685,3.1377,3.2256,3.3544,3.411,3.461,3.5232,3.5418,3.5418,3.5418,3.5418,3.5418,3.5418,3.5418,3.5418,3.5418,3.5418,3.5418,3.5418,3.5993,3.6667,3.7314,3.7374,3.7374,3.7374,3.7374,3.7374,3.7374,3.7374,3.7374,3.7374,3.7374,3.7374,3.7374,3.7435,3.7758,3.838,3.9012,3.9579,4.0223,4.1148,4.1777,1.4589,1.4531,1.4556,1.4207,1.419,1.4201,1.418,1.4191,1.4191,1.4191,1.4353,1.4635,1.5153,1.5389,1.5692,1.6335,1.6165,1.6045,1.6222,1.64,1.6688,1.7271,1.7863,1.8442,1.8892,1.9333,1.9688,1.9869,2.041,2.1021,2.1553,2.2173,2.2654,2.2996,2.3747,2.4156,2.4292,2.4713,2.4984,2.5119,2.5119,2.5119,2.5119,2.5119,2.5119,2.5119,2.5119,2.5457,2.6145,2.68,2.7533,2.8329,2.8922,2.9185,2.9316,2.9316,2.9316,2.9316,2.9316,2.9316,2.9316,2.9316,2.9316,2.9316,2.9316,2.9316,2.9382,2.9561,2.9887,3.0361,3.1055,3.1699,3.253,3.3607,3.4173,3.461,3.5232,3.5418,3.5418,3.5418,3.5418,3.5418,3.5418,3.5418,3.5418,3.5418,3.5418,3.5541,3.5993,3.6239,3.6667,3.7314,3.7374,3.7374,3.7374,3.7374,3.7374,3.7374,3.7374,3.7374,3.7374,3.7374,3.7374,3.7374,3.7374,3.7758,3.838,3.8775,3.9403,4.0223,4.1,4.1516,1.4002,1.4124,1.4283,1.3846,1.4004,1.4191,1.4191,1.4245,1.4353,1.4353,1.4665,1.5075,1.5518,1.5777,1.6091,1.6623,1.654,1.6512,1.6614,1.6915,1.7335,1.7863,1.8314,1.8799,1.9205,1.9615,1.9948,2.0081,2.0687,2.1383,2.2173,2.2654,2.3133,2.3611,2.4156,2.4495,2.4495,2.4916,2.5119,2.5119,2.5119,2.5119,2.5119,2.5119,2.5119,2.5119,2.5255,2.5592,2.6145,2.7,2.7733,2.8395,2.9053,2.9316,2.9316,2.9316,2.9316,2.9316,2.9316,2.9316,2.9316,2.9316,2.9316,2.9316,2.9316,2.9316,2.9382,2.9691,3.0148,3.075,3.1377,3.2083,3.2804,3.367,3.4047,3.436,3.4922,3.5108,3.5232,3.5232,3.5294,3.5418,3.5418,3.5418,3.5418,3.5418,3.5418,3.5665,3.63,3.6423,3.6667,3.7314,3.7374,3.7374,3.7374,3.7374,3.7374,3.7374,3.7374,3.7374,3.7374,3.7374,3.7374,3.7374,3.7495,3.7938,3.8537,3.893,3.9579,4.0421,4.0942,4.1344,1.3567,1.3731,1.3999,1.3561,1.3825,1.418,1.418,1.4439,1.4654,1.4654,1.5137,1.5618,1.5885,1.6101,1.6428,1.6906,1.6908,1.7061,1.7548,1.7554,1.7787,1.8507,1.8635,1.887,1.9434,1.979,2.0093,2.0426,2.0742,2.148,2.2846,2.2928,2.327,2.4034,2.436,2.4495,2.4495,2.4916,2.5119,2.5119,2.5119,2.5119,2.5119,2.5119,2.5119,2.5119,2.5457,2.5794,2.6213,2.7251,2.7915,2.8395,2.9053,2.9316,2.9316,2.9316,2.9316,2.9316,2.9316,2.9316,2.9316,2.9316,2.9316,2.9316,2.9316,2.9316,2.9382,2.9757,3.0343,3.1073,3.1763,3.2403,3.3038,3.3733,3.3922,3.3985,3.436,3.4673,3.4922,3.4922,3.517,3.5418,3.5418,3.5418,3.5418,3.5418,3.5418,3.5665,3.63,3.6423,3.6667,3.7314,3.7374,3.7374,3.7374,3.7374,3.7374,3.7374,3.7374,3.7374,3.7374,3.7374,3.7374,3.7374,3.7758,3.8238,3.8812,3.9462,4.013,4.0735,4.1057,4.1344,1.2686,1.284,1.3039,1.2939,1.3246,1.3699,1.4186,1.4585,1.503,1.5458,1.5992,1.6418,1.6471,1.7085,1.7378,1.6779,1.7327,1.7746,1.7444,1.7909,1.8378,1.8571,1.8828,1.9116,1.9446,1.9976,2.0488,2.1104,2.1641,2.2232,2.2859,2.3679,2.4156,2.436,2.4781,2.4916,2.4916,2.5052,2.5119,2.5119,2.5119,2.5119,2.5119,2.5119,2.5119,2.5119,2.5457,2.5794,2.6213,2.7251,2.7915,2.8395,2.9053,2.9316,2.9316,2.9316,2.9316,2.9316,2.9316,2.9316,2.9316,2.9316,2.9316,2.9316,2.9316,2.9316,2.9447,3.0035,3.0555,3.1138,3.2019,3.2613,3.3038,3.3733,3.3922,3.3985,3.436,3.4673,3.4922,3.4922,3.517,3.5418,3.5418,3.5418,3.5418,3.5418,3.5418,3.5665,3.63,3.6423,3.6667,3.7314,3.7374,3.7374,3.7374,3.7374,3.7374,3.7374,3.7374,3.7374,3.7374,3.7374,3.7374,3.7374,3.7758,3.8238,3.8812,3.9462,4.013,4.0735,4.1057,4.123,1.2076,1.2335,1.2654,1.2554,1.2986,1.357,1.4038,1.4555,1.5205,1.5955,1.6807,1.7422,1.745,1.8158,1.8395,1.7353,1.7988,1.8398,1.7796,1.8368,1.8828,1.8828,1.902,1.9294,1.9866,2.0182,2.0843,2.1982,2.2219,2.2654,2.3338,2.3952,2.4428,2.4781,2.4984,2.5119,2.5119,2.5119,2.5119,2.5119,2.5119,2.5119,2.5119,2.5119,2.5119,2.5119,2.5607,2.5944,2.6197,2.7451,2.813,2.8395,2.9053,2.9316,2.9316,2.9316,2.9316,2.9316,2.9316,2.9316,2.9316,2.9316,2.9316,2.9316,2.9316,2.9364,2.9626,3.023,3.0879,3.1506,3.223,3.274,3.3228,3.3607,3.367,3.3733,3.3922,3.436,3.4797,3.5046,3.5294,3.5418,3.5418,3.5418,3.5418,3.5418,3.5418,3.5665,3.63,3.6423,3.6667,3.7314,3.7374,3.7374,3.7374,3.7374,3.7374,3.7374,3.7374,3.7374,3.7374,3.7374,3.7435,3.7637,3.7938,3.8477,3.9226,3.9755,4.0305,4.0908,4.1115,4.1172,1.1736,1.2063,1.2513,1.2374,1.285,1.3478,1.3846,1.4519,1.5326,1.6304,1.7538,1.8454,1.8627,1.9288,1.9442,1.8298,1.8771,1.9021,1.8472,1.8773,1.91,1.9072,1.9136,1.9459,2.0236,2.0418,2.1111,2.2697,2.2532,2.2887,2.402,2.4102,2.4442,2.5052,2.5119,2.5119,2.5119,2.5119,2.5119,2.5119,2.5119,2.5119,2.5119,2.5119,2.5119,2.5119,2.5809,2.6078,2.6213,2.7666,2.8329,2.8395,2.9053,2.9316,2.9316,2.9316,2.9316,2.9316,2.9316,2.9316,2.9316,2.9316,2.9316,2.9316,2.9316,2.9561,2.9887,3.0361,3.1184,3.2001,3.2358,3.2912,3.3418,3.3418,3.3418,3.3418,3.3481,3.3985,3.4673,3.5294,3.5418,3.5418,3.5418,3.5418,3.5418,3.5418,3.5418,3.5603,3.6239,3.6361,3.6667,3.7314,3.7374,3.7374,3.7374,3.7374,3.7374,3.7374,3.7374,3.7374,3.7374,3.7374,3.7577,3.7878,3.8261,3.8834,3.9814,4.0048,4.0513,4.1172,4.1172,4.1172,1.159,1.1707,1.1884,1.2286,1.26,1.3018,1.3729,1.4681,1.5872,1.7367,1.8404,1.9182,1.9716,2.0157,2.0059,1.8851,1.9194,1.9408,1.8741,1.8914,1.9071,1.9112,1.9328,1.9643,2.0042,2.059,2.1345,2.2378,2.2701,2.3349,2.4345,2.4713,2.4984,2.5119,2.5119,2.5119,2.5119,2.5119,2.5119,2.5119,2.5119,2.5119,2.5119,2.5119,2.5119,2.5119,2.5809,0.0,2.6213,2.7666,2.8329,2.8395,2.9053,2.9316,2.9316,2.9316,2.9316,2.9316,2.9316,2.9316,2.9316,2.9316,2.9316,2.9316,2.9316,2.9561,2.9952,3.062,3.1313,3.2001,3.2657,3.3102,3.3418,3.3418,3.3418,3.3481,3.3733,3.436,3.4922,3.5294,3.5418,3.5418,3.5418,3.5418,3.5418,3.5418,3.5418,3.5541,3.5932,3.6239,3.6667,3.7314,3.7374,3.7374,3.7374,3.7374,3.7374,3.7374,3.7374,3.7374,3.7374,3.7374,3.7577,3.7878,3.8261,3.8834,3.9814,4.0048,4.0513,4.1172,4.1172,4.1172,1.1834,1.1932,1.2078,1.2322,1.2601,1.297,1.3705,1.4826,1.6179,1.7839,1.9195,2.0194,2.0641,2.1024,2.088,1.9921,1.9806,1.9824,1.9494,1.9236,1.9211,1.9559,1.9584,1.9811,2.0488,2.0838,2.1529,2.2847,2.3156,2.363,2.4481,2.4849,2.5119,2.5119,2.5119,2.5119,2.5119,2.5119,2.5119,2.5119,2.5119,2.5119,2.5119,2.5119,2.5119,2.5119,2.5809,2.6078,2.6213,2.7666,2.8329,2.8395,2.9053,2.9316,2.9316,2.9316,2.9316,2.9316,2.9316,2.9316,2.9316,2.9316,2.9316,2.9316,2.9495,2.9822,3.0296,3.0926,3.1635,3.2275,3.2785,3.3165,3.3418,3.3418,3.3544,3.3733,3.411,3.4548,3.4984,3.5356,3.5418,3.5418,3.5418,3.5418,3.5418,3.5418,3.5418,3.5541,3.587,3.6055,3.6423,3.7093,3.7154,3.7214,3.7374,3.7374,3.7374,3.7374,3.7374,3.7374,3.7374,3.7555,3.7818,3.8141,3.8477,3.9049,3.9989,4.0106,4.0513,4.1172,4.1172,4.1172,1.2224,1.2224,1.2322,1.2322,1.2516,1.2915,1.3736,1.4959,1.6424,1.8192,1.9782,2.0947,2.1405,2.1661,2.1528,2.0725,2.0312,2.0078,2.0114,1.9591,1.9462,2.0005,1.9903,2.0106,2.0851,2.1006,2.1632,2.3151,2.3518,2.3969,2.4631,2.4916,2.5119,2.5119,2.5119,2.5119,2.5119,2.5119,2.5119,2.5119,2.5119,2.5119,2.5119,2.5119,2.5119,2.5119,2.5809,2.6078,2.6213,2.7666,2.8329,2.8395,2.9053,2.9316,2.9316,2.9316,2.9316,2.9316,2.9316,2.9316,2.9316,2.9316,2.9382,2.943,2.9757,3.0148,3.075,3.1313,3.1955,3.2613,3.2931,3.3165,3.3418,3.3481,3.3733,3.411,3.4423,3.4797,3.5108,3.5356,3.5418,3.5418,3.5418,3.5418,3.5418,3.5418,3.5418,3.5541,3.587,3.587,3.6116,3.681,3.6932,3.7032,3.7374,3.7374,3.7374,3.7374,3.7374,3.7435,3.7495,3.7758,3.8058,3.85,3.8693,3.9285,4.0223,4.0223,4.0513,4.1172,4.1172,4.1172,1.27,1.2322,1.2029,1.2029,1.2224,1.2715,1.3732,1.4961,1.654,1.8784,2.0053,2.1047,2.1862,2.1919,2.1501,2.0673,2.0325,2.0074,1.9805,1.9658,1.9756,2.0043,2.0361,2.0552,2.0641,2.0895,2.1518,2.2504,2.3736,2.4602,2.5052,2.5052,2.5119,2.5119,2.5119,2.5119,2.5119,2.5119,2.5119,2.5119,2.5119,2.5119,2.5119,2.5119,2.5119,2.5119,2.5809,2.6078,0.0,2.7666,2.8329,2.8395,2.9053,2.9316,2.9316,2.9316,2.9316,2.9316,2.9316,2.9316,2.9316,2.9316,2.9495,2.9739,2.9822,3.0538,3.1377,3.1744,3.2339,3.2912,3.3292,3.3355,3.3481,3.3796,3.411,3.4423,3.4797,3.5108,3.5356,3.5418,3.5418,3.5418,3.5418,3.5418,3.5418,3.5418,3.5418,3.5541,3.587,3.5603,3.5809,3.6789,3.6932,3.7032,3.7374,3.7374,3.7374,3.7374,3.7374,3.7555,3.7818,3.7878,3.8178,3.8752,3.8812,3.9285,4.0223,4.0223,4.0513,4.1172,4.1172,4.1172,1.357,1.3039,1.2613,1.2516,1.2769,1.3342,1.4481,1.598,1.7688,1.9406,2.0744,2.1745,2.2316,2.1908,2.1466,2.1352,2.051,2.0062,2.0502,2.004,1.9963,2.06,2.0666,2.0666,2.0856,2.1046,2.1477,2.2462,2.3535,2.4374,2.4713,2.4984,2.5119,2.5119,2.5119,2.5119,2.5119,2.5119,2.5119,2.5119,2.5119,2.5119,2.5119,2.5119,2.5187,2.5457,2.5876,2.6264,0.0,2.7799,2.8329,2.8395,2.9053,2.9316,2.9316,2.9316,2.9316,2.9316,2.9316,2.9316,2.9316,2.9561,2.9822,3.023,3.0408,3.0926,3.157,3.2275,3.2657,3.2975,3.3292,3.3418,3.3481,3.3796,3.4173,3.4485,3.4859,3.517,3.5418,3.5418,3.5418,3.5418,3.5418,3.5418,3.5418,3.5418,3.5541,3.5726,3.5849,3.5972,3.6239,3.6871,3.6728,3.685,3.7374,3.7374,3.7374,3.7374,3.7577,3.7758,3.7878,3.8216,3.8574,3.8812,3.899,3.9367,3.9954,4.013,4.0479,4.0908,4.1139,4.1172,1.4472,1.3859,1.3389,1.3098,1.3471,1.417,1.5282,1.6968,1.8687,2.0058,2.1291,2.2182,2.2384,2.1827,2.1358,0.0,2.0491,1.9977,2.0708,2.0234,2.0148,2.0979,2.0919,2.0856,2.1109,2.1269,2.1666,2.2279,2.3266,2.3952,2.4292,2.4713,2.4984,2.5119,2.5119,2.5119,2.5119,2.5119,2.5119,2.5119,2.5119,2.5119,2.5119,2.5187,2.539,2.5592,2.5956,2.6306,0.0,2.7751,2.8163,2.8395,2.9053,2.9316,2.9316,2.9316,2.9316,2.9316,2.9316,2.9316,2.9382,2.9691,3.0148,3.062,3.1055,3.1442,3.1827,3.2657,3.2975,3.3102,3.3355,3.3418,3.3481,3.3922,3.4235,3.4548,3.4922,3.5232,3.5418,3.5418,3.5418,3.5418,3.5418,3.5418,3.5418,3.5418,3.5665,3.5932,3.6055,3.6239,3.6545,3.685,3.6606,3.6667,3.7314,3.7314,3.7335,3.7555,3.7758,3.7998,3.8178,3.8574,3.8871,3.893,3.9167,3.9485,3.9802,4.0071,4.0363,4.0735,4.1057,4.1172,1.5343,1.4723,1.4148,1.3607,1.4144,1.506,1.6158,1.7672,1.9269,2.0641,2.1522,2.208,2.208,2.1674,2.1123,2.0581,0.0,1.9794,2.0137,2.022,2.0393,2.1042,2.1109,2.1109,2.1109,2.163,2.1977,2.1991,2.2862,2.3611,2.3966,2.4292,2.4713,2.5119,2.5119,2.5119,2.5119,2.5119,2.5119,2.5119,2.5119,2.5119,2.5119,2.5457,2.5592,2.5644,2.5962,2.6339,0.0,2.7393,2.7932,2.8395,2.9053,2.9316,2.9316,2.9316,2.9316,2.9316,2.9316,2.9316,2.9382,2.9691,3.0278,3.1009,3.1699,3.2147,3.2485,3.2804,3.3102,3.3418,3.3418,3.3418,3.3544,3.4235,3.4423,3.461,3.5232,3.5418,3.5418,3.5418,3.5418,3.5418,3.5418,3.5418,3.5418,3.5418,3.5665,3.6055,3.6361,3.6423,3.6545,3.685,3.6606,3.6667,3.7314,3.7093,3.7154,3.7878,3.7878,3.8178,3.8752,3.8812,3.893,3.9308,3.9308,3.9485,3.9802,4.0071,4.0363,4.0735,4.1057,4.1172,1.6513,1.5947,1.552,1.5175,1.5742,1.663,1.7556,1.8802,1.9949,2.0739,2.1283,2.1522,2.1318,2.0858,2.0477,2.0566,2.011,2.0047,2.0767,2.0717,2.0747,2.1344,2.1235,2.1189,2.139,2.1764,2.2071,2.2271,2.2781,2.3338,2.3952,2.4088,2.4442,2.5052,2.5119,2.5119,2.5119,2.5119,2.5119,2.5119,2.5119,2.5119,2.5119,2.5234,2.5396,2.5646,2.5934,2.6294,2.668,2.7652,2.8108,2.8307,2.9017,2.9316,2.9316,2.9316,2.9316,2.9316,2.9561,2.9626,2.9757,3.0343,3.0861,3.1377,3.2019,3.2485,3.2785,3.3165,3.3292,3.3418,3.3418,3.3418,3.3544,3.4235,3.4423,3.461,3.5232,3.5418,3.5418,3.5418,3.5418,3.5418,3.5418,3.5418,3.5418,3.5418,3.5665,3.5932,3.6055,3.6239,3.6423,3.6545,3.6484,3.6606,3.7032,3.6972,3.7154,3.7878,3.8118,3.8418,3.8789,3.899,3.919,3.9308,3.9308,3.9367,3.9485,3.9954,4.0479,4.1057,4.1115,4.1172,1.7638,1.7264,1.6983,1.6749,1.7312,1.8178,1.8818,1.9799,2.0652,2.096,2.1165,2.1181,2.0822,2.0555,2.0452,2.0569,2.045,2.0569,2.1228,2.117,2.1235,2.1721,2.1614,2.1611,2.1974,2.2209,2.2495,2.2794,2.3107,2.3543,2.417,2.4156,2.451,2.5052,2.5119,2.5119,2.5119,2.5119,2.5119,2.5119,2.5119,2.5187,2.5322,2.5315,2.5495,2.5793,2.6024,2.6263,0.0,2.7596,2.8101,2.8269,2.9031,2.9316,2.9316,2.943,2.9495,2.9561,2.9887,3.0083,3.0343,3.0861,3.1506,3.2083,3.2594,3.2931,3.3102,3.3355,3.3418,3.3418,3.3544,3.3607,3.3733,3.4423,3.461,3.4735,3.5294,3.5418,3.5418,3.5418,3.5418,3.5418,3.5418,3.5418,3.5418,3.5418,3.5665,3.5932,3.5932,3.6178,3.6361,3.6239,3.63,3.6545,3.685,3.7032,3.7396,3.8058,3.8358,3.8716,3.899,3.919,3.9308,3.9308,3.9308,3.9308,3.9308,3.9873,4.0513,4.1172,4.1172,4.1172,0.0,1.8519,1.8442,1.8288,1.8892,1.9681,1.9941,2.0682,0.0,2.1318,2.1267,2.1062,2.0565,2.0726,2.0909,2.0653,2.0943,2.1335,2.1627,2.1786,2.1858,2.2069,2.209,2.2307,2.2644,2.2925,2.3168,2.3571,2.3865,2.4156,2.4495,2.4495,2.4713,2.5119,2.5187,2.5119,2.5119,2.5119,2.5119,2.5119,2.5119,2.5322,2.5659,2.5631,2.5778,0.0,2.6072,2.6275,2.6582,2.7377,2.7832,2.8185,2.8946,2.923,2.9296,2.9639,2.977,2.9852,3.0296,3.0685,3.1009,3.1377,3.2147,3.2975,3.3292,3.3418,3.3418,3.3418,3.3418,3.3481,3.3796,3.3922,3.411,3.4735,3.4922,3.4984,3.5356,3.5418,3.5418,3.5418,3.5418,3.5418,3.5418,3.5418,3.5418,3.5418,3.5665,3.5849,3.5849,3.6116,3.6239,3.5932,3.6178,3.6545,3.6889,3.7193,3.7698,3.838,3.8633,3.893,3.9308,3.9308,3.9308,3.9308,3.9308,3.9308,3.9367,3.9931,4.0513,4.1172,4.1172,4.1172,1.9911,0.0,1.9369,1.9583,2.0036,2.054,0.0,2.1261,2.1318,2.1318,2.0806,2.0344,2.0241,2.0308,2.0499,2.0939,2.1273,2.1729,2.2281,2.2572,2.2625,2.2172,2.2338,2.2708,2.3328,2.3457,2.3662,2.4217,2.4317,2.4428,2.4495,2.4766,2.5052,2.5457,2.5742,2.5592,2.5119,2.5119,2.5255,2.5457,2.5457,2.5674,2.5981,2.5716,2.5634,2.5716,2.572,2.5772,2.5932,2.6832,2.731,2.7491,2.8449,2.8858,2.8939,2.9538,2.9771,2.9935,3.0836,3.1184,3.1442,3.2275,3.2721,3.2975,3.3292,3.3418,3.3418,3.3418,3.3607,3.3796,3.3859,3.411,3.436,3.4797,3.4922,3.4984,3.5356,3.5418,3.5418,3.5418,3.5418,3.5418,3.5418,3.5418,3.5418,3.5418,3.5479,3.5541,3.5541,3.5603,3.5665,3.5849,3.6178,3.6667,3.7253,3.7374,3.7796,3.8633,3.8752,3.893,3.9308,3.9308,3.9308,3.9308,3.9308,3.9544,3.9989,4.0106,4.0513,4.1172,4.1172,4.1172,2.0246,2.0246,2.0201,2.0262,2.0712,2.1162,2.1362,2.1377,2.1267,2.113,2.0668,2.0287,2.0337,2.0605,2.0994,2.1495,2.1945,2.2363,2.2717,2.3121,2.3187,2.2852,2.3101,2.3558,2.4207,2.4281,2.4546,2.5196,2.5255,2.5255,2.5255,2.539,2.5592,2.5794,2.6011,2.5944,2.5539,2.5539,2.5659,2.5809,2.5809,2.5996,2.6383,2.5974,2.5937,2.61,2.6071,2.6096,2.6113,2.7164,2.7592,2.7662,2.8559,2.8909,2.8975,2.9547,2.9744,2.9879,3.0847,3.1423,3.2019,3.2848,3.3102,3.3165,3.3355,3.3418,3.3418,3.3607,3.3733,3.3985,3.4298,3.4485,3.4735,3.5046,3.5108,3.5108,3.517,3.5294,3.5356,3.517,3.5294,3.5418,3.5418,3.5418,3.5418,3.5418,3.5418,3.5418,3.5418,3.5418,3.5541,3.5849,3.6178,3.6728,3.7577,3.7758,3.8118,3.8752,3.893,3.9108,3.9308,3.9308,3.9308,3.9308,3.9308,3.9544,4.0013,4.0106,4.0479,4.0942,4.1139,4.1172,2.0246,2.0617,2.0866,2.0631,2.1057,2.1478,2.1329,2.1275,2.1216,2.1027,2.0767,2.0633,2.0702,2.1232,2.1768,2.2119,2.2672,2.3133,2.3195,2.3497,2.3722,2.3747,2.4024,2.4437,2.5126,2.5187,2.5478,2.6151,2.6151,2.6054,2.6002,2.6008,2.6044,2.6044,2.6105,2.6188,2.6188,2.6115,2.613,2.6197,2.6197,2.6398,2.6784,2.6358,2.6399,2.6726,2.6617,0.0,2.66,2.7565,2.7929,2.7991,2.8754,2.8982,2.9075,2.9501,2.9643,2.9839,3.0688,3.1582,3.2518,3.3146,3.3418,3.3418,3.3418,3.3418,3.3544,3.3859,3.3985,3.411,3.4735,3.4922,3.5046,3.5294,3.5294,3.5232,3.4922,3.5108,3.5232,3.4984,3.517,3.5418,3.5418,3.5418,3.5418,3.5418,3.5418,3.5418,3.5418,3.5418,3.5541,3.5932,3.6239,3.685,3.7878,3.8261,3.8537,3.8871,3.9108,3.9308,3.9308,3.9308,3.9308,3.9308,3.9308,3.9485,3.9802,4.0071,4.0363,4.0735,4.1057,4.1172,2.0246,2.0666,2.0954,2.0954,2.1095,2.1346,2.1577,2.1438,2.1267,2.1283,2.1095,2.1002,2.1223,2.1704,2.2104,2.2371,2.3007,2.3602,2.4171,2.4298,2.4359,2.4411,2.4515,2.4828,2.5527,2.5589,2.5869,2.6553,2.632,2.5951,2.5718,2.5705,2.568,2.568,2.627,2.6624,2.6624,2.626,2.6264,2.6599,2.6599,2.68,2.7118,2.6769,2.6676,2.666,0.0,2.628,2.6312,2.6703,2.701,2.7317,2.7966,2.8371,2.8673,2.9362,2.9593,2.9825,3.1202,3.196,3.245,3.3175,3.3418,3.3418,3.3418,3.3607,3.3922,3.4235,3.4298,3.4423,3.4797,3.5108,3.5232,3.5046,3.4984,3.4859,3.4548,3.4735,3.4984,3.4922,3.517,3.5418,3.5418,3.5418,3.5418,3.5418,3.5418,3.5418,3.5418,3.5418,3.5603,3.6239,3.6361,3.6911,3.8201,3.838,3.8679,3.919,3.9249,3.9308,3.9308,3.9308,3.9308,3.9308,3.9308,3.9485,3.9802,4.0071,4.0363,4.0735,4.1057,4.1172,2.0246,2.056,2.0797,2.0797,2.1016,2.1275,2.1285,2.1165,2.1078,2.1078,2.1143,2.1339,2.1634,2.2039,2.2553,2.3199,2.3691,2.422,2.4697,2.4943,2.506,2.4864,2.5019,2.5248,2.5581,2.5865,2.6101,2.6401,2.6448,2.6255,2.5952,2.591,2.5895,2.5895,2.6246,2.655,2.6676,2.6506,2.6612,2.7,2.7,2.7067,2.72,2.7042,2.6962,2.6946,0.0,2.6839,2.7003,2.7355,2.7676,2.7957,2.8437,2.8697,2.8833,2.9117,2.9517,2.9999,3.086,3.1665,3.2397,3.2902,3.3242,3.3418,3.3418,3.3607,3.3985,3.4298,3.4548,3.4735,3.5108,3.517,3.5108,3.4922,3.498,3.4974,3.4785,3.5037,3.5289,3.5289,3.5334,3.5418,3.5418,3.5418,3.5418,3.5418,3.5418,3.5418,3.5418,3.5418,3.5769,3.668,3.6784,3.7339,3.864,3.8761,3.895,3.9272,3.9308,3.9308,3.9308,3.9308,3.9308,3.9308,3.9308,3.9367,3.9544,3.9989,4.0281,4.0421,4.0942,4.1172,2.0366,2.058,2.0717,2.08,2.1064,2.1232,2.0976,2.0976,2.0992,2.1139,2.1374,2.1778,2.2237,2.2654,2.3247,2.4065,2.4515,2.4887,2.5311,2.5551,2.5648,2.549,2.557,2.5617,2.5721,2.5929,2.612,2.62,2.6327,2.6311,2.6041,2.6009,2.5961,2.5961,2.6041,2.6152,2.6438,2.6597,2.6851,2.72,2.72,2.72,2.72,2.72,2.72,2.72,2.72,2.7352,2.7637,2.7929,2.8201,2.8515,2.8806,2.895,2.8975,2.8975,2.9416,3.0013,3.0468,3.1283,3.2243,3.2649,3.3086,3.3418,3.3418,3.367,3.4047,3.436,3.4673,3.5046,3.5232,3.5108,3.4859,3.4673,3.4828,3.4959,3.4959,3.5214,3.5532,3.5595,3.5478,3.5418,3.5418,3.5418,3.5418,3.5479,3.5418,3.5418,3.5479,3.5418,3.579,3.6829,3.7081,3.7786,3.9075,3.9167,3.916,3.9272,3.9308,3.9308,3.9308,3.9308,3.9308,3.9308,3.9308,3.9308,3.9308,3.9873,4.0223,4.0223,4.0884,4.1244,2.0691,2.0925,2.1057,2.1426,2.1394,2.1232,2.0976,2.1062,2.138,2.1771,2.2112,2.2505,2.3206,2.3904,2.444,2.4775,2.5151,2.5678,2.627,2.6135,2.609,2.6443,2.5961,2.574,2.6018,2.5832,2.5802,2.6184,2.5882,2.5707,2.5612,2.5357,2.5183,2.5183,2.55,2.5628,2.5707,2.6358,2.6851,2.72,2.72,2.72,2.72,2.72,2.72,2.72,2.72,2.7224,2.7279,2.753,2.7855,2.8175,2.8414,2.8714,2.8975,2.8975,2.9231,2.9661,3.0354,3.1092,3.1857,3.2552,3.3086,3.3418,3.3418,3.3859,3.436,3.4423,3.4859,3.5294,3.4984,3.4922,3.4735,3.411,3.4322,3.464,3.464,3.4896,3.5214,3.5532,3.5478,3.5418,3.5418,3.5418,3.5479,3.5809,3.5603,3.5479,3.5809,3.5603,3.5685,3.6404,3.7179,3.8178,3.9462,3.9391,3.9295,3.9308,3.9308,3.9308,3.9308,3.9308,3.9308,3.9308,3.9308,3.9308,3.9308,3.9873,4.0223,4.0223,4.0884,4.1437,2.0356,2.0649,2.0933,2.1279,2.1478,2.1522,2.142,2.165,2.1966,2.2114,2.2589,2.3152,2.364,2.4288,2.4859,2.5225,2.5737,2.6287,2.6799,2.673,2.6661,2.6614,2.6388,2.6088,2.585,2.5875,2.5768,2.5516,2.558,2.5548,2.5326,2.5183,2.5103,2.5103,2.5246,2.5421,2.5581,2.5898,2.6311,2.6883,2.7089,2.72,2.72,2.72,2.72,2.72,2.7384,2.7654,2.7814,2.8086,2.84,2.8753,2.8781,2.8874,2.8975,2.8975,2.9331,2.9764,3.0052,3.0983,3.2085,3.2363,3.2871,3.3418,3.3418,3.3859,3.4423,3.4423,3.4859,3.5294,3.4984,3.4735,3.4546,3.4386,3.4675,3.5137,3.5591,3.5755,3.596,3.628,3.581,3.5418,3.5418,3.5541,3.5726,3.5849,3.5993,3.6055,3.6178,3.6116,3.6345,3.7053,3.7986,3.8853,3.9522,3.9428,3.9308,3.9308,3.9308,3.9308,3.9308,3.9308,3.9308,3.9308,3.9308,3.9308,3.9308,3.972,4.0235,4.0693,4.1186,4.179,2.0239,2.0589,2.0998,2.1296,2.1693,2.2009,2.2009,2.2208,2.2509,2.2742,2.3328,2.3933,2.43,2.4838,2.5381,2.5754,2.6304,2.6765,2.7039,2.7073,2.7012,2.677,2.6631,2.6388,2.5978,2.5945,2.573,2.532,2.5404,2.5357,2.5119,2.5103,2.5103,2.5103,2.5103,2.523,2.5469,2.558,2.5882,2.6358,2.6819,2.7089,2.72,2.72,2.7267,2.74,2.7584,2.79,2.8162,2.8478,2.8765,2.9059,2.9025,2.8975,2.8975,2.9094,2.945,2.9922,3.0039,3.1009,3.2229,3.2229,3.2734,3.3418,3.3418,3.3859,3.4423,3.4423,3.4859,3.5294,3.4984,3.4735,3.4606,3.4732,3.5107,3.5696,3.6446,3.6465,3.6418,3.674,3.6059,3.5418,3.5418,3.579,3.6142,3.6244,3.6639,3.6931,3.6993,3.6931,3.7224,3.8043,3.8798,3.9401,3.9704,3.9488,3.9308,3.9308,3.9308,3.9308,3.9308,3.9308,3.9308,3.9308,3.9308,3.9377,3.9538,3.9857,4.0468,4.1257,4.1638,4.2198,2.057,2.0933,2.1296,2.1643,2.2212,2.2703,2.2719,2.2719,2.2921,2.3661,2.4336,2.4932,2.5366,2.5686,2.6062,2.6422,2.6816,2.7073,2.7073,2.7073,2.7073,2.7073,2.683,2.6571,2.6571,2.5978,2.561,2.561,2.5304,2.5119,2.5103,2.5103,2.5103,2.5103,2.5103,2.5103,2.5103,2.5453,2.5565,2.5581,2.6342,2.6851,2.72,2.72,2.74,2.77,2.77,2.7882,2.8106,2.8501,2.8791,2.8975,2.8975,2.8975,2.9035,2.939,2.9686,2.9922,3.0274,3.1188,3.2229,3.2229,3.2734,3.3418,3.3418,3.3859,3.4423,3.4423,3.4859,3.5294,3.4984,3.4922,3.4919,3.505,3.5449,3.6022,3.6795,3.6616,3.6418,3.674,3.6059,3.5418,3.5438,3.6061,3.675,3.7041,3.7571,3.8017,3.8249,3.8081,3.8249,3.9192,3.9511,3.9764,4.0066,3.9607,3.9308,3.9308,3.9308,3.9308,3.9308,3.9308,3.9308,3.9308,3.9308,3.9561,4.0126,4.0366,4.0921,4.1821,4.2184,4.2747,2.0087,2.0553,2.1167,2.1936,2.2256,2.2628,2.3572,2.3744,2.388,2.4374,2.4689,2.4932,2.5366,2.5686,2.6062,2.6422,2.6816,2.7073,2.7073,2.7073,2.7073,2.7073,2.7012,2.6932,2.6941,2.6525,2.6215,2.6045,2.5672,2.5373,2.5119,2.5103,2.5103,2.5103,2.5103,2.5103,2.5103,2.5214,2.5389,2.5643,2.6087,2.6504,2.6835,2.7338,2.7584,2.7766,2.8178,2.8439,2.8449,2.8788,2.8895,2.8975,2.8975,2.8975,2.9035,2.939,2.9686,2.9922,3.0274,3.1188,3.2229,3.2229,3.2734,3.3418,3.3418,3.367,3.411,3.436,3.4735,3.5108,3.5232,3.5232,3.5313,3.5517,3.5864,3.6363,3.7269,3.7016,3.6676,3.6804,3.6059,3.5521,3.5852,3.6519,3.7085,3.7529,3.81,3.8649,3.9026,3.9026,3.9192,3.9938,3.9756,3.9764,4.0066,3.9988,3.9836,3.9836,4.0181,4.0043,3.9331,3.9652,3.9836,3.9836,4.0181,4.0456,4.0594,4.0655,4.1298,4.2362,4.2485,4.2928,1.9909,2.0484,2.1178,2.1748,2.2286,2.3001,2.419,2.4415,2.4538,2.4778,2.4812,2.4984,2.5497,2.5788,2.6055,2.6628,2.6919,2.7073,2.7073,2.7073,2.7073,2.7073,2.7073,2.7166,2.7278,2.6744,2.6401,2.6362,2.575,2.5326,2.5119,2.5103,2.5103,2.5103,2.5103,2.5103,2.5103,2.5103,2.5276,2.5624,2.5923,2.6339,2.6857,2.7475,2.7753,2.7914,2.8587,2.8877,2.8783,2.895,2.8975,2.8975,2.8975,2.8975,2.9035,2.9509,2.9745,3.0019,3.0643,3.1463,3.2268,3.2363,3.2871,3.3418,3.3418,3.3607,3.3985,3.4298,3.461,3.4984,3.5294,3.5418,3.5521,3.6065,3.6354,3.6729,3.7632,3.746,3.7074,3.7074,3.6473,3.6059,3.6539,3.7171,3.7826,3.8231,3.902,3.966,3.9914,4.0167,4.0392,4.0587,4.0478,4.0411,4.0387,4.0364,4.0364,4.0364,4.064,4.0548,3.9928,4.0203,4.0364,4.0364,4.0663,4.0915,4.1122,4.1122,4.1623,4.2693,4.2693,4.3044,1.9909,2.0634,2.1334,2.145,2.2474,2.3688,2.4603,2.4812,2.4812,2.4812,2.4812,2.5035,2.5697,2.5908,2.6182,2.6962,2.7116,2.7133,2.7133,2.7133,2.7073,2.7073,2.7073,2.721,2.7569,2.6745,2.6326,2.6595,2.5697,2.5135,2.5103,2.5103,2.5103,2.5103,2.5103,2.5103,2.5103,2.5103,2.5288,2.5672,2.6042,2.6562,2.7171,2.7577,2.7902,2.8226,2.8826,2.9076,2.9082,2.9021,2.8975,2.8975,2.8975,2.8975,2.9035,2.9686,2.9922,3.0038,3.113,3.1797,3.2307,3.2656,3.3086,3.3418,3.3418,3.3607,3.3985,3.4298,3.461,3.4984,3.5294,3.5418,3.5645,3.6577,3.6804,3.7053,3.7984,3.7819,3.7488,3.7488,3.7115,3.6954,3.7316,3.7974,3.8658,3.911,4.0125,4.0841,4.0841,4.1421,4.1625,4.1256,4.1416,4.1374,4.0915,4.0892,4.0892,4.0892,4.0938,4.0961,4.0961,4.0915,4.0892,4.0892,4.0938,4.1191,4.165,4.165,4.2068,4.2822,4.2822,4.2949,2.0281,2.0883,2.1806,2.2645,2.3685,2.4497,2.4723,2.4812,2.4812,2.4812,2.4812,2.4949,2.5412,2.5967,2.6429,2.6957,2.7227,2.7401,2.7401,2.7237,2.7073,2.7073,2.7073,2.721,2.7569,2.7165,2.6794,2.6612,2.6172,2.5638,2.5119,2.5103,2.5103,2.5103,2.5103,2.5103,2.5103,2.5365,2.5656,2.6022,2.6594,2.7176,2.7817,2.7946,2.8334,2.8913,2.9008,2.9034,2.9044,2.9012,2.8975,2.8975,2.8975,2.8975,2.9035,2.9686,2.9922,3.0038,3.113,3.1797,3.2307,3.2656,3.3086,3.3418,3.3418,3.3607,3.3985,3.4298,3.461,3.4984,3.5294,3.5418,3.5645,3.6577,3.6804,3.7053,3.7984,3.7819,3.7488,3.7488,3.7115,3.7037,3.7714,3.8185,3.883,3.9866,4.0452,4.0906,4.1164,4.155,4.1888,4.1988,4.1748,4.1535,4.142,4.142,4.142,4.142,4.1788,4.1954,4.1954,4.1627,4.142,4.142,4.1811,4.2,4.2178,4.2178,4.2351,4.2822,4.2822,4.2822,2.0573,2.118,2.2146,2.3214,2.4002,2.4535,2.4778,2.4812,2.4812,2.4812,2.4812,2.4932,2.5366,2.5817,2.6301,2.6876,2.7257,2.7432,2.7486,2.7401,2.7237,2.7133,2.7073,2.721,2.7569,2.7142,2.6879,2.686,2.6215,2.5727,2.5365,2.5181,2.5103,2.5103,2.5103,2.5165,2.5365,2.5656,2.6083,2.6571,2.7237,2.796,2.8677,2.8731,2.8911,2.9319,2.9318,2.9177,2.8975,2.8975,2.8975,2.8975,2.8975,2.9094,2.9272,2.9745,3.0094,3.056,3.15,3.2109,3.2539,3.2969,3.3242,3.3418,3.3418,3.3607,3.3985,3.4298,3.461,3.4984,3.5294,3.5418,3.5645,3.6577,3.6804,3.7053,3.7984,3.8005,3.7819,3.7819,3.7632,3.7725,3.8479,3.9044,3.965,4.0431,4.0841,4.1164,4.1486,4.1806,4.2148,4.2275,4.2109,4.1948,4.1948,4.1948,4.1948,4.1948,4.2178,4.2275,4.2275,4.2086,4.1948,4.1948,4.2201,4.2275,4.2275,4.2275,4.2402,4.2593,4.2593,4.2593,2.098,2.1611,2.257,2.3458,2.4008,2.4364,2.4744,2.4812,2.4812,2.4812,2.4812,2.4915,2.5223,2.5552,2.604,2.6784,2.7117,2.7335,2.7397,2.733,2.721,2.6945,2.6936,2.709,2.7381,2.6949,2.6766,2.7008,2.6204,2.5688,2.5691,2.5384,2.523,2.5278,2.5292,2.5445,2.5753,2.6178,2.6692,2.7375,2.8151,2.8984,2.9814,2.9874,2.9748,2.9494,2.9521,2.9331,2.8975,2.8975,2.8975,2.8975,2.8975,2.9213,2.9509,2.9804,3.0365,3.1125,3.1951,3.2441,3.2871,3.3281,3.3418,3.3418,3.3418,3.367,3.4047,3.4298,3.4673,3.5046,3.5356,3.5418,3.5645,3.6577,3.6804,3.7053,3.7984,3.8191,3.8171,3.8088,3.82,3.8444,3.9038,3.9823,4.0474,4.0777,4.11,4.1486,4.1742,4.2061,4.2275,4.2275,4.2275,4.2275,4.2275,4.2275,4.2275,4.2275,4.2275,4.2275,4.2275,4.2275,4.2275,4.2275,4.2275,4.2275,4.2275,4.2275,4.2275,4.2275,4.2275,4.2339,2.169,2.2452,2.3545,2.3665,2.423,2.4761,2.4812,2.4812,2.4812,2.4812,2.4812,2.483,2.4881,2.5436,2.5979,2.6349,2.6707,2.6956,2.7009,2.6719,2.6429,2.608,2.6371,2.6593,2.6628,2.6902,2.6908,2.6699,2.6283,2.6031,2.6032,2.5752,2.5707,2.6057,2.6021,2.611,2.6484,2.7027,2.7642,2.8301,2.9845,3.0882,3.1386,3.1689,3.1003,2.9524,2.9527,2.9331,2.8975,2.8975,2.8975,2.8975,2.8975,2.9213,2.9509,2.9804,3.0365,3.1125,3.1951,3.2441,3.2871,3.3281,3.3418,3.3418,3.3418,3.3859,3.436,3.436,3.4859,3.5356,3.5356,3.5418,3.5645,3.6577,3.6804,3.7053,3.7984,3.8191,3.8067,3.7653,3.8028,3.8614,3.8938,3.9973,4.0777,4.0777,4.1357,4.1742,4.1806,4.2061,4.2275,4.2275,4.2275,4.2275,4.2275,4.2275,4.2275,4.2275,4.2275,4.2275,4.2275,4.2275,4.2275,4.2275,4.2275,4.2275,4.2275,4.2275,4.2275,4.2275,4.2275,4.2466,2.2693,2.3081,2.3618,2.3791,2.4367,2.4942,2.4706,2.4879,2.4962,2.4812,2.4812,2.4812,2.4812,2.5172,2.5625,2.6021,2.6349,2.6601,2.6584,2.6504,2.6273,2.5943,2.608,2.6182,2.6182,2.6525,2.6688,2.6568,2.6655,2.657,2.6425,2.626,2.6184,2.62,2.6374,2.6575,2.6877,2.7947,2.9087,3.0321,3.1054,3.1609,3.1985,3.2107,3.1515,3.0322,3.0143,2.9774,2.9272,2.9094,2.8975,2.8975,2.8975,2.9272,2.9764,3.0127,3.0907,3.1752,3.2363,3.2793,3.3184,3.3359,3.3418,3.3418,3.3418,3.3859,3.4423,3.4423,3.4859,3.5418,3.5418,3.5625,3.5976,3.6639,3.7011,3.7384,3.8046,3.8191,3.8113,3.7853,3.7994,3.8381,3.9173,3.9904,4.0595,4.1248,4.1614,4.187,4.2061,4.2212,4.2275,4.2275,4.2275,4.2275,4.2275,4.2275,4.2275,4.2275,4.2275,4.2275,4.2275,4.2275,4.2275,4.2275,4.2275,4.2275,4.2275,4.2275,4.2275,4.2275,4.2275,4.2466,2.3506,2.3538,2.3633,2.3838,2.4455,2.4934,2.4753,2.4889,2.5006,2.4889,2.4868,2.4812,2.4812,2.4979,2.5232,2.5639,2.5898,2.6042,2.6097,2.6092,2.5978,2.5652,2.5737,2.5788,2.5788,2.6131,2.6388,2.6473,2.6598,2.6727,2.6744,2.6645,2.6552,2.66,2.6906,2.73,2.7787,2.9128,3.0532,3.1957,3.1957,3.2138,3.248,3.248,3.2124,3.1455,3.1057,3.0468,2.9748,2.9416,2.926,2.9122,2.9012,2.9465,3.013,3.0433,3.1312,3.2383,3.2695,3.3066,3.3418,3.3418,3.3418,3.3418,3.3418,3.3859,3.4423,3.4423,3.4859,3.5418,3.5418,3.5769,3.6225,3.6701,3.7156,3.7612,3.8088,3.8005,3.7868,3.7926,3.7869,3.8166,3.9274,4.0005,4.0698,4.1674,4.187,4.1998,4.2275,4.2275,4.2275,4.2275,4.2275,4.2275,4.2275,4.2275,4.2275,4.2275,4.2275,4.2275,4.2275,4.2275,4.2275,4.2275,4.2275,4.2275,4.2275,4.2402,4.2402,4.2402,4.2529,4.2696,2.3705,2.3842,2.389,2.389,2.4242,2.4632,2.4969,2.4842,2.4748,2.5096,2.4979,2.4812,2.4812,2.4812,2.4923,2.52,2.5255,2.5255,2.5273,2.529,2.518,2.4881,2.5189,2.5451,2.5451,2.5737,2.6114,2.6456,2.593,2.5989,2.7027,2.652,2.6632,2.7569,2.7931,2.8571,2.9559,3.0928,3.1934,3.2754,3.2754,3.2969,3.3359,3.3359,3.3125,3.2653,3.1938,3.1275,3.0587,3.0214,2.9865,2.9507,2.9122,2.9632,3.0588,3.0607,3.1504,3.2773,3.2793,3.3066,3.3418,3.3418,3.3418,3.3418,3.3418,3.3859,3.4423,3.4423,3.4859,3.5418,3.5418,3.5769,3.6225,3.6701,3.7156,3.7612,3.8088,3.7488,3.7059,3.7699,3.7848,3.8207,3.9236,4.039,4.1335,4.1742,4.2061,4.2275,4.2275,4.2275,4.2275,4.2275,4.2275,4.2275,4.2275,4.2275,4.2275,4.2275,4.2275,4.2275,4.2275,4.2275,4.2275,4.2275,4.2275,4.2275,4.2275,4.2633,4.2759,4.2759,4.3075,4.3451,2.4003,2.3963,2.3921,2.4204,2.4597,2.4893,2.485,2.5021,2.5093,2.4891,2.4806,2.4812,2.4812,2.4812,2.4812,2.4923,2.4923,2.4923,2.4923,2.4923,2.4923,2.4812,2.4932,2.5018,2.5018,2.5513,2.5892,2.6114,2.6534,2.6878,2.706,2.7323,2.7686,2.8048,2.8835,2.9936,3.1413,3.1859,3.2483,3.3203,3.3203,3.3281,3.3418,3.3418,3.334,3.3184,3.2922,3.2223,3.1294,3.0959,3.0762,3.0621,3.0471,3.077,3.1367,3.1574,3.2169,3.2832,3.3105,3.3301,3.3418,3.3418,3.3418,3.3418,3.3418,3.3859,3.4423,3.4423,3.4859,3.5418,3.5418,3.5976,3.6742,3.7508,3.7819,3.7984,3.815,3.7695,3.7434,3.8145,3.8018,3.8335,3.9926,4.0535,4.1126,4.1952,4.2212,4.2275,4.2275,4.2275,4.2275,4.2275,4.2275,4.2275,4.2275,4.2275,4.2275,4.2275,4.2275,4.2275,4.2275,4.2529,4.2529,4.2275,4.2529,4.2529,4.2275,4.2633,4.2822,4.2822,4.3137,4.3514,2.4152,2.4053,2.4053,2.4381,2.4684,2.4876,2.4873,2.5024,2.5163,2.4826,2.4763,2.4769,2.4795,2.4812,2.4812,2.4812,2.4812,2.4812,2.4812,2.4812,2.4812,2.4812,2.4812,2.4812,2.4923,2.537,2.5774,2.618,2.67,2.7124,2.744,2.7724,2.8204,2.8954,2.9935,3.1166,3.2549,3.2642,3.2894,3.3418,3.3418,3.3418,3.3418,3.3418,3.3418,3.3418,3.3418,3.2918,3.2084,3.1684,3.1503,3.1423,3.1271,3.1512,3.1931,3.22,3.2579,3.3047,3.332,3.3418,3.3418,3.3418,3.3418,3.3418,3.3418,3.3859,3.4423,3.4423,3.4859,3.5418,3.5418,3.6101,3.7032,3.7964,3.8304,3.837,3.837,3.8017,3.7793,3.8378,3.8445,3.8912,4.0382,4.0815,4.1294,4.2166,4.2275,4.2275,4.2275,4.2275,4.2275,4.2275,4.2275,4.2275,4.2275,4.2275,4.2275,4.2275,4.2275,4.2339,4.2466,4.2696,4.2759,4.2633,4.2759,4.2696,4.2466,4.2822,4.2949,4.2949,4.3451,4.3764,0.0,0.0,0.0,2.443,2.448,2.4591,2.4963,2.4891,2.4772,2.5023,2.4807,2.4605,2.4765,2.4795,2.4795,2.4795,2.4812,2.4812,2.4812,2.4812,2.4812,2.4812,2.4812,2.4923,2.5165,2.5238,2.5737,2.6796,2.6365,2.661,2.8037,2.7634,2.8226,3.029,3.1359,3.2275,3.2912,3.3228,3.3418,3.3418,3.3418,3.3418,3.3418,3.3418,3.3418,3.3418,3.3418,3.3228,3.2892,3.2488,3.2128,3.1821,3.1423,3.1703,3.2315,3.2315,3.2753,3.3418,3.3418,3.3418,3.3418,3.3418,3.3418,3.3418,3.3418,3.3859,3.436,3.4423,3.4859,3.5356,3.5459,3.6121,3.7032,3.7964,3.8437,3.8681,3.8681,3.839,3.814,3.8464,3.9109,3.9814,4.0513,4.1298,4.1934,4.2275,4.2275,4.2275,4.2275,4.2275,4.2275,4.2275,4.2275,4.2275,4.2275,4.2275,4.2275,4.2275,4.2275,4.2466,4.2759,4.2822,4.2949,4.3263,4.3012,4.2822,4.2822,4.3137,4.3326,4.3326,4.3974,4.4285,2.4523,0.0,0.0,0.0,0.0,0.0,2.4628,2.4688,2.4627,2.4328,2.4211,2.4173,2.4044,2.399,2.4076,2.435,2.4641,2.4812,2.4812,2.4812,2.4812,2.4812,2.4812,2.4923,2.5165,2.5872,2.6599,0.0,2.7773,2.8307,2.8807,2.9467,3.037,3.1405,3.2211,3.2848,3.3228,3.3355,3.3418,3.3418,3.3418,3.3418,3.3418,3.3418,3.3418,3.3418,3.3418,3.3355,3.3228,3.3175,3.3054,3.2971,3.2855,3.2894,3.3116,3.3116,3.3194,3.3418,3.3418,3.3418,3.3418,3.3418,3.3418,3.3418,3.3418,3.367,3.411,3.436,3.4735,3.5272,3.6182,3.6618,3.7097,3.8274,3.8615,3.8747,3.9012,3.919,3.9301,3.9367,3.9758,4.0342,4.0985,4.146,4.1934,4.2275,4.2275,4.2275,4.2275,4.2275,4.2275,4.2275,4.2275,4.2275,4.2275,4.2275,4.2275,4.2275,4.2275,4.2339,4.2466,4.2886,4.3075,4.2949,4.3326,4.3389,4.3137,4.3263,4.3326,4.3326,4.3974,4.4285,2.5064,2.4678,2.4399,2.4578,0.0,0.0,2.448,2.4566,2.4505,2.4161,2.4118,2.4157,2.407,2.4035,2.4052,2.4117,2.4358,2.4562,2.4778,2.4812,2.4812,2.4812,2.4812,2.4979,2.5348,2.6256,2.7044,2.7614,2.8517,2.9155,2.9556,3.0583,3.1442,3.2083,3.2594,3.3038,3.3418,3.3242,3.3164,3.3164,3.3164,3.3164,3.3164,3.334,3.3418,3.3418,3.3418,3.3418,3.3418,3.3418,3.3418,3.3418,3.3418,3.3418,3.3418,3.3418,3.3418,3.3418,3.3418,3.3418,3.3418,3.3418,3.3418,3.3418,3.3418,3.3607,3.3985,3.4298,3.4735,3.5334,3.6265,3.6787,3.7249,3.8154,3.8732,3.9144,3.9363,3.9691,3.9888,3.9757,4.0279,4.0864,4.1251,4.1678,4.2061,4.2275,4.2275,4.2275,4.2275,4.2275,4.2275,4.2275,4.2275,4.2275,4.2275,4.2275,4.2275,4.2275,4.2275,4.2339,4.2529,4.3012,4.3263,4.32,4.3615,4.3678,4.349,4.349,4.3576,4.3701,4.4099,4.4285,2.5736,2.5095,2.4578,2.4775,2.4677,0.0,2.448,2.448,2.4442,2.4256,2.4227,2.4266,2.4312,2.4313,2.4227,2.4001,2.3966,2.4121,2.459,2.4671,2.4706,2.4761,2.474,2.4979,2.5569,2.6367,2.7175,2.8087,2.8784,2.9538,3.0384,3.1093,3.1763,3.2422,3.2804,3.3102,3.3418,3.3008,3.2793,3.2793,3.2754,3.2754,3.2812,3.3184,3.3379,3.3418,3.3418,3.3418,3.3418,3.3418,3.3418,3.3418,3.3418,3.3418,3.3418,3.3418,3.3418,3.3418,3.3418,3.3418,3.3418,3.3418,3.3418,3.3418,3.3418,3.3607,3.3922,3.4298,3.4859,3.5521,3.5997,3.6707,3.7443,3.7949,3.8869,3.9691,3.9757,4.0018,4.0214,3.9822,4.0604,4.1251,4.1315,4.1829,4.2275,4.2275,4.2321,4.2431,4.2431,4.2431,4.2431,4.2431,4.2362,4.2275,4.2275,4.2275,4.2275,4.2275,4.2275,4.2466,4.2696,4.3075,4.3389,4.374,4.3802,4.3888,4.3888,4.3802,4.395,4.4285,4.4285,4.4285,2.6013,2.5213,2.4529,2.4578,2.4449,0.0,2.4251,2.4251,2.417,2.3945,2.3913,2.3741,2.3143,2.3058,2.3065,2.3129,2.3131,2.3289,2.3838,2.3945,2.4077,2.4296,2.4404,2.4701,2.5221,2.6201,2.7118,2.7785,2.942,3.0556,3.105,3.1795,3.2422,3.2804,3.3102,3.3355,3.3418,3.3008,3.2793,3.2793,3.2461,3.248,3.2793,3.2871,3.3105,3.3418,3.3418,3.3418,3.3418,3.3418,3.3418,3.3418,3.3418,3.3418,3.3418,3.3418,3.3418,3.3418,3.3418,3.3418,3.3418,3.3418,3.3418,3.3418,3.3418,3.3418,3.3607,3.4235,3.4859,3.5521,3.5997,3.6707,3.7507,3.8207,3.9065,3.9822,4.0084,4.0214,4.0279,4.0214,4.0582,4.0971,4.1251,4.1614,4.1998,4.2275,4.2683,4.2936,4.2936,4.2936,4.2936,4.2936,4.2568,4.2275,4.2275,4.2275,4.2275,4.2275,4.2275,4.2339,4.2402,4.2696,4.3075,4.3389,4.395,4.4223,4.4223,4.395,4.395,4.4285,4.4285,4.4285,2.6555,2.5867,2.5157,2.4782,2.4697,0.0,0.0,2.4202,2.4152,2.4053,2.4003,2.3826,2.3232,2.3014,2.2868,2.2575,2.2603,2.2715,2.2826,2.3389,2.3795,2.3956,2.4019,2.4316,2.4887,2.575,2.6839,2.8046,2.9365,3.0519,3.1239,3.2004,3.2613,3.3102,3.3292,3.3418,3.3418,3.2793,3.248,3.248,3.2051,3.207,3.248,3.2695,3.3027,3.3418,3.3418,3.3418,3.3418,3.3418,3.3418,3.3418,3.3418,3.3418,3.3418,3.3418,3.3418,3.3418,3.3418,3.3418,3.3418,3.3418,3.3418,3.3418,3.3418,3.3544,3.3733,3.4235,3.4735,3.5232,3.5645,3.654,3.7444,3.8061,3.898,3.9822,4.0214,4.0279,4.0279,4.0279,4.0474,4.0712,4.1187,4.155,4.1934,4.2275,4.2775,4.3096,4.3096,4.3303,4.3349,4.3119,4.2867,4.2614,4.2298,4.2275,4.2275,4.2275,4.2275,4.2275,4.2275,4.2633,4.3012,4.3576,4.4013,4.4285,4.4285,4.4137,4.4161,4.4285,4.4285,4.4285,2.7111,2.6538,2.5805,2.5313,2.5127,2.4969,0.0,0.0,0.0,2.4202,2.4202,2.4073,2.3572,2.3299,2.2895,2.2316,2.2188,2.2091,0.0,2.2672,0.0,2.3528,2.3631,2.3838,2.4433,2.5212,2.6359,2.7971,2.8901,2.9886,3.1015,3.1835,3.2644,3.3355,3.3418,3.3418,3.3418,3.2676,3.2307,3.2229,3.1816,3.1816,3.2187,3.2598,3.3027,3.3418,3.3418,3.3418,3.3418,3.3418,3.3418,3.3418,3.3418,3.3418,3.3418,3.3418,3.3418,3.3418,3.3418,3.3418,3.3418,3.3418,3.3418,3.3418,3.3418,3.3607,3.3985,3.4298,3.461,3.5004,3.5397,3.6436,3.7402,3.7869,3.8873,3.9822,4.0214,4.0279,4.0279,4.0279,4.0279,4.0539,4.1187,4.1486,4.1806,4.2212,4.2844,4.3234,4.3234,4.3648,4.3762,4.328,4.3142,4.289,4.2321,4.2275,4.2275,4.2275,4.2275,4.2275,4.2275,4.2633,4.3075,4.3678,4.4013,4.4223,4.4285,4.4285,4.4285,4.4285,4.4285,4.4285,2.745,2.6616,2.5858,2.5988,2.5456,2.4909,2.5056,0.0,2.4202,2.4202,0.0,2.4073,2.3572,0.0,0.0,2.228,2.1684,2.1379,2.1487,2.1593,2.2038,2.3066,2.3214,2.3381,2.3768,2.4783,2.567,2.6462,2.7863,2.9112,3.0237,3.1294,3.2338,3.3355,3.3418,3.3418,3.3418,3.2969,3.2539,3.2229,3.2129,3.2129,3.2187,3.2598,3.3027,3.3418,3.3418,3.3418,3.3418,3.3418,3.3418,3.3418,3.3418,3.3418,3.3418,3.3418,3.3418,3.3418,3.3418,3.3418,3.3418,3.3418,3.3418,3.3418,3.3418,3.3607,3.3985,3.4298,3.461,3.5066,3.581,3.6686,3.7486,3.8273,3.9109,3.9822,4.0214,4.0279,4.0279,4.0279,4.0279,4.0539,4.1187,4.1293,4.1572,4.2212,4.3119,4.3716,4.3716,4.4176,4.4313,4.3785,4.3349,4.289,4.2321,4.2275,4.2275,4.2275,4.2275,4.2275,4.2275,4.2633,4.2949,4.3389,4.3701,4.4013,4.4285,4.4285,4.4285,4.4285,4.4285,4.4285,2.7782,2.7427,2.6996,2.6612,2.645,2.6143,2.5584,2.5082,2.4677,2.4436,0.0,0.0,0.0,0.0,0.0,0.0,2.1573,2.126,0.0,0.0,2.1593,2.2073,0.0,0.0,2.2997,2.3858,2.457,2.5061,2.6402,2.7723,2.8888,3.0527,3.1856,3.2734,3.3175,3.3418,3.3418,3.3008,3.2715,3.2519,3.2285,3.2285,3.2539,3.2715,3.3027,3.3418,3.3418,3.3418,3.3418,3.3418,3.3418,3.3418,3.3418,3.3418,3.3418,3.3418,3.3418,3.3418,3.3418,3.3418,3.3418,3.3418,3.3418,3.3418,3.3418,3.3481,3.3733,3.4235,3.4485,3.4836,3.5871,3.6707,3.7507,3.8337,3.913,3.9822,4.0214,4.0279,4.0279,4.0279,4.0279,4.0474,4.0906,4.1164,4.1508,4.2212,4.3165,4.3808,4.3808,4.452,4.4841,4.4313,4.3808,4.3303,4.2821,4.25,4.2275,4.2275,4.2275,4.2275,4.2275,4.2633,4.2949,4.3326,4.3615,4.395,4.4285,4.4285,4.4285,4.4285,4.4285,4.4453,2.8446,2.8352,2.8108,2.7505,2.7392,2.7166,2.6201,2.5633,2.5237,2.4839,2.454,0.0,0.0,0.0,2.269,2.2026,0.0,2.126,2.0955,2.1011,2.1182,2.1388,2.1405,0.0,0.0,2.3083,2.3562,2.4042,2.5276,2.6501,2.764,2.9535,3.1058,3.2104,3.2777,3.3175,3.3418,3.3125,3.291,3.2793,3.2598,3.2617,3.2793,3.291,3.3125,3.3418,3.3418,3.3418,3.3418,3.3418,3.3418,3.3418,3.3418,3.3418,3.3418,3.3418,3.3418,3.3418,3.3418,3.3418,3.3418,3.3418,3.3418,3.3418,3.3418,3.3418,3.3544,3.4235,3.4503,3.4831,3.5994,3.6894,3.7675,3.8528,3.9237,3.9822,4.0214,4.0279,4.0279,4.0279,4.0279,4.0409,4.0712,4.11,4.1508,4.2084,4.3101,4.3808,4.3808,4.4727,4.5163,4.4658,4.413,4.3602,4.3142,4.2637,4.2344,4.2522,4.2545,4.2614,4.2729,4.2921,4.3304,4.3749,4.4002,4.4317,4.4717,4.4717,4.4645,4.4501,4.4357,4.4501,2.961,2.9273,2.8947,2.8795,2.8163,2.7492,2.7027,2.6337,2.5707,2.5448,2.5084,2.4757,2.4739,2.3899,2.3111,2.2801,2.1925,0.0,0.0,2.0566,2.06,2.1319,2.1405,2.1713,0.0,2.262,2.2946,2.3684,2.4711,2.5763,2.6751,2.8333,2.9961,3.1642,3.2084,3.2695,3.3418,3.3418,3.3203,3.2793,3.3184,3.3184,3.2812,3.3223,3.3418,3.3418,3.3418,3.3418,3.3418,3.3418,3.3418,3.3418,3.3418,3.3418,3.3418,3.3418,3.3418,3.3418,3.3418,3.3418,3.3418,3.3418,3.3418,3.3418,3.3418,3.3418,3.3544,3.4235,3.4725,3.5359,3.6467,3.7353,3.8203,3.9016,3.9473,3.9822,4.0214,4.0279,4.0279,4.0279,4.0279,4.0409,4.0712,4.11,4.1444,4.1742,4.2971,4.3808,4.3808,4.4727,4.5163,4.4658,4.413,4.3602,4.3142,4.2637,4.2545,4.3028,4.3074,4.328,4.3739,4.3762,4.4113,4.4854,4.4854,4.5178,4.5886,4.5886,4.5597,4.5029,4.4525,4.4285,3.0045,2.9892,2.9751,2.9628,2.9186,2.8667,2.8183,2.7509,2.6825,2.6278,2.5698,2.5196,2.4985,2.4219,2.3562,0.0,0.0,0.0,0.0,2.0686,2.0377,2.0634,2.0908,2.1251,2.1747,2.2038,2.2431,2.2929,2.3722,2.4544,2.5357,2.7244,2.9034,3.0657,3.1746,3.2633,3.3418,3.3418,3.334,3.3203,3.3359,3.334,3.3223,3.3359,3.3418,3.3418,3.3418,3.3418,3.3418,3.3418,3.3418,3.3418,3.3418,3.3418,3.3418,3.3418,3.3418,3.3418,3.3418,3.3418,3.3418,3.3418,3.3418,3.3418,3.3418,3.3418,3.3603,3.4595,3.4986,3.546,3.6859,3.7624,3.8224,3.9038,3.9494,3.9822,4.0214,4.0279,4.0279,4.0279,4.0279,4.0344,4.0474,4.0928,4.1421,4.1742,4.2696,4.3441,4.3762,4.4428,4.4933,4.5094,4.4635,4.4267,4.4107,4.3602,4.3372,4.3556,4.3556,4.3625,4.3808,4.3808,4.416,4.4901,4.4901,4.5225,4.5934,4.5934,4.5838,4.5645,4.5414,4.5149,3.0882,3.0846,3.0762,3.0396,3.0074,2.9651,2.9098,2.8574,2.8031,2.7377,2.6662,2.6062,2.5714,2.4969,0.0,0.0,0.0,0.0,0.0,2.0807,2.0446,2.0309,2.0514,2.081,2.1227,2.1596,2.1955,2.24,2.3048,2.3705,2.4436,2.6183,2.7943,2.9521,3.0724,3.1813,3.2807,3.2952,3.3092,3.3228,3.3355,3.3418,3.3418,3.3418,3.3418,3.3418,3.3418,3.3418,3.3418,3.3418,3.3418,3.3418,3.3418,3.3418,3.3418,3.3418,3.3418,3.3418,3.3418,3.3418,3.3418,3.3418,3.3418,3.3457,3.3613,3.3652,3.3877,3.4868,3.532,3.582,3.6996,3.7853,3.8565,3.908,3.956,3.9953,4.0214,4.0279,4.0279,4.0279,4.0279,4.0279,4.0279,4.0864,4.1357,4.1614,4.2495,4.3257,4.3739,4.4267,4.4796,4.5369,4.491,4.452,4.4336,4.4015,4.3877,4.4084,4.4084,4.4176,4.4359,4.4359,4.4625,4.5244,4.5376,4.5704,4.6292,4.6422,4.6391,4.6199,4.6199,4.5934]}]]